GFSMW_925_temp_000.txt.gz
Temp
16 19 20 20 19 19 19 19 18 17 17 17 16 16 15 16 16 16 16 16 16 16 15 14 14 13 12 11 11 11 10 10 9 9 10 12 13 11 11 10 11 11 11
15 16 17 18 18 18 18 16 17 17 17 17 17 16 16 15 15 15 15 15 15 14 14 13 12 12 12 11 10 9 9 9 9 8 7 6 9 10 9 10 10 9 10
15 14 14 16 17 17 17 17 17 17 17 17 16 15 15 14 14 14 14 13 14 13 13 12 11 11 10 10 9 9 8 8 8 8 8 5 5 7 9 9 8 8 8
15 14 13 14 17 17 17 17 17 17 17 16 16 15 14 13 13 13 13 12 12 12 11 11 10 10 9 9 8 8 8 8 7 7 7 7 6 4 4 7 6 7 6
16 14 14 15 16 17 17 17 17 17 16 16 16 16 15 14 13 13 12 12 11 11 11 10 9 9 8 8 8 8 8 7 7 6 6 6 6 6 3 4 4 5 5
14 13 14 14 15 16 17 17 17 16 16 16 16 15 15 14 13 12 12 11 11 10 10 9 9 8 8 8 7 7 7 6 6 6 5 5 4 4 3 3 3 4 5
14 13 13 12 13 14 16 16 16 15 16 16 15 15 14 14 13 12 12 11 10 10 9 9 8 8 7 7 7 6 6 6 5 5 4 4 4 3 3 3 3 3 3
14 13 13 13 13 14 15 15 15 14 15 15 14 14 14 13 13 12 11 10 9 9 8 8 7 7 7 6 6 6 5 5 4 4 4 3 3 3 2 2 2 1 2
14 13 12 12 12 13 14 14 14 14 14 14 14 13 13 13 12 11 10 9 9 8 8 7 7 7 6 6 5 5 4 4 4 3 3 2 2 1 1 1 1 1 0
13 12 12 12 12 13 13 13 14 13 13 13 13 12 12 11 10 10 9 9 8 8 7 7 7 6 6 5 4 4 4 3 3 3 2 2 1 0 -0 -0 -0 0 -0
13 13 12 12 12 13 13 13 12 12 12 12 11 11 10 10 9 9 8 8 7 7 7 6 6 5 5 4 4 4 3 3 3 2 2 1 -0 -1 -1 -1 -1 -1 -0
13 13 12 10 10 11 12 12 11 11 11 11 10 10 9 9 8 8 8 7 7 6 6 5 5 5 4 4 3 3 3 3 2 2 1 -0 -1 -1 -2 -2 -1 -1 -1
12 12 10 10 10 9 10 11 11 10 10 10 9 8 8 8 8 7 7 7 6 6 5 5 4 4 3 3 3 3 2 2 2 1 0 -1 -1 -2 -2 -2 -2 -1 -1
13 12 10 9 9 9 10 10 10 10 9 9 8 8 8 7 7 6 6 6 5 5 4 4 3 3 3 2 2 2 2 2 1 1 -0 -1 -1 -2 -2 -1 -1 -1 -1
13 12 10 9 9 8 9 9 9 9 8 8 7 7 7 6 6 6 5 5 4 4 4 3 3 2 2 1 1 2 1 1 1 0 -0 -0 -1 -1 -1 -1 -1 -1 -2
13 12 11 9 8 7 7 8 8 8 8 7 7 6 6 6 5 5 4 4 4 3 3 2 2 1 1 0 1 1 1 1 0 0 -0 -1 -1 -2 -1 -2 -1 -1 -1
13 11 10 9 8 7 8 8 7 7 7 7 6 6 5 5 4 4 4 4 3 2 2 2 1 1 0 0 0 0 -0 -1 -1 -1 -2 -2 -2 -2 -2 -3 -2 -2 -2
11 10 8 7 7 7 8 7 7 7 6 6 5 5 4 4 4 4 3 3 2 2 1 1 0 -0 -0 -1 -1 -1 -2 -2 -2 -2 -2 -2 -2 -3 -2 -2 -2 -3 -4
8 7 7 6 7 7 7 7 6 6 5 5 4 4 4 4 3 3 2 2 1 1 0 0 -0 -1 -1 -2 -2 -2 -2 -3 -3 -3 -3 -3 -3 -3 -2 -3 -3 -4 -4
6 5 5 6 7 6 7 6 5 5 4 4 4 3 3 3 3 2 2 1 0 0 -0 -1 -1 -1 -2 -2 -2 -2 -2 -3 -3 -3 -3 -3 -2 -2 -3 -3 -3 -5 -5
5 5 6 5 6 6 6 4 4 4 4 3 3 3 3 2 2 1 1 -0 -0 -1 -1 -2 -2 -2 -2 -3 -3 -2 -2 -2 -3 -3 -3 -3 -3 -3 -3 -3 -5 -4 -3
4 5 4 4 5 5 5 4 3 3 3 3 2 2 2 2 1 0 -0 -1 -1 -2 -2 -3 -3 -3 -3 -3 -3 -2 -2 -2 -3 -3 -3 -4 -4 -4 -4 -5 -4 -4 -5
3 4 3 3 4 5 5 3 2 2 2 2 2 1 1 0 -0 -1 -1 -2 -2 -3 -3 -3 -3 -4 -4 -3 -3 -3 -2 -2 -2 -3 -4 -4 -4 -5 -6 -6 -5 -5 -7
3 3 3 2 2 3 3 3 2 2 2 1 1 0 0 -1 -1 -2 -2 -3 -3 -3 -3 -3 -4 -4 -4 -4 -3 -3 -3 -3 -4 -4 -5 -5 -5 -6 -6 -6 -6 -7 -7
3 3 2 2 1 2 2 2 1 1 1 0 -0 -1 -1 -2 -2 -2 -3 -3 -3 -3 -3 -4 -4 -4 -4 -4 -3 -3 -3 -3 -3 -4 -6 -6 -6 -7 -7 -7 -7 -7 -7
3 2 2 1 1 1 1 1 1 1 0 -0 -1 -2 -2 -2 -3 -3 -3 -3 -4 -4 -4 -4 -4 -4 -4 -4 -3 -3 -3 -4 -5 -6 -6 -7 -7 -7 -7 -7 -7 -8 -7

GFSMW_925_temp_003.txt.gz
Temp
16 18 19 19 19 19 20 19 19 18 17 17 16 15 15 15 15 16 16 16 16 15 15 14 13 12 12 11 10 10 10 10 9 9 10 12 11 10 11 10 10 10 9
15 15 16 17 18 19 19 17 17 16 17 17 17 17 15 14 15 15 15 15 15 14 14 13 13 12 11 10 9 9 9 8 8 7 6 5 8 10 12 10 9 9 9
15 14 13 15 17 17 17 16 15 16 17 17 17 16 14 14 13 14 14 14 14 13 13 12 12 11 10 9 8 8 7 7 7 7 6 4 4 4 8 9 8 8 7
15 14 12 13 15 16 15 16 16 16 17 17 16 16 14 13 13 13 13 12 12 12 12 11 10 10 9 8 8 7 7 6 5 7 6 6 5 3 3 6 6 6 5
15 14 14 14 15 15 15 16 16 16 16 16 17 16 15 14 13 13 12 12 12 11 11 10 10 9 8 8 7 7 6 6 5 4 4 4 4 5 1 2 3 4 4
14 13 13 14 14 15 15 16 16 16 16 16 16 16 15 13 12 11 12 11 11 10 10 9 9 8 8 7 7 6 6 5 5 4 4 3 2 2 1 1 2 2 3
13 12 12 12 12 14 15 16 16 15 16 16 15 16 15 14 13 12 12 11 10 10 9 8 8 7 7 6 6 5 5 4 4 3 3 3 2 2 1 1 1 1 1
14 13 13 12 12 13 14 14 15 15 15 15 15 15 15 14 13 12 12 11 10 9 9 8 7 7 6 6 5 5 4 4 3 3 2 2 2 1 0 -0 -1 -1 0
13 13 12 12 11 12 13 15 15 15 15 15 14 14 14 13 12 11 11 10 9 8 8 7 6 6 5 5 5 4 4 3 3 3 2 2 1 0 -0 -1 -1 -2 -2
13 12 11 11 11 12 13 14 15 14 14 14 14 13 12 12 11 10 10 9 8 7 7 6 6 5 5 4 4 4 3 3 3 2 2 1 0 -0 -1 -1 -2 -2 -2
13 12 11 10 10 11 12 13 13 13 12 12 12 12 11 11 10 10 9 8 8 7 6 6 5 5 4 4 3 3 3 2 2 2 1 1 0 -1 -1 -2 -2 -2 -2
12 12 11 9 9 10 11 11 12 12 12 11 11 10 10 9 9 9 8 7 7 6 5 5 4 4 4 3 3 2 2 2 1 1 1 0 -0 -1 -1 -2 -2 -2 -2
11 10 9 9 9 9 10 10 11 11 10 10 10 9 9 9 8 8 7 6 6 5 5 4 4 3 3 2 2 1 1 1 1 1 0 0 -1 -1 -1 -1 -2 -2 -2
11 10 9 8 8 8 9 10 10 10 9 9 9 9 8 8 7 6 6 5 5 4 4 3 3 2 2 2 1 1 1 1 0 -0 -0 -1 -1 -1 -1 -2 -1 -2 -2
11 10 9 8 7 7 8 9 9 9 9 9 8 8 7 7 6 6 5 5 4 4 3 3 2 2 1 1 1 1 0 -1 -1 -1 -2 -2 -2 -2 -1 -1 -1 -2 -2
11 10 9 8 7 6 7 8 8 8 8 8 7 7 6 6 5 5 5 4 4 3 2 2 1 1 0 0 0 0 -1 -2 -2 -3 -3 -2 -2 -2 -2 -2 -2 -1 -1
11 10 9 8 6 6 8 7 7 7 7 7 6 6 5 5 5 4 4 3 3 2 2 1 0 0 -0 -1 -0 -1 -1 -2 -3 -3 -3 -3 -3 -3 -3 -3 -3 -3 -3
11 9 7 6 6 8 8 8 7 7 7 6 5 5 5 4 4 3 3 2 2 1 1 0 -0 -1 -1 -2 -1 -1 -2 -2 -2 -2 -3 -3 -3 -3 -3 -3 -4 -4 -4
8 7 7 6 6 7 7 7 6 6 5 5 5 4 4 4 3 2 2 1 1 0 0 -1 -1 -2 -2 -2 -2 -2 -2 -2 -2 -3 -3 -3 -3 -3 -2 -3 -3 -4 -5
6 5 5 5 6 6 7 6 5 5 4 4 4 4 3 3 2 1 1 0 0 -0 -1 -1 -2 -2 -3 -3 -3 -2 -2 -2 -3 -3 -3 -3 -3 -3 -3 -3 -4 -6 -5
4 5 5 4 4 6 6 4 4 4 4 4 3 3 2 2 1 1 0 -0 -1 -1 -2 -2 -2 -3 -3 -3 -3 -2 -2 -2 -2 -3 -3 -4 -4 -3 -3 -3 -5 -5 -4
4 4 3 3 5 5 5 3 3 3 3 3 2 2 1 1 0 0 -1 -1 -2 -3 -3 -3 -3 -3 -4 -4 -4 -3 -2 -2 -2 -3 -4 -4 -4 -4 -4 -5 -5 -4 -5
3 3 2 3 4 5 5 3 2 2 2 2 1 1 0 0 -0 -1 -2 -2 -3 -3 -4 -4 -4 -4 -4 -4 -4 -3 -3 -3 -3 -4 -4 -5 -5 -5 -6 -6 -5 -6 -7
2 2 2 1 1 3 3 3 2 2 2 1 0 0 -0 -1 -2 -2 -3 -3 -4 -4 -4 -4 -4 -5 -5 -4 -4 -3 -3 -4 -4 -4 -5 -5 -6 -6 -7 -7 -7 -7 -7
2 2 1 1 1 2 2 1 1 1 1 0 -0 -1 -1 -2 -2 -3 -3 -4 -4 -4 -4 -4 -4 -5 -5 -4 -3 -3 -3 -3 -4 -4 -6 -7 -7 -7 -8 -8 -8 -8 -8
2 1 1 1 0 1 1 1 1 1 0 -0 -1 -2 -2 -3 -3 -4 -4 -4 -4 -4 -4 -4 -4 -5 -4 -4 -4 -3 -4 -4 -5 -6 -7 -7 -8 -8 -8 -8 -8 -8 -8

GFSMW_925_temp_006.txt.gz
Temp
17 18 20 19 18 19 19 18 18 17 18 16 15 15 15 15 15 15 15 16 16 15 15 14 13 12 12 10 10 10 10 8 8 9 10 11 10 10 10 11 9 9 9
15 15 16 17 17 18 18 17 17 17 16 16 16 16 14 14 14 14 14 15 15 14 14 13 13 11 11 10 9 9 8 8 7 6 5 3 7 9 11 10 9 10 9
15 14 13 15 16 16 17 17 16 15 16 17 16 15 14 13 13 13 13 13 14 13 13 12 11 11 10 9 8 7 7 6 7 6 6 3 3 2 7 9 8 7 6
14 14 13 13 15 16 16 16 16 15 16 17 17 16 13 12 12 13 12 12 12 12 12 11 11 10 9 8 7 7 6 6 5 6 5 5 4 2 1 5 5 4 3
15 14 13 15 14 15 15 15 15 15 16 16 17 15 14 14 13 12 12 12 11 11 11 10 10 9 8 8 7 6 6 5 4 4 3 3 3 3 1 1 1 2 2
13 13 13 13 14 14 14 14 14 15 15 16 16 17 15 13 12 11 11 11 10 10 10 9 9 8 8 7 6 6 5 5 4 3 3 2 2 1 0 -1 0 0 1
12 11 11 12 12 12 13 13 14 14 15 16 16 16 15 14 13 12 11 10 10 9 9 8 8 7 7 6 6 5 5 4 4 3 3 2 2 1 1 -0 -1 -1 -0
11 12 12 13 12 11 12 13 13 14 14 15 15 15 15 14 13 12 11 10 10 9 8 8 7 6 6 5 5 5 4 4 3 3 2 2 2 1 0 -1 -2 -2 -2
11 11 11 12 11 11 12 13 13 14 14 14 14 14 13 13 12 11 10 10 9 8 7 7 6 6 5 5 4 4 4 3 3 2 2 1 1 1 -0 -1 -1 -3 -3
11 11 10 10 11 11 12 13 14 14 14 13 13 13 12 12 11 11 10 9 8 7 7 6 6 5 4 4 4 4 3 3 2 2 1 1 1 0 -0 -1 -2 -2 -3
12 11 10 10 9 11 12 12 13 13 12 12 12 12 11 11 10 10 9 8 7 6 6 5 5 4 4 3 3 3 2 2 2 1 1 1 1 0 -1 -1 -2 -2 -3
10 10 9 9 9 9 10 10 11 12 12 11 11 11 10 10 9 8 8 7 6 6 5 5 4 4 3 3 3 2 2 1 1 1 0 -0 -0 -1 -1 -1 -2 -2 -2
9 8 8 8 8 7 8 9 10 10 10 10 10 9 9 9 8 7 7 6 6 5 4 4 3 3 3 2 2 1 1 0 -0 -1 -1 -1 -2 -2 -2 -2 -3 -3 -3
9 9 8 8 7 7 7 8 8 10 9 10 9 9 8 8 7 6 6 5 5 4 4 3 2 2 2 2 1 1 0 -0 -1 -2 -2 -2 -2 -3 -2 -2 -2 -2 -2
10 10 8 7 6 6 7 7 8 9 9 9 8 8 7 6 6 5 5 4 4 3 3 2 2 2 1 1 0 0 -0 -1 -2 -2 -2 -3 -3 -3 -2 -2 -2 -2 -3
11 10 8 7 6 6 5 6 7 8 9 8 7 6 6 5 5 5 4 4 3 2 2 2 1 1 0 -0 -0 0 -0 -1 -2 -3 -3 -3 -3 -3 -3 -3 -2 -2 -3
10 9 8 7 6 6 6 6 7 7 8 7 6 5 5 5 4 4 3 3 2 2 1 1 0 0 -1 -1 -1 -1 -1 -2 -2 -2 -3 -3 -3 -3 -3 -3 -3 -4 -3
10 9 7 5 5 6 7 7 7 7 6 5 5 5 5 4 3 3 2 2 1 1 1 0 -0 -1 -1 -2 -2 -2 -2 -2 -2 -2 -3 -3 -3 -3 -3 -3 -4 -4 -4
9 7 6 5 5 6 7 7 6 5 5 4 4 4 4 3 2 2 2 1 1 0 -0 -1 -1 -2 -2 -3 -3 -2 -2 -2 -2 -2 -3 -3 -3 -3 -3 -3 -3 -4 -5
6 5 5 5 5 4 6 5 4 4 4 4 3 3 3 2 2 1 1 0 -0 -1 -1 -1 -2 -3 -3 -3 -3 -3 -3 -3 -3 -3 -3 -3 -3 -3 -3 -3 -4 -6 -5
4 4 5 3 3 5 6 4 4 3 3 3 3 2 2 2 1 0 -0 -1 -1 -1 -2 -2 -2 -3 -3 -4 -4 -3 -3 -3 -3 -3 -4 -4 -4 -3 -3 -4 -5 -5 -5
3 3 3 2 3 5 5 3 2 2 2 2 2 1 1 0 0 -0 -1 -1 -2 -2 -3 -3 -3 -4 -4 -4 -4 -3 -3 -3 -3 -3 -4 -4 -4 -4 -5 -5 -5 -5 -5
3 3 2 2 3 4 5 2 1 2 2 2 1 0 0 -0 -1 -1 -1 -2 -3 -4 -4 -4 -4 -4 -5 -5 -5 -4 -4 -3 -3 -4 -4 -5 -5 -6 -7 -7 -6 -6 -8
2 2 2 0 0 3 3 2 1 2 2 1 0 -0 -1 -1 -1 -2 -3 -3 -4 -4 -4 -5 -5 -5 -5 -5 -5 -4 -4 -4 -4 -4 -5 -6 -6 -7 -7 -8 -8 -8 -8
1 1 0 -1 -1 1 1 1 1 2 1 0 -1 -1 -1 -2 -2 -3 -3 -4 -4 -4 -4 -4 -4 -5 -5 -5 -4 -3 -4 -4 -4 -5 -6 -7 -8 -8 -8 -8 -8 -8 -8
0 -0 -1 -1 -1 0 0 0 1 1 1 -1 -1 -2 -2 -3 -3 -3 -4 -4 -4 -5 -5 -5 -5 -5 -5 -5 -4 -4 -4 -4 -5 -6 -8 -8 -8 -9 -9 -9 -9 -9 -9

GFSMW_925_temp_009.txt.gz
Temp
18 19 19 20 20 20 19 18 17 16 17 17 16 15 15 14 14 15 15 15 15 15 15 14 13 13 13 11 11 10 9 7 9 8 10 9 10 9 10 10 9 8 8
17 18 17 18 19 19 18 15 15 16 16 16 15 16 14 13 14 13 13 14 14 14 14 14 13 12 11 10 10 9 8 6 7 7 6 9 10 9 9 8 8 8 7
18 19 17 16 17 17 16 15 15 14 15 15 15 14 13 12 12 12 12 13 13 13 13 12 12 11 10 9 9 8 8 6 5 6 7 9 8 6 7 8 6 6 5
17 19 17 15 15 16 16 15 14 14 14 16 16 16 13 12 11 12 12 12 12 12 12 12 11 10 9 8 7 7 7 6 5 5 4 4 5 6 7 6 6 4 4
17 18 17 17 16 15 15 15 14 14 15 16 17 15 13 12 12 11 11 11 11 11 11 10 10 9 9 8 7 6 6 5 4 4 3 3 3 3 4 5 5 4 3
16 16 16 15 13 15 15 14 14 14 14 15 15 15 15 12 11 10 10 10 10 10 9 9 9 8 8 7 7 6 5 5 4 3 3 2 3 4 3 3 4 3 3
15 14 14 13 13 12 13 13 13 13 14 14 14 15 16 14 13 11 10 10 9 9 8 8 8 7 7 6 6 5 5 4 4 3 2 2 2 1 1 1 2 2 2
15 13 14 14 13 12 12 12 12 12 13 13 14 14 16 14 12 12 11 10 10 9 8 8 7 7 6 6 5 5 4 4 3 3 2 2 1 1 1 1 0 2 3
14 13 13 13 12 11 12 12 12 12 12 13 13 14 14 13 12 11 10 10 9 8 7 7 7 6 5 5 5 4 4 3 3 2 2 1 1 1 -0 -0 -1 -0 1
13 13 12 12 12 12 11 12 12 12 12 12 13 13 12 12 11 10 10 9 8 8 7 6 6 5 5 5 4 4 3 3 2 1 1 0 -0 -0 -1 -1 -1 -1 -1
13 13 12 11 11 10 11 11 11 12 11 12 12 12 11 11 10 10 9 8 7 7 6 6 5 5 4 4 4 3 2 2 1 1 -0 -1 -1 -1 -1 -1 -1 -2 -2
11 11 10 9 9 10 9 10 10 11 11 11 11 11 10 10 9 9 8 7 7 6 5 5 4 4 4 3 3 2 2 1 0 -0 -1 -2 -2 -2 -2 -2 -2 -2 -2
9 9 9 10 9 8 8 8 9 9 10 10 10 9 9 9 8 7 7 6 6 5 4 4 4 3 3 3 2 1 1 0 -0 -1 -2 -2 -3 -3 -3 -3 -2 -2 -2
9 9 9 9 8 8 7 7 7 9 9 9 9 8 8 8 7 6 6 5 5 4 4 3 3 3 2 2 1 0 0 -0 -1 -1 -2 -3 -3 -3 -3 -3 -2 -2 -2
9 9 8 8 7 6 6 6 6 7 8 8 8 7 7 6 6 5 5 4 4 4 3 3 2 2 2 1 -0 0 -0 -1 -1 -2 -2 -3 -3 -3 -2 -2 -2 -2 -2
10 9 8 7 7 6 6 5 5 6 8 7 7 6 5 5 5 4 4 3 3 3 2 2 2 1 1 -0 -0 -0 -1 -1 -2 -2 -3 -3 -3 -3 -3 -3 -3 -2 -2
10 9 8 8 6 6 5 5 6 7 7 6 5 5 5 4 4 3 3 3 2 2 1 1 1 -0 -0 -2 -1 -1 -1 -2 -2 -3 -3 -3 -3 -3 -4 -3 -3 -3 -3
10 8 7 6 5 5 5 5 6 6 6 4 4 4 4 3 3 3 3 2 2 1 1 0 -1 -1 -1 -2 -2 -2 -2 -3 -3 -2 -3 -3 -3 -4 -3 -3 -3 -4 -4
9 8 7 6 5 5 5 5 4 4 4 4 4 3 3 3 3 2 2 1 1 0 -0 -1 -1 -2 -2 -3 -3 -3 -3 -3 -3 -3 -3 -3 -3 -3 -2 -3 -4 -3 -4
7 6 5 5 4 3 4 4 3 3 3 3 3 3 3 3 2 1 1 0 -0 -1 -1 -1 -2 -3 -3 -3 -4 -3 -3 -3 -3 -3 -3 -4 -3 -3 -3 -3 -3 -4 -5
5 5 5 4 3 4 5 3 2 2 2 3 3 3 2 2 1 1 0 -1 -1 -2 -2 -2 -2 -3 -4 -4 -4 -3 -3 -3 -3 -3 -3 -3 -4 -4 -3 -4 -5 -5 -5
3 3 3 2 2 4 4 2 0 2 2 3 2 1 1 1 0 -0 -1 -2 -2 -2 -3 -3 -4 -4 -4 -5 -4 -4 -3 -3 -3 -3 -4 -4 -4 -4 -5 -5 -6 -5 -5
2 2 2 1 2 3 4 1 0 2 2 2 1 0 0 -0 -1 -1 -2 -2 -3 -3 -4 -4 -4 -4 -5 -5 -5 -4 -4 -3 -3 -4 -4 -4 -5 -6 -6 -7 -6 -6 -7
2 2 2 1 -0 2 2 2 2 2 2 1 -0 -1 -1 -1 -2 -2 -3 -3 -4 -4 -4 -4 -4 -5 -5 -5 -5 -4 -4 -4 -4 -4 -5 -6 -7 -7 -7 -7 -7 -7 -7
2 2 1 -1 -1 1 1 1 1 2 1 -0 -1 -1 -2 -2 -2 -3 -3 -4 -4 -4 -4 -5 -5 -5 -5 -5 -4 -4 -4 -4 -4 -5 -6 -7 -7 -7 -8 -8 -8 -8 -8
0 -0 -1 -1 -1 0 0 1 1 2 1 -1 -2 -2 -2 -3 -3 -4 -4 -4 -4 -5 -5 -5 -5 -5 -5 -5 -5 -4 -4 -5 -6 -6 -7 -8 -8 -8 -8 -8 -8 -8 -8

GFSMW_925_temp_012.txt.gz
Temp
23 22 23 23 22 22 22 21 21 20 19 17 16 14 14 15 15 15 15 15 15 14 14 13 12 12 12 11 11 10 10 10 10 12 13 12 11 11 11 11 11 10 9
23 23 23 23 22 23 21 21 20 19 18 17 16 15 14 13 13 14 14 14 14 14 13 13 12 11 11 10 10 10 10 10 9 10 11 14 14 12 11 11 10 10 9
23 23 24 23 22 22 21 20 19 18 18 16 16 15 12 11 11 12 13 13 13 13 12 12 11 10 10 9 9 9 9 10 9 8 10 13 13 11 11 11 10 10 9
22 22 23 23 23 21 20 18 17 18 17 16 15 14 15 13 11 12 12 12 12 11 11 11 10 10 9 8 8 8 8 8 9 8 7 7 8 10 11 10 10 8 7
22 22 22 22 22 21 18 17 17 17 16 14 15 16 15 14 11 11 11 10 10 10 10 9 9 9 8 8 7 7 7 7 7 7 7 7 7 7 8 9 10 8 8
21 21 21 21 21 20 17 16 17 16 15 14 16 16 14 11 9 9 9 9 10 9 8 8 8 8 7 7 6 6 6 6 6 6 5 6 7 7 7 7 8 7 7
21 21 21 21 20 18 16 16 16 16 14 14 14 14 12 12 11 10 10 11 10 9 8 8 8 7 6 6 6 6 5 5 5 5 5 5 5 5 5 5 6 6 6
20 21 21 20 19 17 17 16 17 15 14 14 13 13 12 11 11 11 11 11 10 9 8 7 7 6 6 5 5 5 5 5 5 4 4 4 4 4 4 4 4 5 6
19 19 21 19 19 17 17 16 17 16 15 14 13 12 12 11 11 10 11 10 9 8 7 7 6 6 5 5 5 5 5 4 4 4 4 3 3 3 3 3 3 3 4
19 19 19 19 18 17 17 17 16 16 15 13 12 11 11 10 10 10 10 9 8 7 7 6 6 5 5 5 4 5 4 4 4 3 3 3 3 2 2 2 2 2 2
18 18 18 18 17 16 16 16 16 14 12 11 10 10 9 9 10 10 9 8 7 7 6 6 5 5 5 4 4 4 4 3 3 3 2 1 1 1 1 1 1 1 1
16 16 16 17 16 16 15 15 14 12 11 9 10 9 9 9 9 9 8 7 6 6 5 5 5 4 4 4 4 4 3 3 3 2 1 1 1 0 1 0 0 0 0
16 14 14 15 15 15 15 13 12 9 9 9 9 9 9 9 8 7 7 6 5 5 4 4 4 4 3 3 3 3 3 2 2 1 1 0 0 0 0 -0 -0 -0 0
15 14 14 15 15 14 13 10 8 8 9 8 10 9 9 8 7 6 6 5 5 4 4 4 3 2 2 2 2 2 2 2 1 1 0 -0 -1 -1 -1 -1 -0 0 -0
16 13 13 13 13 12 9 7 7 7 8 9 9 8 7 6 6 5 4 4 4 3 3 3 2 2 2 2 1 2 2 2 1 1 0 -0 -1 -2 -2 -1 -1 -1 -1
15 13 12 12 11 9 8 6 7 7 8 8 7 6 5 5 4 4 4 3 3 2 2 2 1 1 1 0 -1 -0 1 1 1 0 -0 -0 -1 -1 -2 -2 -2 -2 -3
13 12 12 11 10 8 7 6 6 7 8 6 6 5 5 4 4 3 3 3 2 2 2 1 1 1 0 -1 -1 -1 -0 0 -0 -1 -1 -1 -1 -1 -2 -2 -2 -2 -2
12 12 10 10 9 8 7 7 7 7 6 6 5 5 4 3 3 3 3 2 2 2 1 1 0 -0 -1 -2 -2 -2 -1 -0 -1 -1 -1 -1 -1 -2 -2 -2 -3 -3 -2
12 12 9 9 8 8 7 7 7 6 6 5 4 4 3 3 3 2 2 1 1 1 0 -0 -0 -1 -0 -3 -3 -2 -1 -1 -1 -1 -1 -1 -2 -2 -2 -3 -3 -2 -2
9 9 8 8 8 7 7 7 6 6 5 4 4 3 3 3 2 2 1 0 0 -0 -0 -1 -1 -2 -2 -2 -3 -3 -2 -1 -1 -1 -1 -2 -2 -2 -3 -3 -3 -3 -3
9 8 8 8 7 7 7 6 5 4 3 3 3 2 2 2 1 0 0 -0 -0 -1 -1 -1 -1 -2 -2 -3 -3 -3 -2 -2 -2 -1 -2 -2 -2 -3 -3 -3 -4 -4 -4
6 7 6 6 6 6 6 5 3 2 2 2 1 1 1 -0 -0 -0 -1 -1 -1 -1 -0 -1 -0 -1 -2 -3 -3 -4 -3 -3 -2 -3 -2 -3 -3 -4 -4 -5 -5 -5 -5
6 6 5 5 5 5 4 2 2 2 2 1 0 -0 -0 -1 -1 -0 -1 -1 -1 -1 -1 -1 -1 -1 -2 -3 -3 -3 -3 -3 -3 -3 -3 -3 -4 -5 -5 -5 -5 -6 -5
4 4 4 4 4 4 3 2 1 1 1 0 -0 -0 -1 -1 -1 -2 -2 -1 -1 -1 -2 -1 -2 -2 -3 -3 -3 -3 -3 -3 -3 -3 -4 -4 -5 -5 -5 -5 -5 -5 -5
4 4 3 2 2 2 1 1 1 1 1 -0 -0 -1 -1 -1 -1 -2 -2 -2 -3 -3 -3 -3 -3 -3 -3 -3 -4 -4 -4 -4 -4 -5 -4 -5 -5 -5 -5 -5 -5 -5 -6
3 2 2 1 1 1 0 -0 0 0 0 -0 -0 -1 -1 -2 -2 -2 -2 -3 -4 -4 -5 -5 -5 -5 -5 -5 -5 -4 -4 -5 -5 -5 -5 -5 -5 -6 -6 -6 -6 -6 -7

GFSMW_925_temp_015.txt.gz
Temp
26 26 25 25 26 26 26 25 25 23 23 23 20 19 18 17 16 15 15 15 16 15 15 14 14 14 13 13 13 12 12 11 11 13 14 14 13 13 13 13 12 12 11
25 25 25 24 25 25 25 25 24 24 23 22 19 18 17 16 15 13 15 15 15 14 14 14 13 13 12 12 11 11 12 11 10 11 13 14 14 13 13 13 12 11 10
24 25 25 25 24 24 25 25 24 23 22 19 18 16 15 13 12 12 13 14 14 14 13 13 12 12 11 11 10 10 10 11 10 9 11 13 14 11 13 12 11 11 10
24 24 25 25 25 24 24 24 23 23 22 20 18 16 14 13 13 11 12 13 13 13 12 12 11 11 10 10 9 9 9 10 10 10 9 9 9 10 10 12 11 11 9
24 25 24 24 24 25 24 22 22 21 21 19 19 17 16 16 13 10 12 12 12 12 11 11 11 10 10 9 9 9 9 8 9 8 8 9 9 9 9 8 10 9 9
24 24 24 24 23 23 23 21 21 20 20 19 18 16 17 14 11 10 10 11 11 11 11 10 10 9 9 8 8 8 7 7 7 7 7 7 8 8 8 8 8 8 8
23 23 23 23 22 22 22 20 19 20 19 18 17 17 17 12 11 11 10 10 10 10 10 10 9 9 8 8 7 7 7 7 7 7 7 6 6 6 6 6 6 6 6
22 21 21 23 23 21 21 19 19 19 18 17 17 17 14 12 11 11 11 11 11 10 9 9 9 8 8 7 7 7 7 6 6 6 5 5 5 5 5 5 5 4 5
21 21 21 21 22 21 21 19 19 19 17 16 17 15 12 11 11 11 11 12 11 10 9 9 8 8 7 7 7 7 7 6 6 5 5 5 5 4 4 4 3 4 3
20 20 20 20 21 21 20 19 19 19 17 16 13 12 11 11 11 12 12 12 10 9 9 8 8 7 7 7 6 6 6 5 6 5 4 4 4 4 3 3 3 3 3
19 19 19 19 21 20 19 19 19 18 16 14 12 11 11 11 11 11 11 10 9 9 8 8 7 7 7 6 6 6 6 5 5 5 4 3 3 2 2 2 2 2 2
19 19 18 19 20 19 19 19 19 17 16 13 11 10 10 10 10 10 10 9 9 8 8 7 7 6 6 5 6 6 5 5 4 4 3 3 3 2 2 2 2 1 1
19 18 18 17 19 18 18 18 17 15 13 10 9 9 10 10 10 9 9 8 8 7 7 6 6 6 5 5 5 4 4 4 4 3 3 2 2 1 1 1 1 1 1
18 17 16 17 17 17 18 16 15 13 10 9 9 9 9 9 9 8 8 7 7 6 6 5 5 4 4 3 3 3 4 4 3 3 2 2 1 1 0 -1 -1 -0 -0
17 17 15 16 17 15 15 12 11 10 9 9 9 9 9 8 8 7 7 6 6 5 5 4 4 3 3 3 2 2 2 3 3 2 2 2 1 -0 -1 -1 -1 -1 -1
15 16 15 15 14 12 11 9 9 9 9 8 8 8 7 7 6 6 5 5 4 4 4 3 3 3 2 1 0 -0 0 1 2 2 1 1 0 0 -0 -1 -1 -1 -1
14 15 14 14 11 9 8 8 7 7 6 6 6 6 6 5 5 5 5 4 4 4 3 3 2 2 2 1 -1 -1 -1 0 1 1 0 -0 0 -0 -1 -1 -1 -2 -2
13 13 13 10 8 7 6 7 5 6 5 5 5 5 5 5 5 5 4 4 4 3 3 2 2 1 1 0 -1 -2 -1 0 0 0 0 -0 -0 -1 -1 -2 -2 -3 -3
13 12 9 8 6 5 4 3 2 3 4 4 5 5 5 5 4 4 4 3 3 2 2 1 1 1 1 -0 -2 -2 -1 -0 -0 0 -0 -0 -1 -1 -1 -2 -3 -3 -2
9 9 8 7 6 6 6 6 4 5 5 4 5 5 5 4 3 3 2 2 2 1 1 1 1 0 -0 -1 -2 -2 -2 -1 -1 -1 -1 -1 -1 -1 -1 -2 -3 -3 -3
6 5 6 5 6 7 7 8 7 6 5 5 4 4 3 3 2 2 2 2 1 1 1 1 1 1 -0 -1 -2 -3 -3 -2 -2 -2 -2 -2 -2 -2 -2 -3 -3 -4 -3
9 9 9 9 9 8 7 6 5 4 4 3 2 2 2 2 2 1 1 1 1 1 1 1 1 1 0 -1 -2 -3 -3 -2 -2 -2 -3 -2 -2 -2 -3 -4 -4 -4 -4
7 8 7 7 7 5 4 3 3 3 2 2 2 1 1 1 1 1 1 1 0 1 1 0 0 0 -1 -1 -2 -2 -2 -2 -2 -3 -3 -3 -3 -3 -4 -4 -4 -4 -4
7 7 6 6 4 3 3 2 2 2 2 2 1 1 1 1 0 -0 -0 0 0 0 -0 -0 -1 -1 -1 -2 -2 -3 -3 -3 -3 -3 -4 -4 -4 -4 -4 -4 -4 -4 -5
6 5 4 3 2 2 2 2 3 2 2 1 1 1 1 1 0 -0 -1 -1 -1 -2 -2 -2 -3 -3 -3 -3 -4 -4 -4 -4 -4 -4 -5 -4 -4 -4 -4 -5 -5 -5 -6
4 3 2 2 2 2 2 2 2 2 2 1 1 1 0 -0 -0 -1 -1 -1 -2 -3 -4 -5 -5 -5 -4 -4 -5 -5 -4 -4 -5 -5 -5 -4 -5 -5 -5 -6 -6 -6 -7

GFSMW_925_temp_018.txt.gz
Temp
23 25 26 26 26 26 27 27 26 25 23 20 19 19 20 20 19 18 18 18 17 16 15 15 15 14 14 13 13 12 12 12 12 13 13 13 13 13 13 13 12 12 11
21 22 24 25 25 25 26 26 26 24 24 21 20 19 18 18 18 17 16 16 16 15 15 15 14 14 14 13 13 12 12 11 11 10 11 9 11 12 13 13 12 11 11
20 21 21 24 24 24 24 25 25 24 23 23 21 18 17 16 15 15 15 14 15 15 15 14 14 14 13 12 12 12 11 11 10 10 10 7 8 8 12 12 11 11 10
20 20 21 21 23 23 24 24 24 24 24 22 19 17 16 14 13 13 13 13 14 14 14 14 13 13 13 12 11 11 11 10 10 9 9 9 9 6 5 10 11 10 9
20 20 19 21 23 23 23 24 24 24 23 20 18 16 14 14 13 12 12 12 13 14 13 13 12 12 12 11 11 10 10 9 9 9 8 8 9 9 6 4 6 8 8
20 21 22 23 22 23 23 22 23 23 22 19 17 16 15 14 11 11 10 11 12 12 12 12 11 11 11 11 10 9 9 8 8 8 7 7 7 6 6 3 4 4 6
20 19 18 17 20 22 22 23 22 22 21 19 17 16 15 14 11 10 10 11 11 11 11 11 10 10 10 10 9 8 8 7 7 7 7 6 6 6 6 5 3 2 4
18 20 19 17 18 20 22 21 21 20 20 19 18 16 16 12 11 10 10 11 11 11 10 10 10 9 10 9 8 8 7 7 6 6 6 5 5 5 5 4 3 2 2
19 20 19 18 18 19 21 21 20 20 20 18 17 16 14 12 11 10 10 10 10 10 10 10 9 9 9 8 8 7 7 6 6 6 5 5 5 5 4 4 3 2 1
18 18 17 17 18 19 20 20 19 19 18 17 16 14 12 12 11 10 11 11 11 10 9 9 8 8 8 7 7 7 6 6 6 6 5 4 4 4 3 3 2 2 2
17 16 16 16 17 18 20 19 19 19 17 15 13 12 12 11 11 11 11 11 10 10 9 8 8 8 7 7 6 6 6 5 5 5 4 4 3 3 2 2 2 2 1
17 17 16 16 16 17 19 19 19 16 13 13 12 11 11 11 11 10 10 10 9 9 8 8 7 7 7 6 6 6 5 5 5 4 4 3 3 2 2 1 1 1 1
17 16 15 15 15 16 19 18 17 13 12 12 11 10 10 10 10 9 10 9 8 8 7 7 7 6 6 5 5 5 4 4 4 4 3 3 2 2 1 1 0 -1 -1
15 15 14 14 15 15 15 14 11 11 10 10 10 10 10 9 9 9 8 8 8 7 7 6 6 5 5 4 4 3 3 3 3 3 3 2 2 1 1 -0 -0 -1 -1
13 14 14 14 13 11 10 10 9 9 9 9 9 9 9 8 8 7 7 7 6 6 6 5 5 4 4 3 3 3 2 2 2 2 2 2 1 1 0 0 -0 -0 -1
12 13 14 13 12 10 10 9 9 8 8 9 8 7 7 6 6 6 6 6 5 5 5 4 4 3 3 3 2 0 1 0 0 1 1 1 0 -0 0 -0 -0 -0 -1
12 12 13 10 9 9 8 8 8 8 7 6 5 5 4 3 3 5 5 4 4 4 4 3 3 2 2 2 1 -1 -1 -0 -0 0 0 0 -0 -0 -1 -1 -1 -1 -2
12 12 10 8 7 7 6 5 5 4 3 3 2 2 2 1 3 4 4 4 4 3 3 3 2 2 1 1 0 -1 -1 -1 -1 -0 -0 -0 -0 -0 -1 -1 -1 -2 -3
9 8 7 6 6 5 4 4 4 3 2 2 1 1 2 2 3 3 3 3 3 3 2 2 2 1 1 -0 -1 -2 -2 -2 -1 -1 -1 -1 -1 -1 -1 -1 -2 -3 -3
7 6 6 4 3 3 3 3 2 2 1 1 1 2 2 3 3 3 3 3 2 2 2 1 1 1 0 -0 -1 -2 -3 -3 -2 -2 -2 -2 -2 -2 -1 -1 -2 -3 -4
5 5 4 3 3 2 2 2 1 1 1 1 2 3 3 3 3 2 2 2 2 2 1 1 1 1 0 -0 -1 -2 -3 -3 -2 -2 -2 -3 -3 -2 -2 -2 -3 -4 -3
4 4 4 3 3 2 2 4 4 4 3 3 3 3 2 2 2 2 2 1 1 1 1 1 1 0 0 -1 -1 -1 -2 -2 -2 -3 -3 -3 -3 -3 -3 -3 -4 -3 -3
7 7 5 4 4 4 4 2 2 2 2 2 1 2 2 2 2 1 1 1 1 0 0 0 -0 -1 -1 -1 -2 -2 -3 -3 -3 -3 -3 -3 -3 -4 -4 -4 -4 -4 -5
5 4 4 3 3 3 2 2 2 2 2 1 1 1 1 1 1 1 0 0 -0 -0 -1 -1 -2 -2 -3 -3 -3 -4 -4 -4 -4 -4 -4 -4 -5 -4 -4 -5 -5 -5 -6
4 3 2 2 2 2 2 2 2 2 1 1 1 1 1 0 0 -0 -1 -1 -1 -1 -2 -3 -4 -4 -4 -4 -4 -4 -4 -4 -4 -3 -5 -5 -5 -6 -6 -6 -6 -6 -7
2 2 2 2 2 2 2 2 2 2 1 1 1 0 0 -0 -0 -1 -1 -1 -1 -2 -2 -3 -4 -5 -5 -5 -5 -5 -4 -4 -4 -5 -5 -6 -6 -6 -7 -7 -7 -7 -7

GFSMW_925_temp_021.txt.gz
Temp
19 22 24 24 25 26 26 26 24 22 22 20 19 20 20 20 19 21 20 19 19 19 17 16 16 15 16 15 14 13 13 13 13 13 13 13 13 13 13 12 12 11 11
18 19 23 23 24 24 25 25 25 22 21 21 19 19 19 19 20 20 20 18 19 18 17 16 16 15 15 14 14 13 12 11 12 12 10 8 11 12 12 12 12 11 11
17 17 18 22 24 23 24 25 24 23 21 20 18 19 17 17 17 18 19 18 17 16 16 16 15 15 15 14 13 13 13 11 10 11 10 8 8 7 11 11 10 10 9
18 19 18 18 22 23 23 24 24 24 21 20 18 19 17 15 16 17 17 17 16 15 15 15 15 14 14 14 13 12 12 11 10 10 10 9 9 6 6 9 10 9 9
16 16 16 19 22 23 23 23 23 24 22 20 20 19 16 16 16 14 15 15 14 14 15 14 14 13 13 13 13 12 11 11 10 9 9 8 8 8 5 4 6 8 8
17 18 19 19 19 21 20 22 23 22 23 20 19 18 16 15 13 12 13 13 13 13 14 14 13 13 12 13 12 11 10 10 9 8 8 8 7 6 5 2 2 3 5
17 17 18 17 18 19 20 20 20 22 20 19 18 16 17 15 14 12 11 11 12 12 13 13 13 12 12 11 11 10 10 9 8 8 7 7 6 6 5 4 3 1 4
16 16 17 16 17 18 19 19 19 20 19 17 17 16 15 15 13 12 11 11 11 11 12 12 11 11 11 10 10 9 9 8 8 7 6 6 6 5 5 4 3 -0 1
15 15 16 16 17 18 19 18 18 19 20 16 16 15 14 15 12 12 12 11 11 11 11 11 10 10 10 9 9 8 8 7 7 6 6 5 5 4 4 3 3 1 -1
15 14 14 15 17 17 18 18 19 17 19 18 16 14 14 13 12 11 10 10 10 10 11 10 10 9 9 8 8 7 7 7 6 6 5 5 4 4 3 3 2 2 1
15 14 14 15 16 17 18 17 18 17 17 16 13 13 12 11 12 11 10 9 9 10 10 9 8 8 8 7 7 7 6 6 6 5 5 4 4 3 3 2 2 1 1
14 13 13 14 15 16 17 17 16 16 16 14 13 12 11 11 10 10 9 9 9 9 9 8 8 8 7 7 7 6 6 5 5 4 4 4 3 3 2 1 1 0 0
14 12 12 12 13 15 15 15 15 15 14 12 11 10 10 10 10 10 9 9 9 8 7 8 7 7 6 6 6 5 5 4 4 4 3 3 2 2 2 1 0 -0 -0
12 12 11 12 12 12 12 13 12 11 11 10 10 10 10 9 9 8 8 8 8 8 8 7 7 7 6 5 5 4 4 3 3 2 2 2 2 1 1 0 0 -0 -1
11 11 11 10 9 8 8 8 8 8 9 9 9 8 8 7 7 7 7 8 8 7 7 6 6 5 5 4 4 3 3 2 2 2 1 1 1 1 0 0 0 -0 -1
11 11 11 10 8 8 6 6 6 7 6 7 7 6 6 6 5 5 4 4 5 6 6 5 5 4 4 3 2 2 1 1 1 0 0 0 0 0 -0 -0 -0 -0 -1
12 11 10 7 7 6 5 4 5 5 6 6 5 4 4 3 3 4 4 4 4 5 4 4 4 3 3 2 1 0 0 0 -0 -1 -1 -0 -0 -0 -1 -1 -1 -1 -1
11 9 7 7 5 4 3 3 3 3 3 3 2 2 2 2 3 3 2 2 2 2 2 3 2 2 1 1 -0 -1 -1 -1 -1 -1 -1 -2 -1 -1 -1 -1 -1 -2 -2
7 6 6 5 4 4 3 2 2 2 2 2 2 2 2 2 1 0 0 1 1 2 2 2 1 1 0 -0 -1 -1 -1 -2 -2 -2 -2 -2 -2 -2 -2 -1 -1 -2 -3
5 4 4 3 3 3 3 3 2 2 1 1 0 1 0 -0 0 1 1 2 2 2 2 1 1 1 0 -0 -1 -1 -2 -2 -2 -2 -2 -3 -3 -2 -2 -2 -2 -3 -3
4 4 3 3 2 2 2 1 1 0 -0 1 1 1 1 1 1 2 2 2 2 1 1 1 1 0 0 -0 -1 -1 -2 -2 -3 -3 -3 -3 -3 -2 -2 -2 -3 -3 -3
3 3 3 2 1 2 2 1 0 0 0 -0 -1 0 2 2 2 2 1 1 1 1 1 1 0 -0 -1 -1 -1 -1 -2 -2 -3 -4 -4 -4 -3 -3 -3 -3 -4 -3 -4
4 3 2 1 0 1 1 1 1 1 1 2 2 2 2 2 2 1 1 1 1 0 -0 -1 -1 -1 -2 -2 -3 -3 -3 -4 -4 -4 -4 -4 -4 -5 -5 -5 -4 -5 -6
3 3 2 2 2 2 2 2 2 2 2 1 1 1 1 1 0 1 1 0 -0 -1 -1 -2 -3 -3 -4 -4 -4 -4 -4 -4 -4 -4 -4 -5 -5 -6 -6 -6 -6 -6 -7
3 3 2 2 2 2 2 2 2 2 2 1 1 1 1 1 0 -0 -0 -1 -1 -1 -2 -3 -4 -4 -5 -5 -4 -4 -4 -4 -4 -4 -5 -6 -6 -7 -7 -7 -7 -7 -7
2 2 2 2 2 2 2 2 2 2 1 0 0 0 -0 -0 -1 -1 -1 -2 -2 -2 -3 -3 -4 -4 -4 -4 -4 -4 -4 -4 -4 -5 -6 -7 -7 -7 -8 -8 -8 -8 -8

GFSMW_925_temp_024.txt.gz
Temp
18 19 21 22 22 23 24 23 23 23 20 21 20 19 20 21 20 19 20 21 20 19 18 17 17 16 16 16 15 14 14 13 13 13 12 12 12 12 12 12 12 11 11
16 17 20 22 22 23 24 24 22 23 21 20 21 20 19 20 20 19 20 20 20 19 18 18 17 16 16 15 15 15 13 12 12 12 10 8 11 12 11 11 11 10 10
18 17 16 20 21 22 23 23 22 22 22 20 20 22 18 18 18 18 19 20 20 19 18 18 17 16 15 15 15 14 14 12 11 11 11 6 8 7 10 10 10 10 9
15 17 16 17 20 22 23 23 23 22 20 20 18 19 19 17 17 18 18 19 18 18 18 17 17 16 15 15 15 14 14 13 11 10 10 10 9 6 7 9 9 9 9
14 14 14 17 20 21 21 21 21 22 21 19 18 19 19 18 18 17 16 16 16 17 17 16 16 15 15 14 14 14 13 13 12 11 9 9 8 8 5 5 6 8 8
15 14 16 18 18 19 19 20 20 20 20 19 18 19 18 17 16 14 14 14 14 15 15 15 15 14 14 14 13 12 12 12 11 10 10 9 7 6 5 2 2 3 5
15 15 15 15 17 18 19 19 19 19 19 18 17 18 17 18 17 16 13 13 12 13 13 14 14 13 13 12 12 11 11 11 10 9 8 8 7 7 6 4 3 1 3
13 13 13 14 16 18 20 20 20 20 20 17 17 17 17 16 16 15 13 13 12 12 12 12 13 12 12 11 11 10 10 9 9 8 7 7 6 6 5 4 3 -0 -0
12 12 12 14 15 17 18 18 19 19 19 18 16 16 15 15 14 14 13 12 11 11 11 12 12 11 10 10 10 10 9 8 8 7 7 6 5 5 4 4 3 2 -1
13 12 12 13 15 16 17 18 17 17 19 17 16 15 14 14 13 13 12 11 11 10 11 11 11 10 9 9 9 8 8 8 7 6 6 5 5 4 4 3 2 2 1
12 12 12 13 14 16 17 18 18 17 18 16 14 14 12 12 12 11 11 11 10 10 10 10 9 9 8 8 8 8 7 7 6 6 5 5 4 4 3 3 2 1 1
13 12 13 12 12 14 15 15 15 16 17 15 14 12 11 11 10 10 10 10 10 9 9 9 9 8 8 7 6 6 6 6 5 5 4 4 4 3 2 2 1 1 1
13 12 12 11 11 11 12 13 14 15 14 13 11 10 10 9 9 9 9 9 8 8 9 9 8 7 6 6 6 6 5 5 4 4 4 3 3 2 2 1 1 0 0
11 12 11 11 10 9 9 9 10 11 10 10 10 9 8 8 9 8 8 8 7 7 7 7 6 5 4 5 5 5 4 4 3 3 2 2 2 1 1 0 0 -0 -1
11 10 10 10 8 7 7 7 8 8 8 8 8 8 8 8 8 7 6 6 5 5 5 3 3 3 4 4 4 4 3 3 3 2 1 1 1 0 0 0 0 -0 -1
12 12 10 9 6 6 6 6 6 7 7 7 6 6 6 5 4 4 4 4 3 3 3 4 3 3 3 3 3 3 2 2 1 1 0 0 -0 -0 -1 -0 -0 -0 -1
10 11 8 5 5 5 4 3 3 4 4 3 4 3 3 2 2 2 3 3 3 3 3 2 3 2 2 1 1 1 1 0 -0 -1 -1 -1 -1 -1 -1 -1 -1 -1 -1
7 6 6 5 3 2 2 1 1 1 2 1 1 1 1 2 3 3 2 2 2 1 1 1 1 0 -0 -0 -0 0 -0 -1 -1 -2 -2 -2 -2 -2 -2 -2 -2 -2 -2
5 4 4 4 2 2 1 1 1 0 1 1 1 2 3 2 2 0 1 -0 0 0 0 -0 -0 0 0 0 -0 -1 -1 -1 -2 -2 -2 -3 -3 -3 -2 -2 -2 -3 -3
4 4 3 3 3 2 2 2 2 1 1 1 0 0 1 0 0 1 1 0 1 -0 0 1 1 1 0 -1 -1 -1 -2 -2 -2 -3 -3 -3 -3 -3 -2 -2 -2 -3 -3
4 3 3 2 2 2 1 1 0 -0 -0 0 1 0 1 1 1 0 0 0 1 1 1 1 0 0 -0 -1 -1 -1 -1 -2 -3 -3 -4 -4 -4 -3 -3 -3 -3 -4 -3
3 2 1 1 1 1 1 1 -0 -0 0 1 1 1 1 1 1 2 1 1 1 1 0 -0 -1 -1 -1 -2 -2 -2 -2 -2 -3 -4 -4 -4 -4 -3 -4 -4 -4 -4 -4
3 2 1 0 1 1 0 -0 -0 0 1 1 1 1 1 2 2 2 1 1 0 0 -1 -1 -2 -2 -2 -3 -3 -3 -4 -4 -4 -4 -4 -4 -4 -5 -6 -6 -5 -5 -6
2 2 1 1 1 1 1 1 1 1 1 1 1 2 2 1 1 1 0 0 -0 -1 -2 -2 -3 -3 -3 -4 -4 -4 -4 -4 -4 -4 -5 -5 -6 -6 -6 -7 -6 -7 -7
3 2 2 1 1 2 1 1 2 2 2 2 1 0 0 -0 -0 -0 -1 -1 -1 -1 -2 -3 -3 -4 -4 -4 -4 -4 -4 -4 -4 -5 -5 -6 -7 -7 -7 -7 -7 -8 -8
2 2 2 2 1 1 1 2 3 3 2 1 0 -0 -0 -1 -1 -1 -2 -2 -3 -3 -3 -3 -4 -4 -4 -4 -4 -4 -4 -4 -4 -6 -7 -7 -8 -8 -8 -9 -9 -8 -8

GFSMW_925_temp_027.txt.gz
Temp
17 18 20 21 21 21 21 21 22 22 20 18 17 17 17 18 18 19 20 19 19 18 18 17 17 17 16 16 16 15 14 13 13 12 12 11 11 11 11 11 11 10 10
15 15 19 20 20 21 22 21 20 22 20 18 18 18 19 18 19 19 20 19 19 19 18 18 18 17 16 15 15 15 13 13 12 12 10 8 10 11 10 10 10 10 10
17 17 14 18 20 20 21 22 23 21 20 20 18 17 18 18 17 17 18 18 19 19 19 18 18 18 17 16 16 15 15 13 11 12 11 6 7 7 9 9 9 9 9
14 14 15 15 18 20 21 21 21 21 21 20 17 18 19 17 18 19 18 18 18 17 19 19 18 17 16 16 16 15 15 14 12 10 11 11 10 6 7 8 8 8 8
12 12 12 15 18 19 20 20 21 20 20 19 18 19 18 19 19 18 18 17 17 16 18 18 17 17 16 16 15 15 13 14 13 12 10 9 8 8 6 6 6 7 8
11 12 14 15 17 19 19 20 20 21 20 20 18 18 17 18 17 16 15 16 16 16 16 16 16 16 16 15 14 14 13 13 13 12 11 11 8 6 6 3 3 3 7
11 12 12 12 15 16 19 19 20 20 20 19 17 17 18 17 18 17 15 13 14 14 15 15 14 14 15 14 13 13 12 12 12 11 10 10 9 8 7 5 3 2 3
11 11 11 12 13 15 15 17 19 20 19 19 19 18 18 17 17 17 16 14 14 15 15 13 13 13 13 13 12 11 12 11 10 10 9 9 8 7 7 6 4 0 -0
11 11 11 13 14 15 15 15 16 17 19 18 17 17 17 16 16 16 15 15 14 13 14 12 12 12 12 11 11 10 10 9 9 9 8 7 7 6 5 5 4 3 -0
11 11 11 12 15 16 17 15 14 15 17 17 17 16 17 16 16 14 13 12 12 12 11 11 11 11 11 10 10 9 8 8 8 7 7 7 6 5 4 4 3 2 1
13 13 10 12 12 13 14 13 14 14 15 16 16 15 15 14 14 13 12 11 11 11 11 10 10 10 10 9 8 8 7 7 6 6 6 6 5 4 4 3 2 2 1
13 13 10 11 11 11 11 13 13 13 14 15 15 13 13 12 11 10 11 11 10 10 10 9 8 8 8 7 7 5 5 5 5 5 4 5 4 3 3 2 2 1 1
13 10 9 9 10 10 10 10 11 11 12 13 13 11 11 10 10 9 9 9 9 8 7 7 6 6 6 6 5 5 4 4 4 4 4 4 3 3 2 2 1 1 0
10 11 9 9 11 10 9 11 10 10 10 10 9 9 8 8 8 8 7 7 6 6 6 5 5 6 5 4 3 2 4 3 4 4 3 3 2 2 1 1 0 0 -0
9 10 11 10 9 7 6 7 7 7 8 8 8 7 7 7 7 7 6 5 5 4 4 5 5 4 3 3 2 3 3 3 3 2 2 1 1 0 -0 0 0 -0 -1
8 9 10 8 5 5 4 4 5 6 6 6 5 5 5 5 5 4 4 3 3 3 5 4 4 3 2 1 1 1 2 2 1 1 1 -0 -0 -0 -0 -1 -1 -1 -1
7 7 5 4 4 4 3 2 2 3 4 3 3 3 2 2 1 1 2 3 3 3 2 1 1 0 -0 -0 1 1 1 1 0 -0 -1 -1 -1 -2 -2 -2 -2 -2 -2
5 5 5 4 3 2 2 2 2 1 1 1 1 1 1 1 2 2 1 1 1 1 1 1 -0 -0 -0 -1 -1 -0 -0 -1 -1 -2 -2 -2 -3 -3 -2 -2 -2 -2 -2
5 4 3 3 2 2 1 1 0 1 1 1 1 1 1 1 0 -0 -0 -1 -0 -0 -1 0 -0 -1 -1 -2 -2 -1 -1 -1 -2 -2 -3 -3 -3 -3 -2 -2 -2 -3 -3
4 3 3 2 2 2 1 1 -0 -0 -0 -0 -0 -0 -0 -0 -0 -1 -1 0 0 -0 -0 -1 -1 -2 -2 -1 -1 -1 -1 -2 -2 -3 -3 -3 -4 -3 -2 -2 -3 -4 -4
3 3 2 2 2 1 1 -0 -0 -1 -0 0 0 0 0 1 1 0 0 0 -0 -0 -0 -1 -1 -0 -0 -1 -1 -1 -2 -2 -3 -3 -4 -4 -4 -3 -3 -3 -4 -4 -4
3 2 1 1 1 1 1 -0 -0 -0 0 0 1 1 1 -0 0 0 0 0 0 0 -0 -1 -1 -1 -1 -2 -2 -2 -2 -3 -4 -4 -4 -4 -4 -3 -4 -5 -5 -4 -4
2 2 1 1 1 1 1 -0 -1 0 -0 0 0 0 1 1 1 1 1 0 0 -0 -1 -1 -2 -2 -2 -2 -3 -4 -4 -4 -4 -4 -4 -4 -4 -5 -6 -6 -5 -6 -6
1 1 2 1 1 1 1 1 1 1 1 1 1 1 1 0 1 1 0 -0 -1 -1 -2 -2 -3 -3 -4 -4 -4 -4 -4 -4 -4 -4 -5 -6 -6 -6 -7 -7 -6 -7 -7
2 2 1 1 1 1 1 1 2 2 1 1 0 0 0 -0 -1 -1 -1 -1 -1 -1 -2 -3 -4 -4 -4 -4 -3 -4 -4 -4 -4 -5 -5 -6 -7 -8 -7 -7 -8 -8 -8
2 2 2 1 1 2 2 2 2 2 1 0 -0 -0 -0 -1 -1 -2 -2 -2 -3 -3 -3 -3 -4 -3 -4 -4 -4 -4 -4 -5 -5 -6 -7 -8 -8 -8 -9 -9 -9 -8 -8

GFSMW_925_temp_030.txt.gz
Temp
16 18 19 20 20 20 20 20 21 22 20 17 17 17 16 16 17 18 18 18 18 18 17 17 16 16 15 16 16 14 14 13 12 12 11 11 11 11 11 11 11 10 10
15 15 17 19 19 20 20 21 20 21 20 18 17 17 16 16 18 19 18 18 18 18 17 17 17 16 16 15 15 15 13 13 12 12 10 8 9 10 10 10 10 10 10
14 15 14 16 17 18 19 20 21 20 20 18 18 17 17 16 16 16 17 18 18 18 18 18 18 17 17 17 16 15 15 13 11 12 11 6 7 7 8 9 9 9 9
11 12 12 13 15 16 17 19 20 19 20 18 17 16 16 16 16 18 20 18 17 17 18 18 17 17 17 17 16 16 15 15 13 11 11 11 11 6 6 7 8 8 8
11 11 11 13 15 16 17 16 19 20 20 20 18 17 16 17 18 17 17 17 17 17 17 17 16 17 17 17 17 15 15 15 14 13 9 9 9 9 6 5 6 7 7
10 11 13 14 15 17 17 17 16 18 20 19 19 17 16 16 17 17 16 15 15 16 16 17 16 16 16 16 16 15 14 14 14 13 12 12 9 7 6 4 4 5 7
10 10 10 11 13 15 17 16 16 16 16 17 19 18 17 16 16 18 16 14 14 14 15 15 15 15 15 15 14 14 13 13 13 12 11 11 11 11 9 7 3 3 5
10 10 10 11 13 14 15 15 16 15 16 16 16 16 17 16 16 16 16 16 15 16 16 15 14 14 14 13 13 13 12 11 11 11 10 10 10 10 9 8 5 1 0
11 10 10 12 12 13 14 14 14 15 15 14 15 16 15 16 17 16 15 16 15 14 15 14 13 11 12 12 12 12 11 10 10 8 8 9 8 7 7 7 7 5 1
10 10 11 11 12 12 13 13 13 13 15 15 14 14 15 15 16 15 15 14 14 13 13 12 11 10 9 11 11 10 9 9 8 7 7 7 7 6 5 5 5 4 3
10 11 11 11 11 11 12 12 11 11 13 15 14 14 14 14 14 14 13 13 12 12 11 10 9 9 9 9 9 9 8 7 6 6 6 6 5 5 4 4 3 3 2
12 10 8 9 9 10 11 11 11 12 11 13 14 14 11 12 12 11 11 11 11 10 10 9 8 8 8 8 8 7 6 5 4 5 3 3 4 4 4 3 2 2 1
11 9 8 10 9 10 10 9 10 10 12 10 12 12 9 9 10 10 9 9 9 9 8 7 7 7 6 7 7 6 5 4 3 3 3 2 2 3 3 2 2 1 1
7 7 8 9 9 8 6 6 6 7 9 9 10 8 8 8 8 8 8 8 8 7 6 6 5 5 5 6 5 4 4 2 2 1 1 1 2 2 1 1 1 0 -0
7 7 7 5 5 4 4 4 5 6 7 9 9 8 7 7 7 7 6 6 6 5 5 3 3 4 4 4 4 2 1 1 0 -0 -1 0 0 1 0 0 0 -0 -1
6 6 5 4 4 4 3 3 3 4 5 5 5 5 5 5 5 4 4 4 3 3 3 3 3 3 2 2 1 1 0 -0 -1 -0 -1 0 0 0 -0 -1 -1 -1 -1
5 4 5 4 3 2 2 2 2 2 2 2 2 2 2 2 2 2 2 1 1 1 1 1 2 1 0 -1 1 1 -0 -1 -1 -2 -0 -1 -1 -1 -1 -2 -2 -2 -2
5 4 3 3 2 2 1 1 1 1 1 1 1 2 2 1 1 1 0 0 0 0 1 0 0 0 -1 -1 -1 -1 -2 -2 -1 -2 -2 -2 -2 -2 -3 -2 -2 -2 -2
4 4 3 2 2 1 1 0 0 0 0 1 1 1 0 0 -0 -1 -1 -0 0 -0 -0 -0 -0 -0 -1 -1 -3 -1 -1 -1 -2 -2 -3 -3 -3 -3 -3 -2 -2 -3 -3
3 3 3 2 1 1 0 0 0 -0 -0 -0 -0 0 -0 -0 -0 -0 -0 -0 0 -1 -1 -1 -1 -1 -2 -2 -2 -1 -1 -2 -2 -3 -3 -3 -4 -3 -3 -2 -4 -4 -4
3 2 2 2 1 1 0 -0 -0 -1 -0 -0 -0 -0 -0 -0 -0 -0 -0 -0 -1 -1 -1 -2 -3 -3 -2 -0 -1 -1 -2 -2 -3 -3 -4 -4 -4 -3 -3 -3 -4 -5 -4
2 2 2 1 1 1 1 -0 -1 -1 -0 -0 0 -0 -0 -0 -0 -0 -1 -1 -2 -2 -2 -2 -2 -2 -2 -1 -2 -2 -3 -3 -4 -4 -4 -4 -4 -4 -4 -5 -5 -5 -5
2 2 2 1 1 1 0 -0 -1 -0 -0 -0 -1 -0 -0 0 0 0 -0 -1 -1 -1 -2 -2 -3 -3 -3 -3 -3 -3 -4 -4 -4 -4 -4 -5 -5 -6 -6 -6 -6 -6 -7
2 2 2 1 1 1 1 1 1 1 1 1 0 0 0 -0 -0 -0 -0 -0 -1 -2 -2 -3 -3 -3 -3 -3 -4 -4 -4 -4 -4 -4 -5 -6 -6 -7 -7 -7 -7 -7 -7
2 2 1 1 1 1 1 1 2 2 1 1 0 -0 -0 -0 -1 -1 -1 -1 -2 -2 -2 -3 -3 -3 -4 -4 -3 -4 -4 -4 -5 -5 -6 -7 -7 -7 -7 -7 -7 -7 -7
2 2 1 1 1 1 1 1 2 2 1 0 -1 -1 -1 -1 -1 -2 -2 -2 -3 -3 -3 -3 -4 -4 -4 -4 -4 -4 -5 -5 -5 -6 -7 -8 -8 -8 -9 -9 -8 -8 -8

GFSMW_925_temp_033.txt.gz
Temp
17 17 18 19 19 19 20 20 20 21 18 17 17 16 16 17 16 17 18 18 18 18 17 17 16 16 15 15 15 14 14 13 13 12 10 10 11 11 11 11 11 11 11
15 15 15 16 17 17 18 19 19 20 19 17 17 16 16 16 16 16 17 18 18 18 18 17 17 16 15 15 15 15 13 13 13 12 10 12 10 9 10 10 10 10 10
14 14 13 13 14 16 17 17 19 19 19 18 17 16 16 16 16 15 16 18 18 18 18 17 17 16 16 16 16 15 15 13 12 13 13 11 14 10 8 9 9 9 9
13 13 13 13 14 15 15 16 17 18 19 18 16 16 16 16 16 16 16 16 17 16 17 17 17 16 16 16 17 16 15 15 13 11 12 11 11 13 11 7 8 8 8
11 12 12 13 14 15 15 16 16 17 17 17 16 16 16 16 17 16 16 15 15 15 16 17 17 16 16 16 16 16 14 15 14 13 9 9 9 10 11 11 8 6 7
11 11 12 13 13 15 15 15 15 16 16 16 16 15 15 16 16 15 15 15 15 15 14 15 16 16 16 16 16 15 14 14 14 14 13 12 10 9 9 9 7 9 6
12 12 12 12 12 14 14 15 15 15 16 16 16 16 14 15 15 15 15 14 14 13 14 14 14 15 15 15 14 14 13 13 13 13 13 12 13 12 10 8 6 7 5
12 12 12 11 11 12 13 14 14 14 14 15 16 15 15 14 14 14 15 15 15 16 14 14 13 13 13 13 12 12 12 12 12 12 12 12 11 11 11 10 6 6 5
12 12 12 11 11 12 12 12 12 13 13 14 15 16 15 15 13 14 14 14 14 14 14 14 12 12 11 10 10 10 10 11 11 11 11 10 9 9 8 9 8 7 7
11 11 11 11 10 11 11 11 11 11 11 12 12 13 15 15 15 14 14 14 14 13 13 12 11 10 9 9 9 9 9 9 9 9 9 8 7 6 6 7 6 6 5
12 11 10 9 10 10 10 10 10 10 11 11 12 11 12 14 13 12 12 12 12 12 12 11 10 9 8 7 8 8 8 9 8 7 7 6 5 5 4 4 4 3 3
11 9 8 8 9 8 7 7 8 8 9 10 11 11 10 9 10 10 10 10 11 11 11 10 9 8 7 8 7 6 5 7 6 5 4 3 3 3 2 2 1 1 1
9 8 7 7 6 5 5 5 5 6 7 8 9 10 10 9 9 9 10 9 9 9 9 9 8 7 6 6 5 5 5 5 5 4 3 2 1 0 0 -1 -1 -2 -2
7 7 7 5 4 4 4 4 4 5 6 7 7 7 8 8 9 8 8 8 8 7 6 6 6 5 5 4 5 5 5 4 3 2 2 1 -0 -0 -1 -1 -1 -2 -0
7 6 6 5 4 4 3 3 3 4 4 5 4 4 5 6 7 7 6 6 5 5 5 4 4 4 4 3 3 3 3 2 1 -0 -0 -0 -1 -1 -1 -2 -2 -2 -2
6 5 5 4 4 3 3 2 2 3 4 3 3 4 5 5 5 4 3 4 3 3 2 2 2 2 2 2 3 3 1 1 0 -1 -2 -2 -2 -2 -2 -2 -2 -2 -2
6 5 4 4 3 2 2 2 1 2 2 2 2 2 2 2 2 2 2 1 1 1 1 1 1 1 0 2 2 1 0 -1 -1 -1 -2 -3 -3 -2 -2 -2 -3 -2 -2
5 4 3 3 2 1 1 1 1 1 1 1 1 1 0 0 0 0 0 -0 0 0 0 0 0 -0 -0 -1 -1 -0 -1 -1 -3 -2 -2 -2 -2 -2 -3 -3 -2 -2 -2
4 3 3 2 2 1 0 0 0 0 0 -0 -0 -0 0 -0 -1 -1 -1 -1 -0 -0 -0 -0 -0 -1 -1 -1 -0 -1 -2 -2 -2 -3 -3 -3 -3 -3 -3 -2 -2 -3 -3
3 3 2 2 1 0 -0 -0 -0 -0 -0 -1 -0 -0 0 -1 -1 -1 -1 -1 -0 -1 -0 -1 -1 -2 -3 -3 -1 -1 -1 -2 -3 -3 -3 -3 -3 -3 -3 -2 -4 -4 -4
2 2 2 2 1 1 0 0 -0 -1 -1 -0 -0 0 -0 -0 -0 -0 -0 -0 -1 -1 -2 -2 -2 -3 -2 -2 -2 -2 -2 -2 -3 -3 -4 -4 -4 -3 -3 -3 -4 -5 -4
2 2 2 1 1 1 1 -0 -1 -1 -0 -0 -0 -0 -0 -0 -0 -0 -1 -1 -1 -2 -3 -3 -3 -2 -2 -1 -2 -2 -3 -3 -4 -4 -4 -4 -4 -4 -4 -5 -5 -5 -5
3 2 1 1 1 1 1 0 -0 -0 0 0 -0 -0 -0 0 0 0 -0 -1 -1 -1 -2 -3 -3 -3 -3 -3 -3 -3 -3 -4 -4 -4 -4 -5 -5 -5 -5 -6 -6 -6 -7
2 2 2 1 1 1 1 1 1 1 1 0 -0 -0 0 -0 -0 -1 -1 -1 -1 -2 -2 -3 -3 -3 -3 -3 -4 -4 -4 -4 -4 -5 -5 -6 -6 -6 -7 -7 -7 -7 -8
2 2 2 1 1 1 1 1 1 1 1 0 -0 -0 -1 -1 -1 -1 -1 -1 -2 -2 -2 -3 -3 -4 -4 -4 -4 -4 -4 -4 -5 -6 -6 -7 -7 -8 -8 -8 -8 -8 -8
2 1 2 2 1 2 1 1 2 2 1 0 -1 -1 -1 -1 -2 -2 -2 -2 -3 -3 -3 -3 -4 -4 -4 -4 -4 -5 -5 -5 -5 -6 -7 -8 -9 -9 -9 -9 -9 -8 -8

GFSMW_925_temp_036.txt.gz
Temp
22 20 20 19 19 19 20 20 20 20 21 20 18 17 16 17 16 17 18 18 18 17 17 17 17 17 16 16 15 15 14 13 14 13 13 12 12 12 13 13 12 11 11
21 19 19 18 18 18 19 19 19 19 20 20 20 19 18 17 17 16 16 17 17 17 17 17 17 17 16 16 15 14 13 13 12 15 15 15 13 12 12 12 12 12 11
19 19 19 18 17 17 16 17 18 18 19 19 20 19 18 18 18 16 16 16 17 17 17 16 16 17 16 15 15 13 13 13 12 14 16 16 17 14 11 11 11 11 10
18 18 18 18 17 16 15 15 15 16 17 17 18 19 19 18 18 19 17 16 16 16 16 16 16 15 15 15 14 14 15 14 12 11 12 12 14 15 13 11 10 10 10
17 17 17 16 16 15 14 15 15 15 16 17 17 18 19 19 19 19 18 17 15 15 15 15 15 14 14 15 14 14 13 14 14 12 10 10 10 11 15 15 11 9 9
17 17 16 16 16 15 15 15 15 16 15 15 16 17 18 19 19 19 18 17 16 15 15 15 14 14 14 14 15 14 13 13 14 12 13 11 11 11 12 14 13 11 10
17 17 17 16 15 15 15 15 15 16 16 15 15 16 16 18 18 18 18 17 17 15 14 14 14 14 14 13 13 13 13 11 11 11 12 12 12 13 12 13 11 11 8
17 16 16 15 15 14 14 14 14 14 14 14 15 15 15 15 16 16 16 17 18 17 14 14 14 14 14 13 12 11 10 10 10 10 11 12 12 12 11 11 8 7 8
16 16 15 14 14 13 13 13 13 13 13 13 13 14 14 14 15 15 15 14 16 16 16 14 14 13 13 13 12 11 10 9 9 9 9 12 11 10 10 9 9 9 7
16 15 14 13 13 12 12 12 12 12 12 12 12 12 13 13 13 14 14 12 14 15 13 14 13 12 12 11 10 9 9 9 8 7 8 9 8 7 7 8 7 6 6
15 14 13 12 12 11 11 11 10 10 10 10 11 12 12 12 11 10 10 11 11 11 12 12 12 11 10 9 9 8 8 7 6 6 7 6 5 5 5 5 5 5 4
13 12 11 11 10 9 9 9 8 8 8 9 10 11 11 11 10 9 10 9 10 10 10 11 10 9 9 8 7 7 7 6 5 5 4 3 4 3 3 2 1 0 -0
12 12 11 10 7 6 6 7 7 7 7 8 9 10 10 10 10 9 9 9 9 8 9 8 7 7 7 6 6 5 5 4 4 3 3 2 2 1 1 1 0 -0 -0
11 10 10 9 7 6 6 6 6 6 6 7 7 7 8 8 8 8 7 7 7 7 6 6 6 5 5 5 4 4 3 2 2 2 3 2 1 1 0 0 -0 -1 -2
10 9 9 8 6 5 5 5 5 5 4 5 5 5 6 6 6 5 5 4 4 4 4 4 4 3 3 2 2 2 2 2 2 1 1 1 1 0 -0 -1 -2 -2 -3
9 8 8 6 5 4 4 3 3 3 4 4 3 4 4 4 3 3 3 2 2 2 4 4 2 2 2 1 2 2 2 2 1 0 -0 -1 -1 -1 -2 -2 -2 -2 -2
8 7 7 5 4 3 2 2 2 3 3 2 2 2 2 2 1 1 1 2 2 2 1 1 1 1 1 1 1 2 1 1 -0 -0 -1 -2 -2 -3 -3 -3 -3 -3 -2
7 7 5 4 3 2 1 1 1 1 1 1 1 1 1 0 -0 0 0 0 0 0 0 0 1 0 0 -0 -0 0 -0 -1 -2 -2 -2 -3 -4 -3 -3 -3 -3 -3 -2
7 5 3 3 2 1 1 1 1 0 0 0 0 0 -0 -1 -0 -0 -1 -1 -0 -0 -0 -0 -1 -1 -2 -1 -1 -1 -2 -3 -2 -4 -4 -3 -3 -3 -3 -2 -2 -2 -2
6 4 3 2 1 1 1 0 0 0 -0 -1 -1 -1 -1 -1 -1 -1 -1 -1 -1 -1 -1 -2 -2 -2 -3 -3 -2 -2 -2 -3 -2 -3 -3 -3 -3 -3 -2 -2 -2 -2 -2
5 4 3 3 2 1 1 0 -0 -1 -0 -0 -1 -0 -0 -0 -0 -1 -1 -1 -1 -1 -2 -2 -3 -2 -2 -2 -2 -2 -1 -1 -2 -2 -2 -3 -3 -3 -3 -3 -3 -3 -3
5 4 4 3 2 1 1 0 -0 -0 -0 0 0 -0 -1 -1 -1 -0 -1 -1 -1 -1 -1 -1 -2 -2 -1 -1 -2 -2 -3 -3 -2 -2 -3 -3 -4 -4 -4 -4 -4 -4 -4
5 4 4 3 2 1 2 1 -0 0 0 0 -0 0 0 -0 0 1 0 0 0 0 -0 -1 -1 -2 -3 -3 -3 -3 -3 -3 -3 -3 -4 -4 -5 -5 -5 -6 -6 -6 -5
5 4 4 4 3 2 2 2 1 1 1 1 1 1 1 0 -0 -0 -0 0 0 -0 -0 -1 -1 -2 -3 -3 -3 -3 -3 -4 -4 -4 -4 -5 -5 -6 -6 -6 -6 -6 -5
4 4 4 4 4 3 2 2 1 1 1 1 0 -0 -0 0 -0 -1 -1 -1 -2 -1 -1 -2 -2 -2 -2 -3 -3 -3 -3 -3 -4 -5 -5 -5 -5 -5 -5 -6 -6 -6 -6
3 3 4 3 3 3 2 1 1 1 1 1 0 0 -0 -1 -1 -1 -1 -3 -3 -3 -3 -3 -3 -3 -4 -4 -4 -4 -5 -5 -5 -5 -5 -5 -5 -6 -6 -6 -6 -6 -6

GFSMW_925_temp_039.txt.gz
Temp
26 24 22 22 22 22 22 23 23 23 23 23 23 19 18 18 17 17 19 21 20 20 19 19 19 19 19 18 17 17 17 16 17 16 15 14 14 14 14 14 14 13 12
24 23 21 20 20 21 21 21 22 22 22 22 23 22 19 18 17 17 17 18 20 20 19 19 19 19 19 18 17 17 16 15 15 15 15 15 14 13 13 14 14 13 12
22 21 21 20 19 18 18 18 19 20 21 21 21 22 22 20 18 17 17 16 17 19 19 18 18 18 18 18 17 17 16 15 14 15 16 16 16 14 13 13 13 13 12
20 20 20 19 19 18 17 17 17 18 18 19 20 20 21 21 20 20 19 18 17 17 18 18 18 18 17 18 17 16 15 15 13 13 15 16 15 15 12 12 12 12 12
19 19 19 18 19 18 16 16 17 18 18 17 18 18 19 20 20 20 20 20 19 17 16 17 17 17 17 17 16 16 15 14 14 14 13 13 13 13 14 12 11 11 11
19 19 19 18 18 17 16 16 17 17 18 17 17 18 18 19 20 20 20 20 20 18 17 16 17 17 16 15 15 15 14 13 14 13 13 13 12 11 11 12 11 10 10
19 19 19 18 17 16 16 16 16 16 17 17 17 17 17 18 18 19 20 20 20 19 17 16 15 15 15 15 15 14 14 13 13 14 13 12 13 14 13 14 12 11 10
19 18 17 17 17 16 15 15 15 15 15 15 15 16 16 17 17 18 18 19 19 19 19 17 15 15 15 15 14 14 14 13 12 13 11 11 11 12 12 10 10 8 8
18 18 17 16 15 15 15 14 14 14 14 14 14 15 15 16 16 16 16 17 17 17 18 18 16 15 14 14 14 14 13 12 11 10 10 9 9 9 10 11 12 10 5
18 17 16 15 14 14 13 13 13 13 13 13 13 14 14 14 14 14 15 15 15 15 15 15 15 15 14 13 13 13 12 11 10 10 9 9 8 7 8 8 8 7 6
17 16 15 14 13 12 12 12 12 11 11 11 12 13 13 13 13 12 12 10 10 11 12 13 12 13 12 12 12 11 11 10 9 9 8 7 6 6 5 3 4 5 4
15 15 14 13 12 10 9 10 10 10 10 10 11 12 12 13 13 11 10 10 10 10 10 10 10 10 10 10 9 9 9 8 7 6 5 4 4 4 3 2 1 2 2
15 14 13 12 11 8 8 8 9 9 8 9 9 10 10 11 11 10 10 10 9 9 8 8 8 8 8 8 7 7 6 6 5 4 3 3 2 1 1 2 2 2 2
14 13 12 12 9 7 7 6 6 7 6 7 7 8 8 8 8 8 8 8 8 8 7 6 6 6 6 6 6 5 4 4 3 2 2 2 2 2 2 2 1 1 -0
13 12 11 10 8 7 5 4 4 5 6 6 6 6 6 6 6 6 5 5 5 5 5 4 3 3 4 3 3 3 2 2 1 1 1 2 2 2 1 1 -0 -0 -1
12 11 10 8 6 5 4 3 3 4 5 5 5 5 5 4 3 3 3 3 2 3 2 2 2 2 1 1 2 2 1 1 1 0 -0 -1 -0 0 -1 -1 -1 -1 -2
11 10 8 6 4 3 2 2 3 3 3 3 3 3 3 2 1 1 1 1 1 1 1 1 1 1 1 1 -0 0 -0 -0 -1 -1 -1 -2 -2 -2 -2 -2 -2 -2 -2
10 9 7 5 4 3 2 1 1 1 2 2 2 2 2 1 0 -0 -0 0 0 1 0 0 0 0 -0 -1 -1 0 -1 -1 -2 -2 -2 -2 -3 -1 -2 -2 -2 -2 -2
9 7 5 4 2 2 2 1 1 0 0 0 0 1 0 -0 -1 -1 -1 -1 -0 -0 -0 -1 -1 -1 -2 -1 -1 -1 -1 -2 -3 -3 -2 -3 -2 -3 -3 -2 -2 -2 -1
8 6 5 3 2 2 1 1 1 0 0 -0 -0 -0 -0 -1 -1 -1 -1 -1 -1 -1 -1 -1 -2 -2 -2 -3 -3 -2 -2 -2 -2 -2 -2 -2 -2 -3 -2 -2 -1 -1 -2
7 5 5 4 3 2 1 1 0 -0 0 0 -0 -0 -1 -1 -0 -1 -1 -1 -1 -1 -1 -1 -1 -1 -2 -2 -2 -1 -1 -1 -1 -1 -2 -2 -3 -3 -3 -3 -3 -3 -3
7 6 6 4 3 2 2 1 0 0 0 0 0 0 0 -0 -0 0 0 -0 0 0 0 0 -0 -1 -1 -1 -2 -2 -2 -2 -2 -2 -2 -2 -4 -4 -4 -4 -4 -4 -4
7 7 6 5 4 3 3 2 1 1 2 1 2 2 2 2 2 2 2 2 2 2 1 0 0 -1 -2 -2 -2 -3 -3 -3 -3 -3 -4 -4 -4 -5 -5 -4 -5 -5 -5
8 7 7 6 4 4 3 3 2 3 3 3 2 2 2 2 1 1 1 2 2 1 1 0 -0 -1 -1 -2 -2 -2 -2 -2 -3 -3 -3 -4 -5 -5 -5 -5 -5 -5 -5
8 7 7 7 5 5 4 4 3 3 3 3 2 2 2 2 1 0 0 0 -1 -1 -0 -1 -1 -1 -1 -2 -3 -4 -4 -4 -4 -5 -4 -4 -4 -4 -4 -4 -5 -5 -5
7 6 6 6 5 5 4 3 3 3 3 2 2 2 1 1 1 1 -1 -2 -2 -2 -2 -2 -3 -3 -3 -3 -4 -4 -4 -5 -5 -5 -4 -4 -4 -4 -5 -5 -5 -5 -5

GFSMW_925_temp_042.txt.gz
Temp
24 24 22 22 22 22 22 22 23 23 23 23 23 22 20 19 19 18 19 20 21 21 20 20 19 20 19 18 18 18 17 17 17 17 16 15 15 15 15 15 15 14 14
23 20 21 20 20 20 20 21 21 22 22 22 23 23 21 20 20 19 18 17 20 20 20 19 19 19 19 18 18 18 17 17 17 16 14 11 13 14 15 14 14 14 14
19 19 20 19 19 18 17 18 18 19 20 20 21 21 22 20 18 18 18 17 17 17 18 19 19 19 19 19 19 18 17 16 16 16 15 11 11 11 13 14 14 14 13
18 18 19 18 18 17 17 16 17 17 18 18 19 19 20 20 20 19 19 18 18 18 18 19 18 18 18 18 18 17 17 16 15 15 16 16 15 11 10 13 13 13 13
18 18 18 18 18 17 16 16 16 17 18 17 17 18 18 19 19 20 20 20 19 18 18 18 19 18 17 18 17 17 16 16 14 14 14 14 14 14 10 8 11 12 13
17 18 18 18 18 17 16 16 16 16 17 17 17 17 17 17 18 18 19 20 20 20 19 18 18 18 17 17 17 16 16 15 14 13 13 15 13 11 10 9 8 10 11
17 17 16 16 17 16 15 15 15 15 16 15 16 16 16 17 17 17 17 18 19 20 19 18 18 17 17 16 16 16 16 15 14 13 12 13 13 13 12 12 9 8 10
16 16 16 16 16 15 15 15 14 14 14 14 14 14 15 16 16 16 16 16 17 18 18 17 17 17 16 16 16 15 15 14 14 13 13 12 12 12 12 12 10 6 5
16 16 15 15 15 14 14 13 13 13 13 13 13 13 14 14 14 14 15 15 15 15 16 16 15 16 16 15 15 15 14 13 13 12 12 12 11 10 11 10 10 9 5
16 14 14 14 14 13 12 12 12 11 11 11 11 12 13 13 13 13 13 13 13 14 14 13 13 14 13 13 14 14 13 13 13 12 11 10 9 9 9 9 8 8 6
14 13 13 13 12 11 10 10 10 10 10 9 10 11 12 12 12 11 10 10 10 10 10 11 11 13 13 12 12 12 12 11 11 10 10 9 9 7 6 6 6 6 7
13 13 13 13 11 9 8 8 8 9 8 8 9 9 10 10 11 10 10 10 9 9 10 10 10 10 10 10 11 10 9 9 9 9 8 7 6 5 4 4 4 4 4
13 13 12 11 9 8 7 6 6 6 6 7 7 8 8 8 8 8 8 8 8 7 7 7 7 7 8 8 8 8 8 7 7 6 6 5 4 3 2 2 3 2 3
13 11 10 9 8 7 6 5 5 5 6 6 6 6 6 6 6 6 6 6 6 6 5 5 5 5 5 5 5 5 5 5 4 4 3 3 3 3 2 2 2 1 1
12 11 9 7 7 5 4 4 4 4 5 5 5 5 5 4 4 4 4 4 4 4 4 4 4 4 4 3 3 3 3 3 2 2 1 1 2 1 1 1 0 0 -0
11 10 8 6 6 4 3 3 3 3 4 4 4 4 3 3 2 2 2 2 2 2 2 2 2 2 1 1 1 1 0 0 0 -0 -0 -0 -0 -0 -0 0 -0 -0 -1
10 8 6 5 4 3 2 2 2 3 3 3 3 2 2 1 1 1 0 1 1 1 1 1 1 1 1 0 -0 1 0 -0 -1 -1 -1 -1 -1 -1 -1 -1 -1 -1 -1
9 7 5 4 3 2 2 1 1 1 2 1 1 1 1 0 -0 -0 -0 0 0 0 0 -0 -0 -0 -0 -1 -0 1 -0 -1 -1 -1 -2 -2 -3 -2 -3 -2 -2 -2 -1
7 5 5 3 2 2 1 1 1 0 0 -0 -0 -0 -0 -1 -1 -0 -0 -0 -0 -1 -1 -1 -2 -1 -1 -2 -1 -0 -1 -2 -2 -3 -3 -2 -2 -2 -2 -2 -2 -2 -2
6 5 4 3 2 2 1 1 0 0 0 0 -0 -1 -0 -0 -0 -1 -1 -1 -1 -2 -2 -2 -3 -2 -2 -2 -1 -1 -1 -1 -2 -2 -2 -2 -2 -2 -2 -2 -2 -2 -2
6 5 4 4 2 2 1 1 0 0 0 0 0 0 -0 -0 -1 -1 -1 -1 -1 -0 -0 -0 -1 -1 -1 -1 -1 -1 -1 -1 -1 -2 -2 -2 -3 -3 -3 -3 -3 -3 -3
6 5 4 3 3 3 2 1 1 1 1 1 1 1 1 1 1 1 1 1 1 0 0 -0 -1 -1 -1 -2 -2 -2 -2 -2 -2 -3 -3 -3 -4 -4 -4 -4 -4 -4 -4
6 6 5 4 3 3 3 2 2 1 1 1 1 2 2 2 2 2 2 2 2 1 1 0 -0 -1 -1 -2 -2 -2 -3 -3 -3 -3 -3 -4 -4 -4 -4 -4 -4 -5 -5
7 7 6 4 3 3 3 3 2 2 2 2 2 2 2 2 2 1 1 1 1 1 0 -0 -0 -1 -1 -2 -2 -3 -3 -3 -3 -4 -4 -4 -4 -4 -4 -5 -5 -5 -5
8 7 6 5 4 4 4 3 3 3 3 3 2 2 2 1 1 1 0 0 -0 -1 -0 -1 -2 -2 -2 -3 -3 -3 -4 -4 -4 -4 -5 -4 -4 -4 -5 -5 -5 -5 -5
8 7 7 6 5 4 4 4 3 3 3 2 2 2 2 1 1 0 -0 -1 -1 -2 -2 -2 -2 -3 -3 -4 -4 -4 -4 -4 -5 -5 -5 -5 -5 -5 -5 -5 -6 -6 -6

GFSMW_925_temp_045.txt.gz
Temp
22 21 21 21 21 22 22 22 22 22 21 20 20 20 19 20 21 21 21 21 21 20 20 20 20 19 19 19 18 18 18 18 18 17 16 16 16 16 16 16 15 15 14
17 18 19 19 19 19 20 20 20 21 21 21 21 20 20 20 20 21 21 21 21 21 20 19 20 19 19 19 18 18 17 17 17 16 13 11 13 15 15 15 15 15 14
18 17 16 18 18 18 18 18 18 19 19 19 19 20 20 19 19 19 19 19 19 19 20 20 19 19 19 19 19 18 17 16 16 16 15 9 10 10 14 15 15 15 14
15 15 16 17 17 17 17 17 17 17 18 18 18 18 18 18 19 18 19 19 20 19 19 19 19 19 18 18 18 18 17 16 14 14 16 16 15 10 11 13 13 14 14
14 15 16 18 17 17 16 16 16 16 17 17 17 17 17 17 17 18 18 18 18 19 19 19 18 19 18 18 17 18 15 15 15 14 14 13 13 13 10 9 10 12 13
14 14 17 17 16 16 16 15 15 15 15 15 16 15 15 16 16 17 17 17 17 17 19 19 19 18 18 17 17 17 16 15 15 14 14 14 13 12 10 8 7 9 11
14 13 13 15 15 15 15 15 14 14 14 14 14 14 14 15 15 15 15 15 16 17 16 17 18 18 18 17 17 17 16 15 14 14 13 13 13 13 12 11 9 8 9
12 13 13 14 14 14 14 13 13 12 12 12 13 13 13 14 14 14 14 14 14 14 14 15 16 17 16 16 16 16 16 15 14 13 12 12 11 12 12 11 10 7 6
13 12 12 13 13 12 12 12 11 11 11 11 11 12 12 13 13 13 13 13 13 13 13 13 14 15 15 15 15 15 15 14 14 14 12 12 11 11 11 10 10 10 9
12 11 11 12 11 10 10 10 10 9 9 10 10 10 11 12 12 12 12 12 11 11 12 12 12 12 13 13 13 13 13 13 13 12 12 11 11 10 9 9 8 8 8
11 10 11 11 9 9 9 8 8 8 8 8 9 9 10 10 10 11 10 10 9 9 10 10 10 10 10 11 12 12 12 12 11 11 11 10 10 9 8 7 7 6 6
11 11 11 9 8 8 7 7 6 6 7 7 7 8 8 9 9 10 9 9 9 8 8 9 9 10 9 9 10 10 10 9 9 9 9 9 9 8 6 5 5 4 5
11 10 9 7 7 7 6 6 5 5 6 6 6 6 7 7 7 7 7 7 7 7 7 7 7 7 8 8 8 8 8 8 7 6 5 5 4 4 4 4 3 3 3
11 9 7 6 6 5 5 5 5 5 5 5 5 5 5 5 5 5 5 5 5 6 5 5 6 6 6 6 5 5 5 4 4 4 4 3 3 2 2 2 2 2 2
10 9 7 5 4 4 4 4 4 4 4 4 4 4 4 3 3 3 3 3 3 3 3 4 4 3 3 2 3 2 2 2 2 2 1 1 1 1 1 1 1 1 1
10 8 6 5 4 4 3 3 3 3 3 3 3 3 3 2 2 2 1 1 2 2 2 2 1 1 1 1 2 2 2 1 1 0 0 0 0 0 0 -0 -0 -0 -1
9 7 5 4 4 3 2 2 2 3 3 2 2 2 1 1 1 1 1 1 0 1 1 1 1 1 0 0 1 1 0 -0 -1 -1 -1 -1 -1 -1 -1 -1 -1 -1 -1
7 5 3 3 3 2 2 1 1 2 1 1 1 1 1 0 0 0 0 -0 -0 -0 -0 -0 -0 -0 -0 -1 -0 0 0 -0 -1 -1 -1 -1 -2 -2 -1 -2 -2 -2 -1
6 4 4 3 2 2 1 1 1 1 0 0 -0 -0 -0 -0 -0 -0 -1 -1 -1 -2 -2 -2 -1 -1 -1 -1 -1 -0 -1 -1 -1 -2 -2 -2 -2 -2 -2 -2 -2 -2 -2
4 3 3 2 2 2 1 1 1 0 0 -0 -0 -0 -0 -0 -0 -1 -2 -2 -2 -2 -2 -2 -2 -1 -1 -1 -1 -1 -1 -2 -2 -2 -2 -2 -2 -2 -2 -2 -3 -3 -3
4 3 3 2 2 2 1 1 1 0 0 0 0 0 -0 -0 -1 -2 -1 0 -0 -1 -1 -1 -1 -1 -1 -1 -1 -2 -2 -2 -2 -2 -3 -3 -3 -3 -3 -3 -4 -4 -3
4 4 3 3 2 2 2 1 1 1 1 1 1 1 1 1 0 1 0 0 0 -0 -1 -1 -1 -1 -1 -2 -2 -2 -2 -3 -3 -3 -3 -3 -4 -4 -4 -4 -4 -4 -4
5 4 3 3 3 3 2 2 1 1 1 1 1 1 1 1 1 1 1 1 0 1 0 -0 -1 -1 -2 -2 -2 -2 -2 -3 -3 -3 -4 -4 -4 -4 -4 -5 -4 -5 -5
5 5 4 3 3 3 3 2 2 1 1 1 1 2 2 1 1 1 1 1 1 0 -0 -1 -1 -1 -2 -2 -3 -3 -3 -3 -4 -4 -4 -4 -4 -4 -4 -5 -5 -5 -5
6 5 5 4 3 3 3 3 2 2 2 2 2 2 2 1 1 1 1 1 0 -0 -0 -1 -1 -2 -2 -3 -3 -3 -4 -4 -4 -4 -4 -5 -4 -5 -5 -5 -5 -5 -5
6 6 5 5 4 4 3 3 3 3 2 2 2 2 2 1 1 0 -0 -0 -0 -1 -1 -2 -2 -2 -3 -3 -4 -4 -4 -4 -4 -4 -5 -5 -5 -6 -6 -6 -6 -6 -6

GFSMW_925_temp_048.txt.gz
Temp
18 19 19 19 20 20 21 21 21 20 20 19 19 19 19 20 20 21 21 20 20 20 19 20 20 20 19 19 19 19 18 18 18 17 16 17 17 17 17 16 16 16 15
16 16 17 18 19 19 19 19 19 19 20 20 19 18 19 19 19 20 20 20 20 20 20 20 19 19 19 19 19 18 17 17 17 16 13 13 15 16 16 16 16 16 15
16 14 15 17 18 18 18 18 18 18 17 18 18 19 19 18 18 18 19 19 19 19 20 20 19 18 18 18 19 18 17 16 15 15 15 9 11 11 15 15 16 15 15
15 14 14 16 17 17 17 17 17 17 17 17 17 17 17 17 18 18 18 18 18 18 18 18 18 18 18 17 17 18 17 16 14 14 14 14 13 10 11 13 13 14 14
13 13 14 16 16 16 16 16 16 16 16 16 16 16 16 15 16 16 16 17 18 18 18 18 18 18 19 19 17 16 16 16 15 14 14 12 12 11 10 10 11 12 13
12 13 15 15 15 15 15 15 15 14 14 14 14 14 14 14 15 15 16 16 16 17 17 17 17 17 17 18 18 17 16 15 15 14 13 13 12 12 10 7 8 9 12
11 11 11 13 14 14 14 14 14 13 13 13 13 13 13 13 14 14 14 14 15 15 15 16 17 16 17 17 17 17 16 16 14 14 13 13 13 13 12 10 10 7 9
11 11 11 12 13 13 12 12 12 12 12 12 12 12 12 13 13 13 13 13 13 13 13 14 15 16 15 15 16 16 15 15 15 14 13 13 12 12 11 11 9 7 6
11 11 11 12 11 11 11 11 10 10 10 10 11 11 11 12 12 11 12 12 11 11 11 12 13 14 14 14 14 14 14 14 14 14 13 12 12 11 11 10 10 10 9
11 10 10 10 10 10 9 9 9 9 9 9 9 9 10 11 10 11 11 10 10 10 10 10 11 11 12 12 13 12 12 12 12 12 11 12 11 11 10 9 9 8 8
10 9 9 9 9 8 8 8 8 8 8 8 8 8 9 9 9 9 10 9 9 9 9 9 9 10 10 10 10 10 10 10 9 9 10 10 10 9 9 8 8 7 7
10 9 8 8 7 7 7 7 6 6 6 6 7 7 7 8 8 8 9 8 8 8 8 8 8 8 9 9 9 9 9 9 9 8 8 7 7 7 6 6 5 4 4
10 9 7 6 6 6 6 6 6 5 5 6 6 6 6 6 6 6 6 6 6 6 7 7 7 7 7 7 7 8 8 7 7 6 6 5 5 4 4 4 3 3 2
10 8 6 5 5 5 5 5 5 5 5 5 4 4 4 4 4 4 4 4 5 5 5 5 4 4 4 4 5 5 5 5 4 4 3 3 3 3 2 2 1 1 1
9 8 6 4 4 4 4 4 4 4 4 4 4 3 3 3 3 3 3 3 3 3 2 3 3 2 1 2 3 3 3 2 1 1 1 1 1 1 1 1 0 1 0
9 8 6 4 3 3 3 3 3 3 3 3 3 2 2 2 2 2 1 1 1 2 2 1 1 1 1 1 1 2 1 -0 -0 0 0 0 0 0 0 -0 -0 -0 -0
8 6 5 4 3 3 3 2 2 3 3 2 2 2 1 1 1 1 1 1 1 1 1 1 1 1 1 0 1 1 1 0 -0 -0 -0 -0 -1 -1 -1 -1 -1 -1 -1
7 5 4 3 3 3 2 2 2 2 2 1 1 1 1 0 0 0 0 0 0 -0 -0 0 0 -0 -0 -1 0 0 -0 -1 -1 -1 -1 -1 -1 -2 -2 -2 -2 -2 -2
6 4 4 3 2 2 2 1 1 1 1 1 0 0 0 0 0 0 -0 -1 -1 -1 -1 -1 -1 -1 -1 -1 -1 -1 -1 -1 -2 -2 -2 -2 -2 -2 -2 -2 -2 -2 -2
5 3 3 3 2 2 1 1 1 1 0 0 -0 0 0 0 -0 -1 -1 -2 -2 -2 -2 -2 -2 -1 -1 -1 -1 -1 -1 -1 -2 -2 -2 -2 -2 -2 -2 -3 -3 -3 -3
4 3 3 2 2 2 1 1 1 0 0 0 0 -0 0 0 -1 -1 -2 -1 -1 -1 -1 -1 -1 -1 -1 -1 -2 -2 -2 -2 -2 -3 -3 -3 -3 -3 -3 -3 -4 -4 -3
3 3 2 2 2 2 2 1 1 1 1 1 1 0 -1 -1 -1 -0 -0 -1 -1 -1 -1 -1 -1 -1 -1 -2 -2 -2 -2 -3 -3 -3 -3 -3 -4 -4 -4 -4 -4 -4 -4
3 3 2 2 2 2 2 1 1 1 1 1 1 1 0 0 1 1 0 -0 -0 -0 -1 -1 -1 -1 -1 -2 -2 -3 -3 -3 -3 -4 -4 -4 -4 -4 -4 -4 -4 -5 -5
4 3 3 2 2 2 2 2 2 2 1 1 1 1 1 1 1 1 1 1 0 0 -0 -1 -1 -1 -2 -2 -3 -3 -3 -3 -4 -4 -4 -5 -5 -4 -5 -5 -5 -5 -5
5 4 3 3 3 3 2 2 2 1 1 1 1 1 1 1 1 1 1 1 1 0 0 -0 -1 -2 -2 -2 -3 -3 -3 -4 -4 -4 -4 -5 -5 -5 -5 -6 -6 -6 -6
5 4 4 4 3 3 3 3 2 2 1 1 1 2 1 1 1 1 0 0 0 -0 -0 -1 -1 -2 -2 -3 -3 -4 -4 -4 -4 -4 -5 -5 -6 -6 -6 -6 -6 -6 -7

GFSMW_925_temp_051.txt.gz
Temp
18 18 19 20 21 20 20 20 20 20 20 19 19 19 19 19 19 19 19 19 19 19 19 19 19 19 19 19 18 18 17 17 17 15 16 16 17 17 17 17 17 17 16
16 15 16 18 18 18 19 19 19 19 19 19 18 18 19 19 19 20 19 19 19 19 18 19 19 19 19 19 18 18 16 17 16 15 13 13 15 17 17 17 17 16 16
14 13 14 16 17 17 18 18 18 19 19 19 19 18 18 18 18 18 19 19 18 18 18 18 18 18 18 18 18 17 16 15 15 15 14 11 12 11 16 17 16 16 15
13 13 13 14 16 16 16 16 16 16 17 17 17 17 17 17 18 18 18 19 18 18 17 17 17 17 17 17 17 17 17 15 14 13 14 14 14 12 12 15 15 15 14
13 12 13 15 15 15 15 15 15 15 15 15 16 16 15 15 15 16 16 17 18 17 17 17 18 17 17 17 17 17 17 16 15 14 13 12 11 11 9 12 12 14 14
11 12 14 14 14 14 14 14 15 14 14 14 14 14 14 14 14 15 15 15 15 16 16 16 16 17 17 17 17 17 16 16 15 14 14 13 12 10 9 9 12 11 12
10 10 10 12 13 13 13 13 13 13 13 13 13 13 13 13 13 13 13 13 14 14 14 14 15 15 16 15 15 15 15 15 15 14 13 13 13 12 12 10 11 9 10
9 10 10 11 12 12 12 12 12 12 12 12 12 12 12 12 12 12 12 12 12 12 12 13 13 13 14 14 14 14 14 14 14 14 13 13 13 13 12 10 9 8 7
10 10 10 11 11 11 11 11 11 11 10 10 10 10 11 11 11 11 11 11 11 11 11 11 12 12 12 13 13 13 13 13 13 13 12 12 12 12 11 11 10 9 9
10 9 9 9 9 10 10 10 10 9 9 9 9 9 9 10 10 10 10 10 9 9 10 10 10 10 11 11 11 11 11 11 11 10 10 10 10 10 9 9 9 8 8
10 8 8 8 8 8 8 8 8 8 8 8 8 8 8 8 9 9 8 8 8 8 8 8 8 9 9 9 9 9 9 9 8 8 8 8 8 8 8 7 7 6 6
10 8 7 7 7 7 7 7 7 7 7 7 7 7 7 7 7 7 7 7 7 7 7 7 7 7 7 8 8 8 8 8 7 8 8 7 7 6 6 5 5 5 4
10 8 6 6 6 6 6 6 6 6 6 6 5 5 6 6 6 5 5 6 6 5 6 6 6 6 6 6 6 6 6 7 7 6 5 4 5 5 4 4 4 3 3
10 8 7 6 6 5 5 5 5 5 5 4 4 4 4 4 4 4 4 4 4 4 4 4 3 3 4 4 4 4 4 3 3 2 2 2 2 2 2 2 1 1 1
8 8 6 4 4 4 4 4 4 4 4 4 4 3 3 3 2 2 2 2 3 2 2 2 1 1 1 1 2 2 2 1 0 0 1 1 1 1 1 1 1 1 0
10 8 6 4 4 4 4 3 3 4 4 3 3 3 2 2 2 2 2 2 2 2 1 1 1 1 1 0 1 1 -0 0 0 1 0 0 0 0 0 0 0 -0 -0
9 8 6 5 4 4 3 3 3 3 3 3 2 2 2 1 1 1 1 1 1 1 1 1 1 0 1 0 1 1 1 0 -0 -0 -1 -1 -1 -1 -1 -1 -1 -1 -1
8 6 5 4 4 3 3 2 2 2 2 2 2 1 1 1 1 1 0 0 0 0 0 0 0 -0 -1 -1 0 0 0 -0 -1 -1 -1 -1 -1 -2 -2 -1 -1 -2 -2
6 6 6 4 3 3 2 2 2 2 1 1 1 1 1 0 0 -0 -0 -0 -1 -0 -0 -0 -1 -1 -1 -1 -0 -0 -1 -1 -1 -2 -2 -2 -2 -2 -3 -2 -3 -3 -3
6 5 4 4 3 2 2 1 1 1 1 1 0 0 0 0 -0 -0 -1 -1 -2 -2 -1 -1 -1 -1 -1 -1 -2 -1 -1 -1 -1 -2 -2 -2 -2 -3 -3 -3 -4 -4 -4
4 4 4 3 2 2 2 1 1 1 1 0 0 0 0 0 -0 -1 -2 -2 -2 -1 -1 -1 -1 -1 -1 -1 -2 -2 -1 -2 -2 -2 -3 -3 -3 -3 -3 -3 -4 -4 -3
3 3 2 2 2 2 2 1 1 1 1 0 0 0 0 -0 -1 -2 -1 -1 -1 -1 -1 -1 -1 -1 -1 -1 -2 -2 -2 -2 -3 -3 -3 -4 -4 -3 -4 -4 -4 -4 -4
3 3 3 2 2 2 2 1 1 1 1 0 0 -0 -1 -1 -1 0 -0 -1 -1 -1 -0 -1 -1 -1 -1 -1 -2 -2 -3 -3 -3 -4 -4 -4 -4 -4 -4 -4 -4 -5 -5
3 3 3 2 1 2 2 2 2 1 1 1 1 0 -0 -0 0 0 -0 -0 -0 0 -0 -1 -1 -1 -1 -2 -2 -2 -3 -3 -3 -4 -4 -4 -4 -5 -5 -5 -5 -5 -6
4 4 3 3 3 2 2 2 2 1 1 1 1 0 0 0 0 0 1 1 1 1 1 0 -0 -1 -1 -2 -2 -3 -3 -3 -4 -3 -4 -5 -5 -5 -5 -6 -6 -6 -6
5 4 3 3 3 3 3 3 2 2 1 1 1 1 1 1 1 0 0 0 0 0 -0 -0 -1 -1 -2 -2 -3 -3 -3 -4 -4 -4 -5 -5 -5 -6 -6 -6 -7 -7 -7

GFSMW_925_temp_054.txt.gz
Temp
17 19 19 20 21 21 21 20 19 19 19 19 18 18 18 19 19 19 19 19 19 19 19 18 18 18 18 19 18 18 17 17 16 15 15 16 16 16 17 17 17 17 17
15 16 17 17 18 20 20 19 19 18 18 18 18 18 18 18 18 19 19 18 18 18 18 18 18 18 17 17 18 17 16 16 16 15 13 13 15 17 17 17 17 17 16
14 13 14 15 16 17 17 18 18 18 18 18 18 18 17 17 17 17 17 18 18 17 17 17 17 17 17 17 17 17 16 15 15 15 14 12 13 12 17 17 17 17 16
13 13 13 13 16 16 16 17 17 17 18 18 18 18 17 17 17 17 17 17 17 17 17 16 16 16 16 16 17 17 16 15 14 14 14 14 13 12 12 15 16 16 16
13 12 12 14 14 15 15 15 16 16 16 16 16 16 16 15 15 16 16 17 16 16 16 16 16 17 16 16 16 16 15 16 14 14 14 13 11 11 10 12 13 14 15
12 12 13 13 13 13 14 14 14 14 14 14 14 14 14 14 14 14 15 15 15 15 15 15 15 15 15 14 15 15 15 15 15 14 13 14 12 10 9 9 9 11 12
10 10 10 11 11 12 13 13 13 12 12 12 13 13 13 13 13 13 13 13 13 13 13 14 14 14 14 13 13 13 14 14 14 14 13 13 13 12 12 11 10 10 10
9 10 10 10 11 12 12 12 12 12 11 12 11 11 11 12 12 12 11 11 11 12 11 12 12 12 13 13 13 13 13 13 14 12 12 12 13 13 12 11 10 9 8
8 8 9 10 10 10 11 11 11 10 10 10 10 10 10 10 10 10 10 10 10 10 10 10 10 11 11 12 12 12 12 12 12 12 12 12 11 11 11 10 10 9 9
9 8 8 9 9 10 10 10 10 9 9 9 9 9 9 9 9 9 9 9 9 9 9 9 9 9 9 10 10 10 10 11 11 10 10 10 9 9 9 9 9 8 8
9 8 7 8 8 9 9 9 8 8 8 8 8 8 8 8 8 8 8 8 8 8 8 8 8 8 8 8 8 8 8 8 7 7 7 8 8 7 8 8 7 7 7
9 7 6 6 6 7 7 7 7 7 7 7 7 7 7 7 7 7 6 7 7 7 7 7 7 7 7 7 7 7 6 7 6 6 7 6 5 6 6 5 6 5 4
8 7 6 5 6 6 6 6 6 6 6 6 6 5 5 5 5 5 5 5 5 5 5 5 5 5 5 5 5 5 5 5 4 4 4 3 4 3 3 3 3 3 3
8 6 5 5 6 6 6 5 5 5 5 5 5 4 4 4 4 4 4 4 4 4 4 3 3 3 3 4 3 4 3 2 1 1 1 1 2 1 1 1 1 1 2
8 7 6 5 5 5 5 5 5 4 4 4 4 3 3 3 3 2 2 2 2 2 1 1 1 1 1 1 1 1 1 1 1 1 1 1 1 1 1 1 1 1 1
10 7 6 5 4 4 4 4 4 4 4 4 3 3 2 2 2 2 2 2 2 1 1 1 1 1 0 -0 -0 -0 -0 -0 1 0 -0 -0 0 0 -0 -0 -0 -0 -1
10 8 6 5 5 5 4 4 3 3 3 3 3 2 2 2 1 1 1 1 1 1 1 0 0 0 -0 -0 1 1 0 0 -0 -0 -1 -1 -1 -1 -1 -1 -1 -1 -2
9 7 6 6 6 5 4 3 3 3 3 2 2 2 1 1 1 1 1 0 1 1 0 -0 -0 -1 -1 -1 -0 -0 -0 -0 -1 -1 -1 -1 -2 -2 -2 -2 -2 -2 -2
8 7 8 6 5 4 3 3 2 2 2 2 1 1 1 1 0 0 0 0 0 0 0 -0 -1 -1 -1 -1 -0 -1 -1 -1 -1 -2 -2 -2 -2 -2 -3 -3 -3 -3 -3
8 6 6 5 4 3 3 2 2 2 1 1 1 1 1 0 0 -0 -0 -1 -0 -0 -1 -1 -1 -1 -1 -2 -1 -1 -1 -1 -2 -2 -2 -2 -3 -3 -3 -3 -4 -3 -4
5 5 5 4 4 3 2 1 1 1 1 1 1 0 0 0 -0 -0 -1 -1 -2 -2 -1 -1 -1 -1 -1 -1 -2 -2 -1 -2 -2 -2 -3 -3 -3 -3 -3 -3 -4 -4 -4
3 4 3 3 3 2 2 1 1 1 1 1 0 0 0 -0 -1 -1 -2 -2 -1 -1 -1 -1 -1 -1 -1 -1 -2 -2 -2 -2 -2 -3 -3 -3 -3 -3 -3 -4 -4 -4 -4
3 3 3 2 2 2 2 1 2 1 1 0 0 -0 -0 -0 -1 -2 -1 -1 -1 -1 -1 -1 -1 -1 -1 -1 -1 -2 -2 -3 -3 -3 -4 -4 -4 -4 -4 -4 -5 -5 -5
3 3 3 2 2 2 2 2 2 1 1 0 0 -0 -1 -1 -2 -1 -0 -1 -1 -1 -1 -1 -1 -0 -1 -1 -1 -2 -2 -3 -3 -3 -4 -4 -4 -4 -5 -5 -5 -5 -6
4 3 3 3 3 3 2 2 2 1 1 1 1 -0 -1 -1 -1 -0 0 0 0 0 0 1 0 -0 -1 -1 -1 -2 -3 -3 -3 -4 -4 -4 -5 -5 -5 -5 -6 -6 -6
5 4 3 3 3 3 3 3 2 2 1 1 1 0 -0 -0 -0 -0 -0 0 0 0 0 0 0 -0 -1 -1 -2 -3 -3 -3 -3 -4 -4 -5 -5 -6 -6 -6 -6 -7 -7

GFSMW_925_temp_057.txt.gz
Temp
18 19 20 21 20 20 19 19 19 19 19 19 19 19 19 19 19 19 19 19 19 19 18 18 18 18 18 18 18 17 17 16 17 14 15 17 17 17 17 17 17 17 16
17 16 18 20 20 19 19 19 19 19 19 18 18 18 18 18 18 18 18 18 18 17 17 17 17 17 17 17 17 17 15 15 16 15 13 16 17 17 17 18 18 17 16
17 16 16 16 17 17 18 18 18 18 18 18 17 17 17 17 17 17 17 17 17 17 17 16 16 16 16 16 16 16 15 14 15 15 15 14 16 14 17 17 17 17 17
15 15 15 15 15 16 16 17 17 17 17 17 17 17 17 17 17 17 17 17 16 17 16 16 16 16 15 16 16 16 15 15 14 14 14 14 14 13 13 15 16 16 16
16 15 15 16 15 14 14 15 16 16 16 17 17 17 16 16 16 16 16 16 15 16 16 15 15 15 15 15 14 14 15 15 14 14 14 13 12 11 11 12 14 14 15
17 16 15 15 14 13 13 14 14 15 15 15 15 15 15 14 14 14 14 14 14 14 14 14 14 14 14 13 13 13 13 13 14 14 14 14 13 12 9 10 10 11 12
13 13 12 12 11 12 13 13 14 13 13 14 14 14 14 13 13 13 13 13 13 13 13 13 13 13 13 13 12 12 13 13 13 13 13 13 13 12 12 11 11 10 10
12 12 12 11 10 11 12 12 12 12 12 12 12 12 13 12 12 12 12 11 11 11 11 11 12 12 12 12 12 12 13 13 13 13 12 12 12 12 12 11 10 10 9
11 11 10 10 10 10 11 12 11 11 11 11 11 11 11 11 11 10 10 10 10 10 10 10 10 10 11 11 11 11 12 12 12 12 12 12 11 11 11 10 10 10 10
10 9 9 9 10 10 10 10 10 11 11 10 10 10 9 9 9 9 9 9 9 9 9 9 9 9 9 10 9 9 10 11 11 10 10 10 9 9 9 9 9 8 8
9 9 8 8 8 9 9 9 9 9 9 9 9 8 8 8 8 8 8 8 8 8 8 8 8 8 8 8 8 8 8 8 9 8 8 8 8 8 8 8 8 7 6
9 9 7 7 7 7 8 8 8 8 8 7 7 7 7 7 7 7 7 7 7 7 7 6 7 7 7 7 7 7 7 7 7 6 7 7 7 6 6 6 6 5 5
9 8 7 6 6 7 7 7 7 7 7 6 6 6 6 5 5 5 5 5 5 5 5 5 5 5 5 5 5 5 5 5 4 4 5 4 4 4 4 3 3 3 3
9 8 7 6 6 6 6 6 6 6 6 5 5 5 4 4 4 4 4 4 4 4 3 3 2 3 3 3 3 3 2 2 2 2 2 2 2 2 1 2 2 2 2
9 8 8 7 5 5 6 6 6 5 5 5 4 4 3 3 3 3 3 3 2 2 2 2 1 1 0 1 1 1 1 1 1 1 1 1 1 1 1 1 1 1 1
10 9 8 6 5 5 5 5 5 5 4 4 4 3 3 2 2 2 2 2 2 2 2 1 1 0 0 0 0 1 0 1 1 0 -0 0 -0 -0 -0 -0 -0 -0 -1
11 9 8 7 6 6 6 5 5 4 4 3 3 3 2 2 2 2 2 1 1 1 1 1 0 -0 -0 -0 1 1 1 1 0 -0 -1 -1 -1 -1 -1 -1 -1 -1 -2
10 9 8 7 7 7 5 5 4 3 3 3 3 2 2 1 1 1 1 1 1 1 0 -0 -0 -0 -1 -1 0 0 0 -0 -1 -1 -1 -1 -2 -2 -2 -1 -2 -2 -2
11 10 9 8 7 6 5 4 3 3 3 2 2 2 2 1 1 1 0 0 0 0 0 -0 -1 -1 -1 -0 -0 -0 -1 -1 -1 -2 -2 -2 -2 -2 -3 -2 -2 -3 -3
8 8 8 7 6 5 4 3 2 2 2 2 2 2 1 1 1 0 0 0 0 0 -0 -1 -1 -1 -1 -2 -1 -1 -1 -1 -2 -2 -2 -3 -2 -2 -3 -3 -3 -3 -4
6 6 5 4 5 4 3 2 2 2 2 2 2 1 1 1 1 0 -0 -0 -1 -1 -1 -1 -1 -1 -1 -1 -2 -1 -1 -1 -2 -2 -3 -3 -3 -3 -3 -3 -3 -4 -4
3 4 4 3 3 3 3 2 1 2 2 1 1 1 0 0 -0 -1 -1 -1 -2 -2 -2 -1 -1 -1 -1 -1 -1 -2 -2 -2 -2 -2 -3 -3 -3 -3 -3 -4 -4 -4 -4
3 4 4 3 3 3 3 1 1 1 1 1 0 0 0 -0 -1 -1 -2 -3 -2 -2 -1 -1 -1 -0 -1 -1 -1 -2 -2 -2 -3 -3 -3 -4 -4 -4 -4 -4 -5 -4 -5
3 3 3 2 1 2 2 3 2 1 1 0 0 -0 -0 -1 -1 -1 -2 -2 -1 -1 -1 -1 -0 -0 -1 -1 -1 -1 -2 -2 -3 -3 -3 -4 -4 -4 -4 -4 -5 -5 -5
4 4 4 3 3 3 2 2 2 2 1 1 0 -0 -0 -1 -1 -1 -1 -0 0 0 1 1 0 -0 -0 0 -0 -1 -2 -2 -3 -4 -4 -4 -4 -4 -5 -5 -5 -5 -6
5 4 4 4 4 3 3 3 2 2 1 0 0 0 -1 -1 -1 -1 -1 -0 -0 0 0 0 0 0 0 -0 -1 -2 -2 -3 -3 -3 -4 -4 -5 -5 -5 -6 -6 -6 -6

GFSMW_925_temp_060.txt.gz
Temp
23 20 21 21 20 20 19 19 18 18 18 18 18 18 19 19 18 19 18 18 18 18 18 18 18 18 18 18 18 18 18 18 18 17 18 18 18 18 18 18 18 17 16
23 21 20 19 20 21 20 19 19 19 19 19 19 19 19 19 19 18 18 18 18 18 17 17 18 18 17 18 18 18 17 17 17 17 17 18 20 19 18 17 17 17 16
24 23 20 19 18 18 18 18 17 17 18 18 17 17 17 17 17 17 17 16 17 16 16 16 16 16 16 16 17 16 16 15 16 15 16 17 19 18 18 17 16 16 16
20 20 19 19 17 17 16 16 17 17 16 16 17 17 18 19 17 16 16 16 16 16 16 15 15 15 15 15 15 15 15 15 15 14 14 14 14 15 16 16 16 15 15
21 21 20 19 17 15 16 15 15 15 16 16 16 17 17 16 15 16 16 15 16 16 16 15 15 14 14 14 13 13 13 13 14 14 14 14 13 13 13 14 15 14 14
22 22 21 19 17 14 15 15 14 14 15 15 15 15 16 16 15 15 15 14 14 13 14 14 14 13 13 13 13 12 13 12 13 13 14 13 13 13 12 12 13 13 14
22 22 22 18 17 14 13 13 14 13 13 14 14 14 14 14 14 14 14 13 14 12 11 13 12 12 12 12 12 12 12 12 13 13 13 13 13 13 12 11 12 12 13
20 18 18 19 17 14 13 13 13 13 12 13 12 12 12 12 12 12 12 12 12 11 11 11 11 11 11 11 11 11 12 12 13 13 13 13 13 12 12 12 12 12 13
19 19 15 16 16 14 13 13 13 12 12 12 12 11 11 11 11 10 10 10 10 9 10 10 10 10 10 10 10 11 11 11 12 12 12 12 11 11 11 11 11 11 11
17 16 15 14 14 14 13 13 12 12 11 11 11 10 10 10 9 9 9 9 9 9 9 9 9 9 9 9 8 9 10 10 10 10 10 10 10 9 9 9 9 9 9
16 14 13 12 12 11 11 11 11 10 10 10 9 9 9 8 8 8 7 7 8 8 8 8 8 8 8 7 7 8 9 9 9 9 9 8 7 7 7 7 8 7 7
14 13 13 12 11 10 10 10 10 10 9 9 8 8 8 7 7 7 6 6 6 7 6 6 6 6 6 6 6 6 6 6 6 6 6 6 6 5 5 6 6 6 5
14 14 13 12 12 11 10 9 9 9 8 8 8 7 7 7 7 6 5 5 5 4 4 4 4 4 5 4 4 4 4 4 4 4 4 4 4 4 4 4 4 3 3
15 15 14 13 12 11 10 9 8 8 7 6 7 7 6 6 5 5 4 4 4 4 4 3 2 3 3 3 3 2 2 2 2 2 2 2 3 2 2 2 2 2 2
15 15 14 14 12 11 9 9 8 7 6 6 5 5 5 4 3 3 3 3 3 3 2 2 2 1 1 1 2 2 2 2 1 1 1 1 1 1 1 1 1 1 2
16 15 14 14 13 11 10 9 8 7 6 6 6 5 4 4 3 3 2 2 2 2 2 1 1 1 1 1 1 1 1 1 1 0 1 1 1 0 0 -0 -0 0 1
17 16 15 14 12 11 10 8 7 7 6 6 6 5 4 3 2 2 2 2 1 1 1 1 1 1 0 0 0 1 1 1 0 -0 0 0 -0 -0 -0 -1 -1 -1 -1
16 16 16 14 13 11 8 7 6 6 6 5 5 4 3 2 2 2 1 1 1 1 1 1 0 0 0 -1 1 1 1 0 0 0 -0 -1 -1 -1 -1 -2 -2 -2 -1
17 15 15 14 12 9 7 6 5 5 5 5 4 3 2 1 1 1 1 1 1 0 0 0 -0 -1 -1 0 0 1 0 -0 -0 -1 -1 -1 -1 -2 -2 -2 -2 -2 -2
13 12 12 12 10 8 7 6 5 4 4 4 3 3 2 1 1 1 1 0 0 0 -0 -0 -1 -1 -1 -1 -0 -0 -1 -1 -1 -2 -2 -2 -2 -2 -3 -2 -2 -1 -2
9 8 9 9 9 6 5 5 5 3 4 3 2 2 1 1 1 1 0 0 -0 -1 -1 -1 -1 -1 -1 -1 -1 -1 -1 -1 -1 -1 -1 -2 -3 -3 -3 -3 -2 -2 -3
7 6 7 6 5 5 5 5 4 3 3 2 2 1 1 1 0 0 -0 -0 -1 -1 -1 -1 -1 -1 -1 -1 -1 -1 -1 -1 -1 -2 -2 -2 -3 -3 -3 -3 -3 -3 -4
6 6 7 5 5 4 5 5 4 2 2 1 1 1 1 0 0 -0 -1 -2 -2 -1 -1 -1 -0 -0 -1 -1 -1 -1 -1 -2 -2 -2 -2 -3 -3 -3 -3 -3 -4 -4 -4
6 6 6 6 5 4 4 4 3 2 2 2 1 0 0 -0 -0 -1 -1 -2 -2 -2 -0 -1 -0 -0 -1 -1 -1 -1 -2 -2 -3 -3 -3 -3 -3 -3 -4 -4 -4 -5 -4
6 6 6 6 5 4 3 3 2 2 2 1 0 -0 -0 -1 -1 -1 -1 -2 -1 -1 -0 -0 0 -0 -0 -0 0 -0 -2 -2 -2 -3 -4 -3 -3 -3 -4 -4 -4 -5 -5
6 5 5 5 4 3 2 2 2 2 1 1 0 -0 -0 -0 -1 -2 -2 -2 -1 0 0 0 0 1 1 1 0 -0 -1 -2 -3 -3 -3 -2 -3 -3 -3 -4 -4 -4 -5

GFSMW_925_temp_063.txt.gz
Temp
27 24 23 23 23 22 22 21 20 19 19 19 19 20 20 20 21 21 21 20 20 20 20 19 20 19 19 19 20 20 19 19 19 18 18 18 19 19 19 19 19 19 18
26 24 22 22 22 23 22 21 21 20 20 19 19 19 20 20 21 20 20 19 19 19 19 19 19 19 19 19 19 19 19 18 18 17 17 17 19 20 20 19 18 18 18
26 25 23 21 21 21 22 21 21 21 20 20 20 20 19 19 19 19 19 19 18 18 18 18 17 17 17 17 17 17 17 16 17 17 16 17 19 19 19 18 18 17 17
24 23 23 22 20 20 19 19 20 19 19 19 19 18 18 19 20 20 19 17 17 16 16 16 15 15 16 16 16 15 15 15 15 15 16 16 15 15 16 18 17 17 16
24 23 22 21 21 19 17 17 17 18 17 17 17 18 18 19 18 17 16 16 15 16 16 16 15 15 15 14 14 14 14 14 14 15 15 14 14 14 14 15 15 16 15
23 23 22 22 21 17 16 16 16 16 16 16 17 17 18 17 16 16 16 16 15 14 14 14 14 13 13 13 13 13 13 13 13 13 13 14 14 13 12 12 14 14 14
24 24 23 23 21 17 15 15 16 15 15 16 16 17 17 17 16 16 16 16 16 15 13 12 12 12 12 12 12 12 12 12 12 13 13 14 14 14 13 13 12 12 13
23 22 22 21 20 18 15 15 15 15 15 16 16 15 14 15 15 14 14 14 14 14 12 11 11 11 11 11 11 11 12 12 12 13 13 13 13 13 13 12 12 11 12
21 22 20 18 20 19 16 15 15 15 14 14 14 14 14 13 13 13 12 12 11 11 10 10 10 10 10 10 10 11 12 11 11 11 12 12 12 12 11 11 11 12 11
20 20 20 18 17 18 16 16 15 15 14 14 14 13 12 12 12 11 12 11 10 9 9 9 9 9 9 9 9 9 9 10 10 10 10 10 10 10 10 10 10 10 10
19 18 18 17 16 16 15 15 15 14 13 13 12 12 11 11 10 11 10 10 9 8 8 8 8 8 8 8 8 8 8 9 9 9 9 9 8 8 8 8 8 8 8
18 17 16 15 14 14 14 13 13 13 12 12 12 11 11 10 10 10 9 8 8 7 7 7 7 7 7 7 8 7 7 8 8 7 7 7 7 7 6 7 7 7 6
19 17 16 15 14 13 13 12 12 12 11 11 11 10 10 9 9 9 8 7 7 7 6 6 6 6 5 5 6 6 6 6 6 6 5 5 6 5 5 5 5 4 4
19 18 17 16 15 14 13 13 11 11 10 9 9 9 9 9 8 8 7 6 6 6 6 5 4 4 3 3 3 3 4 3 3 3 3 3 3 3 3 3 3 3 3
19 18 17 17 16 14 13 12 11 10 9 9 8 8 7 7 6 6 5 5 5 5 4 3 3 2 2 2 2 3 2 2 2 2 2 2 2 2 2 2 2 2 2
18 18 18 17 16 15 13 12 11 10 9 9 8 8 6 6 5 4 4 3 3 3 3 2 2 2 2 2 2 2 2 2 1 1 1 1 1 0 0 -0 -0 0 1
18 18 18 17 16 16 14 12 11 10 9 9 9 7 6 6 5 4 3 2 2 2 2 2 2 1 1 1 1 1 1 1 1 1 1 0 0 0 -0 0 0 -0 1
16 17 18 18 17 16 14 12 10 10 9 8 8 7 6 5 3 3 2 2 2 1 1 1 1 1 0 0 0 1 1 1 0 0 0 0 -0 -1 -1 -1 -1 -1 -1
14 15 17 16 17 15 14 11 9 8 8 7 7 6 5 4 3 2 1 1 1 1 1 1 0 0 -0 -1 0 1 0 0 0 -0 -1 -0 -0 -1 -1 -1 -1 -1 -1
12 13 14 14 15 15 12 9 8 7 7 7 6 5 4 3 2 2 1 1 1 1 0 0 0 -1 -1 -1 0 0 -0 -0 -1 -1 -1 -0 -1 -2 -2 -1 -1 -1 -1
11 9 11 12 13 12 10 9 8 7 6 5 5 4 3 2 2 1 1 1 0 -0 -0 -0 -0 -0 -0 -1 -0 0 -1 0 -0 -0 -1 -1 -1 -2 -2 -2 -2 -2 -2
10 9 10 10 9 8 8 8 7 6 5 5 4 3 2 1 1 1 1 0 0 -1 -1 -1 -1 -1 -1 -0 -1 -1 -1 -1 -1 -1 -1 -2 -2 -2 -3 -2 -3 -3 -3
10 8 9 8 7 7 7 8 7 5 5 4 3 2 2 1 1 1 0 -1 -1 -1 0 -0 0 -0 -0 -1 -0 -1 -1 -1 -1 -1 -2 -2 -2 -2 -3 -3 -3 -3 -3
10 9 8 8 7 7 7 7 6 5 4 4 3 1 1 0 0 0 -0 -1 -1 -1 0 -0 -0 1 0 -0 -0 -0 -1 -1 -2 -2 -2 -3 -3 -3 -3 -3 -3 -4 -4
9 8 8 8 8 7 6 6 5 4 4 3 2 1 0 0 -0 -0 -0 -1 -0 -0 -0 0 0 1 0 0 1 0 -1 -1 -2 -2 -3 -3 -3 -3 -3 -3 -3 -3 -4
8 7 6 7 7 6 5 4 4 3 3 2 2 1 0 0 -0 -1 -1 -1 -0 -0 -0 0 0 1 1 1 1 -0 -1 -1 -2 -2 -3 -3 -2 -2 -2 -2 -3 -3 -3

GFSMW_925_temp_066.txt.gz
Temp
24 24 23 23 23 23 22 21 20 20 20 20 20 20 20 21 21 21 21 21 21 20 20 20 20 20 20 19 19 19 19 19 19 19 18 18 18 19 19 19 19 19 19
24 21 23 23 23 22 22 22 20 20 20 19 19 20 20 20 20 20 21 20 20 20 20 19 19 19 19 19 19 18 18 19 19 18 17 16 18 19 19 19 18 18 18
23 20 20 22 22 22 22 21 21 20 19 19 19 19 19 19 20 20 20 19 19 19 19 19 18 18 18 18 18 18 17 17 17 17 17 15 15 16 18 18 18 18 17
22 20 20 20 21 22 22 22 21 21 20 19 19 19 19 19 19 20 19 19 18 18 18 17 17 17 17 17 16 16 16 15 15 15 16 16 16 15 15 17 17 17 16
21 21 20 21 20 20 20 21 21 20 19 19 19 19 19 19 19 19 18 18 17 17 17 17 16 16 15 15 15 15 14 14 14 15 15 15 16 16 14 14 15 16 16
19 20 21 21 21 20 18 18 19 19 19 18 18 18 18 18 18 18 17 17 16 16 16 15 15 14 14 14 14 13 13 13 13 13 13 14 14 13 14 12 13 13 14
19 19 19 19 20 18 17 17 17 17 17 17 17 17 18 18 17 17 16 16 16 15 14 14 14 13 13 12 13 13 12 12 12 12 12 13 13 14 14 12 12 12 13
19 21 20 19 19 19 17 16 16 16 16 16 16 17 17 16 16 16 15 15 15 14 13 13 12 12 11 12 11 11 11 12 12 12 12 12 12 13 13 13 13 11 11
17 18 19 18 18 17 16 16 16 16 16 16 16 16 15 15 14 14 14 13 13 13 12 12 11 11 11 10 10 10 10 11 11 11 10 11 12 12 12 12 12 11 11
17 16 16 17 18 17 17 16 15 15 15 15 15 14 14 14 14 13 13 12 11 11 11 10 10 10 10 10 9 9 9 10 10 10 9 10 10 10 10 10 10 10 11
16 15 15 17 17 16 16 15 15 14 14 14 13 13 12 13 13 12 11 11 10 10 9 9 9 9 9 8 8 8 8 8 9 9 9 9 8 8 9 9 9 9 9
16 15 15 15 15 15 15 15 15 14 13 13 13 12 12 11 11 11 10 10 9 8 8 8 8 7 7 7 8 8 7 8 8 7 7 7 7 8 8 7 7 7 7
17 15 13 14 14 13 14 13 13 13 12 12 12 11 10 10 10 10 9 8 8 7 7 7 6 6 6 6 6 6 6 6 6 6 6 6 6 6 5 5 5 5 5
16 16 14 13 14 13 13 12 12 12 11 11 11 10 10 9 9 9 8 7 7 6 6 6 5 5 4 4 5 5 5 5 4 4 4 4 4 3 3 3 3 3 3
15 15 14 13 14 13 13 13 12 11 10 10 9 9 9 8 8 7 7 6 6 5 5 5 4 3 3 2 3 3 3 3 3 2 2 2 2 2 2 2 2 2 3
14 15 15 14 14 14 13 13 12 11 10 9 8 8 8 7 7 6 5 5 4 4 4 4 3 3 2 2 2 2 2 2 2 2 1 1 1 0 0 1 1 1 1
13 13 13 14 15 15 14 13 12 11 10 9 9 8 7 6 5 5 4 3 3 3 3 3 2 2 2 2 2 2 2 2 1 1 1 1 1 1 0 0 -0 1 0
12 11 12 13 16 16 15 13 12 11 10 9 9 8 7 6 5 4 3 2 3 2 2 2 1 1 1 1 1 1 1 0 0 1 1 0 0 -0 -0 -0 -0 -1 -1
11 11 12 12 14 15 15 13 11 10 9 8 8 7 6 5 4 3 2 2 2 2 1 1 1 1 0 -1 -1 1 0 1 0 0 -0 -0 -1 -1 -1 -1 -1 -1 -1
11 11 10 10 12 14 14 12 10 9 9 8 8 7 6 5 4 2 2 2 2 1 1 1 1 0 -0 -1 0 0 0 0 -0 -0 -0 -0 -1 -1 -1 -1 -1 -1 -1
11 10 9 10 11 12 12 10 8 8 8 7 7 6 5 4 2 2 2 2 1 1 0 0 -0 -0 -0 -0 0 0 -0 0 0 -0 -1 -1 -1 -2 -2 -2 -2 -2 -2
11 10 8 9 9 9 10 9 8 7 7 6 5 5 4 3 2 2 1 1 1 0 -0 -1 -1 -0 -0 -0 -1 -1 -0 -0 -0 -0 -1 -1 -1 -1 -2 -2 -2 -3 -2
10 10 8 8 8 7 8 8 7 7 6 5 4 4 3 2 1 1 1 0 0 -0 -1 -1 -0 -0 -0 -0 -0 -1 -1 -1 -1 -1 -1 -1 -2 -2 -2 -2 -3 -3 -3
9 10 8 8 7 7 7 7 7 6 5 4 4 3 2 1 1 1 1 0 -0 -1 -0 0 0 0 0 0 0 -0 -0 -0 -1 -1 -1 -1 -2 -2 -3 -3 -3 -3 -3
8 9 8 8 8 7 7 7 6 6 5 4 3 3 2 1 0 0 1 0 0 0 0 0 0 0 0 1 1 1 1 0 -0 -1 -2 -2 -2 -3 -3 -3 -3 -3 -3
7 8 8 7 7 7 7 6 6 5 4 3 3 2 1 1 0 -0 -0 -0 0 0 -0 0 0 1 1 1 1 0 0 -1 -1 -2 -2 -2 -2 -3 -2 -2 -2 -3 -3

GFSMW_925_temp_069.txt.gz
Temp
21 22 22 23 22 22 21 21 21 20 20 20 20 21 21 21 21 21 21 21 21 20 20 19 19 20 20 20 20 19 19 19 19 19 19 19 19 19 19 19 19 18 18
20 21 22 23 22 22 22 22 21 21 21 21 21 21 21 21 20 21 21 21 21 20 20 20 19 20 19 19 19 19 19 19 19 19 18 15 17 19 19 19 19 18 18
20 18 19 22 23 22 21 21 21 21 20 20 20 20 20 20 20 20 20 20 20 20 20 19 19 19 19 19 19 18 18 18 18 18 17 15 15 15 18 18 18 17 17
21 19 19 19 21 22 22 21 21 21 20 20 20 20 19 19 20 20 20 19 19 19 19 19 18 18 18 18 17 17 17 16 15 15 16 16 15 14 14 16 17 16 16
19 18 17 20 21 22 21 21 20 20 21 20 19 20 20 19 20 19 19 19 18 18 18 17 17 16 16 16 16 15 15 14 14 14 14 14 15 15 14 13 14 16 15
17 17 19 20 20 20 20 20 20 19 18 21 20 20 20 18 18 18 18 18 18 17 17 17 16 16 15 14 14 14 13 13 13 13 13 13 13 13 13 12 13 13 15
16 16 16 17 19 19 20 20 19 19 19 18 18 18 18 18 18 17 17 17 16 16 16 15 15 14 14 13 13 13 13 13 12 12 12 12 13 13 13 13 12 12 13
14 15 16 17 17 18 19 19 19 18 19 18 18 17 17 18 17 17 17 16 16 15 15 14 14 13 13 13 12 12 12 12 11 11 11 12 12 12 12 12 12 10 11
14 14 15 16 17 17 17 17 17 17 16 17 17 17 17 17 17 16 16 16 15 14 14 13 13 12 12 12 11 11 11 10 11 11 11 11 11 11 12 12 12 11 11
14 14 13 15 16 17 17 16 16 17 17 16 16 15 16 16 16 15 14 16 14 13 13 12 11 11 11 10 10 10 9 9 9 10 10 10 10 10 10 10 10 11 11
14 14 14 16 15 16 15 15 15 15 15 15 15 14 14 14 13 13 12 12 13 12 11 10 10 9 9 9 9 9 9 9 9 9 9 9 9 9 9 9 9 9 9
15 13 14 14 14 14 14 14 14 14 15 14 14 14 14 13 12 11 11 10 10 10 10 9 9 8 8 8 8 8 8 8 8 8 8 8 8 8 8 8 8 8 8
16 13 12 12 13 13 13 13 14 14 13 13 13 12 12 11 11 11 10 10 10 9 8 8 7 7 7 7 7 7 7 7 7 7 7 8 7 7 7 6 6 6 5
13 12 11 10 13 13 13 12 12 13 12 12 12 11 11 10 10 9 9 9 8 7 7 6 6 6 6 5 5 5 5 5 5 5 5 5 5 5 4 4 4 3 4
12 11 11 10 11 12 13 13 12 12 12 11 11 11 10 9 9 9 8 7 7 6 6 6 5 5 4 3 3 3 4 4 4 3 3 3 3 3 3 3 3 3 3
11 11 11 11 12 11 12 12 12 12 11 11 10 10 9 9 8 8 7 6 6 5 5 5 4 4 4 3 2 2 3 3 3 2 2 2 2 1 1 2 2 2 2
11 10 9 10 11 12 12 12 12 11 11 10 10 9 8 8 7 6 5 5 4 4 4 4 3 3 3 2 2 2 2 2 2 1 1 1 1 1 1 -0 0 0 1
10 9 9 10 10 11 11 12 12 11 10 10 9 8 8 7 6 5 5 4 3 3 3 3 2 2 2 2 2 1 2 1 1 1 1 1 1 0 0 0 0 -0 -0
9 9 10 10 9 10 11 11 11 11 10 10 9 8 8 7 5 5 4 2 2 2 2 2 2 1 1 1 0 1 1 0 0 0 0 0 -0 -0 -1 -0 -0 -1 -1
9 9 10 9 9 10 11 10 10 10 9 9 9 8 7 7 5 5 4 2 2 2 2 1 1 1 1 0 -0 0 0 0 -0 -0 -0 -0 -0 -1 -1 -1 -1 -1 -1
7 9 9 9 8 9 10 9 9 9 9 9 9 8 7 6 5 4 2 1 1 1 1 1 1 0 0 -0 -1 -0 0 0 -0 -0 -0 -0 -1 -1 -2 -1 -1 -1 -2
7 7 7 8 9 8 8 8 8 9 8 8 7 7 6 5 4 3 1 1 1 1 0 0 -0 -0 -0 -0 -0 -0 -0 -0 0 0 -0 -0 -1 -1 -2 -2 -2 -2 -2
5 6 6 7 8 8 7 7 8 8 7 7 6 6 5 4 3 2 0 1 1 0 -0 -0 -0 -0 -0 -0 -0 -0 -0 -0 -0 -0 -0 -1 -1 -1 -2 -2 -2 -2 -3
4 5 5 6 7 8 7 7 7 7 6 6 5 4 3 3 3 1 0 0 0 -0 -0 -1 -1 0 -0 0 0 -0 -0 -0 -1 -1 -1 -1 -2 -2 -2 -2 -2 -3 -3
5 4 5 6 7 8 8 7 7 6 6 5 4 3 3 2 2 1 1 0 1 1 0 0 0 0 -0 1 1 1 0 0 -0 -1 -1 -2 -2 -2 -2 -2 -2 -3 -3
6 6 5 6 6 7 7 7 6 6 5 4 4 3 2 2 1 1 0 0 1 1 0 1 1 1 1 1 1 1 1 1 0 -1 -2 -2 -2 -2 -2 -3 -2 -2 -2

GFSMW_925_temp_072.txt.gz
Temp
19 21 21 21 21 21 21 21 20 21 21 21 21 21 21 20 21 21 21 21 20 20 20 19 19 19 19 20 20 19 19 19 19 19 19 19 19 19 19 19 19 18 18
18 20 21 21 20 22 21 21 22 21 21 21 21 21 21 20 20 21 21 21 21 21 20 19 19 19 19 20 19 19 18 18 19 19 18 14 17 18 18 18 18 18 17
18 17 18 21 21 20 21 22 22 21 21 21 21 20 20 20 20 20 20 20 21 20 20 20 19 19 19 19 19 19 18 18 18 18 17 15 14 14 18 17 17 17 16
17 18 17 19 21 21 20 21 22 22 21 21 20 20 20 19 20 20 20 20 19 20 20 19 19 19 19 18 18 18 17 16 16 16 15 15 15 14 14 16 16 16 16
16 17 16 19 21 22 21 21 21 22 21 20 20 21 20 20 21 21 21 19 19 19 18 19 19 18 18 18 17 16 16 15 14 14 14 14 14 14 13 14 14 15 15
15 16 18 19 19 20 20 20 19 20 20 20 21 21 21 21 20 19 18 18 18 18 17 17 17 17 17 17 16 16 15 14 14 13 13 13 12 12 12 11 11 12 13
16 15 16 16 18 19 20 20 20 20 20 20 20 19 20 20 19 19 20 18 17 16 16 16 17 17 17 16 16 14 14 13 13 13 12 12 12 12 12 12 11 11 13
12 14 16 16 16 17 18 18 19 19 18 18 18 18 19 20 19 19 18 17 17 17 16 16 16 16 14 14 14 13 13 12 12 12 11 11 12 12 12 11 11 11 11
12 12 13 15 16 17 18 18 17 18 18 18 17 17 17 17 17 16 15 16 15 15 14 15 15 14 13 12 12 12 12 11 11 11 11 11 11 11 11 11 11 11 11
13 12 12 14 16 16 16 16 16 17 17 17 17 17 16 16 16 17 18 18 16 15 14 13 12 12 12 12 11 11 11 10 10 10 10 10 10 10 9 9 10 10 11
13 13 12 14 15 15 15 15 14 15 15 15 15 15 15 15 15 15 14 14 13 13 12 11 11 10 10 10 9 10 9 9 9 9 9 9 9 9 9 9 9 9 9
14 12 12 13 14 15 14 14 14 14 15 15 14 14 14 14 14 13 13 13 12 11 11 10 9 9 9 9 8 8 8 8 8 8 8 8 8 8 8 8 8 8 7
12 10 10 11 11 12 13 14 13 14 14 14 13 13 13 13 12 12 11 11 11 10 9 9 8 8 8 8 7 7 7 7 7 7 8 7 7 7 7 7 7 7 7
11 10 9 10 11 12 12 12 13 13 12 12 12 12 12 12 11 11 10 10 10 9 8 8 8 7 7 6 6 6 6 6 6 6 6 6 6 6 6 5 5 5 5
10 10 9 8 10 11 11 11 12 12 12 12 12 12 11 11 10 10 10 9 9 8 7 7 6 6 5 5 4 4 4 4 4 4 4 4 4 3 3 3 3 4 3
10 9 9 9 9 9 10 10 11 11 12 11 11 11 10 10 10 9 8 8 7 7 6 5 5 5 4 5 4 3 3 3 3 3 3 2 2 2 2 2 3 3 3
9 9 8 8 9 9 9 10 10 11 11 11 10 10 10 9 8 8 7 7 6 5 5 4 4 4 4 3 3 3 2 2 2 2 2 2 1 1 1 0 1 1 1
7 7 8 8 8 9 9 9 10 10 10 10 10 10 9 8 8 7 6 6 5 4 4 4 3 3 3 2 2 2 2 2 2 1 1 1 1 1 1 0 1 0 0
6 6 7 7 8 9 9 9 9 9 10 10 10 10 9 8 7 6 6 5 4 3 3 3 3 2 2 2 1 1 1 1 1 1 1 1 1 0 -0 -0 -0 -1 -1
6 6 6 6 7 8 8 8 8 8 8 10 10 10 9 8 7 6 5 4 3 2 2 2 2 2 2 1 1 0 1 0 0 0 0 -0 0 -1 -1 -0 -0 -1 -1
5 5 5 5 6 7 7 7 7 7 8 8 9 9 9 8 8 6 5 4 2 1 1 2 1 1 1 1 -0 1 0 0 -0 -0 -0 -0 -1 -1 -1 -1 -1 -1 -1
4 4 4 4 5 6 7 7 7 7 7 8 9 8 8 7 6 5 4 3 2 1 1 1 1 1 1 0 -0 -1 0 0 0 0 0 0 -1 -1 -1 -1 -1 -2 -2
5 4 4 4 5 6 7 6 7 7 7 7 8 7 7 6 5 4 3 2 1 1 0 0 -0 0 0 -0 -0 0 0 -0 -0 0 0 0 -1 -1 -1 -2 -2 -2 -2
5 5 5 3 4 5 6 7 7 7 6 6 6 6 5 4 4 3 3 2 1 0 0 -0 -1 -0 0 -0 -0 -0 0 0 -1 -0 -0 -1 -1 -1 -1 -2 -2 -2 -2
4 4 5 4 4 5 6 6 7 6 6 5 5 4 4 3 3 3 3 2 1 1 0 0 0 -0 -0 1 1 0 -0 -0 -0 -1 -1 -2 -2 -2 -2 -2 -2 -2 -2
3 2 3 3 3 4 4 6 6 6 6 5 4 3 3 2 2 2 1 1 1 1 0 1 1 1 1 1 1 1 1 0 -0 -1 -2 -2 -2 -2 -2 -2 -2 -2 -2

GFSMW_925_temp_075.txt.gz
Temp
18 19 20 19 19 19 20 21 21 21 20 20 19 19 19 20 20 20 20 21 20 20 20 19 19 19 19 19 19 19 19 19 19 18 19 19 19 19 19 19 18 18 18
17 18 20 20 19 20 20 21 21 21 21 21 19 19 20 19 21 20 21 21 21 20 20 20 19 19 19 19 19 19 19 19 18 18 17 14 17 18 18 18 18 18 18
16 16 18 20 21 20 19 20 22 21 21 19 19 20 21 21 20 20 20 20 21 20 20 20 20 19 19 19 19 19 18 18 18 18 17 15 13 13 17 17 17 17 16
15 15 17 18 20 22 21 21 21 21 22 21 20 20 21 19 21 20 19 19 20 20 20 20 19 19 19 18 18 18 18 18 17 16 16 16 15 14 13 15 15 15 15
14 15 15 19 21 22 22 21 20 21 21 21 20 19 19 20 21 20 20 19 19 18 19 19 19 19 19 19 19 18 17 16 16 15 14 14 14 14 12 12 13 14 14
14 15 17 17 18 19 20 20 20 21 20 19 20 21 21 20 20 20 18 17 17 17 16 18 19 18 18 18 18 16 15 15 15 14 14 13 13 12 11 10 11 11 12
15 15 15 15 16 17 19 20 19 20 20 19 19 20 21 20 20 19 19 18 17 17 16 16 19 19 19 18 17 16 15 14 13 13 13 12 12 12 11 11 10 10 12
12 13 13 14 15 16 16 17 18 19 19 18 19 19 19 20 19 20 19 18 17 18 16 15 15 15 15 14 14 14 14 13 12 12 12 12 11 11 11 10 10 11 10
11 11 12 13 14 15 16 16 16 17 18 18 18 18 17 18 18 18 17 18 17 16 15 16 16 15 14 13 12 13 12 12 11 11 11 10 10 11 11 10 9 10 11
11 11 11 13 15 15 16 16 16 15 15 16 16 16 17 16 16 15 15 15 15 16 16 15 15 16 13 12 12 11 11 10 11 10 10 9 10 10 10 9 9 9 10
11 10 10 12 13 13 14 14 14 14 14 15 15 15 15 15 15 15 15 14 14 13 13 13 13 13 13 12 10 10 10 10 9 9 9 9 8 9 8 8 9 8 9
9 9 9 11 12 13 13 13 13 13 14 14 14 14 15 14 14 14 14 14 14 13 13 12 12 11 11 10 10 9 8 8 8 8 8 8 8 8 8 7 8 8 8
9 8 8 8 10 11 12 12 13 13 13 13 13 13 13 13 13 13 13 13 12 12 11 11 11 10 9 8 8 7 7 7 7 7 7 7 7 7 7 7 6 6 6
9 8 7 7 9 10 10 11 11 12 12 12 12 12 12 12 12 12 12 12 11 11 10 10 9 8 8 7 6 6 6 5 6 6 6 6 6 6 6 6 6 5 5
8 8 7 6 8 9 9 10 11 11 11 11 11 11 11 11 11 11 10 10 10 9 9 8 7 7 6 6 5 5 4 4 4 5 5 5 5 5 4 4 4 4 4
8 7 7 7 7 7 8 9 9 10 10 10 11 11 11 10 10 10 9 9 8 8 7 7 6 6 5 5 5 5 4 3 3 3 3 3 3 3 3 3 3 3 3
7 6 6 6 7 7 7 8 8 9 9 9 10 10 10 10 9 9 8 8 7 7 6 6 5 5 4 4 4 3 3 4 3 2 2 2 2 2 2 1 2 1 2
6 5 5 5 6 7 7 7 8 8 9 9 9 10 9 9 9 8 7 7 6 6 5 5 4 4 4 3 3 2 2 2 2 2 2 1 1 1 1 1 1 1 1
5 5 5 5 5 6 7 6 7 8 8 8 9 10 10 9 8 7 7 6 6 5 5 4 3 3 3 3 2 2 2 2 1 1 1 1 1 1 0 0 0 -0 -0
4 4 4 4 4 5 5 5 6 6 7 7 8 8 9 9 8 8 7 6 5 5 4 3 3 3 3 2 2 1 1 0 1 1 0 0 0 -0 -1 -0 -0 -1 -1
4 4 4 3 4 5 4 4 5 6 7 7 7 7 8 9 8 7 6 5 5 3 2 1 1 1 2 2 1 1 1 0 0 0 0 0 -0 -0 -1 -1 -1 -1 -1
4 4 4 4 4 5 4 3 4 7 7 7 6 7 8 8 7 7 6 4 3 3 2 1 1 1 2 1 1 0 0 0 -0 0 0 0 -0 -1 -1 -1 -1 -2 -2
4 4 4 4 5 5 4 3 5 6 6 6 6 6 6 6 6 6 5 3 2 2 1 1 1 1 1 1 0 0 -0 -1 -0 0 0 0 -0 -1 -1 -1 -1 -2 -2
4 4 4 3 4 3 3 3 4 5 5 5 6 5 5 5 5 4 4 3 2 1 1 0 0 1 1 1 0 -0 0 0 -0 -0 -0 -0 -0 -1 -1 -1 -2 -2 -2
2 2 1 1 2 1 1 2 3 4 5 5 5 5 4 4 4 4 4 3 3 3 1 1 1 0 -0 1 2 1 0 0 0 -0 -1 -1 -1 -1 -2 -2 -2 -2 -2
2 1 1 1 1 1 1 1 2 3 4 4 4 4 4 3 3 2 2 2 2 2 2 1 1 1 1 1 1 1 1 0 0 -1 -1 -1 -1 -2 -2 -2 -2 -2 -2

GFSMW_925_temp_078.txt.gz
Temp
16 16 17 18 21 20 21 21 21 19 20 20 19 19 19 20 19 18 18 19 20 19 19 19 19 18 18 19 19 18 18 18 19 19 19 19 19 19 19 18 18 18 18
16 16 16 17 18 20 22 21 21 19 19 19 18 19 18 18 18 19 18 19 19 20 20 19 19 19 18 18 18 18 18 19 19 18 17 14 16 18 18 18 18 17 17
15 16 17 18 18 19 18 19 21 20 19 19 19 19 18 18 18 19 18 18 19 19 20 20 18 18 18 18 17 18 18 18 18 18 17 14 13 13 16 17 16 16 16
14 15 16 18 19 20 21 19 20 21 21 20 20 17 17 18 18 21 19 17 18 17 16 18 19 17 17 18 18 18 18 18 18 17 16 16 15 14 12 15 15 15 15
14 15 15 17 19 19 20 20 20 20 21 21 21 20 18 20 18 20 19 19 18 18 17 17 16 18 17 17 18 18 17 16 17 16 14 14 14 13 12 11 12 14 14
14 14 16 16 17 18 18 18 19 19 19 20 21 20 21 21 20 19 19 19 18 18 18 17 16 15 15 15 17 17 17 16 16 15 14 13 13 12 11 10 10 10 12
14 15 16 14 15 16 16 16 18 19 18 18 19 20 20 19 20 20 19 19 18 18 17 16 16 16 16 16 15 15 15 14 14 13 13 12 12 11 11 10 10 9 12
11 11 11 12 13 14 15 16 17 18 17 17 17 17 17 18 18 19 18 17 19 17 17 17 16 16 16 15 15 14 14 13 13 13 12 12 12 11 10 10 10 10 10
10 10 10 11 12 13 14 14 16 16 17 17 17 17 17 16 16 16 16 16 17 18 17 17 16 15 14 14 15 14 14 13 12 12 11 10 10 10 10 10 10 9 10
9 9 8 10 11 12 13 14 14 14 15 15 16 16 16 16 16 16 15 15 15 15 15 13 13 13 13 13 13 13 12 12 11 10 10 9 9 9 9 9 9 9 8
8 8 8 9 11 12 13 13 14 14 14 14 14 15 15 16 16 15 15 14 14 14 14 13 13 12 13 12 11 11 11 10 10 9 9 9 8 8 8 8 8 8 8
7 7 7 8 9 10 11 11 12 13 13 13 13 13 14 14 14 14 14 13 14 13 13 13 13 12 11 11 11 10 9 9 9 8 8 8 7 7 7 7 7 7 7
7 6 6 6 7 9 10 10 11 11 12 12 12 12 12 12 12 13 13 13 13 13 12 12 12 11 11 10 9 9 8 8 7 7 7 7 7 7 7 7 7 6 6
7 6 5 5 7 8 9 9 10 10 11 11 11 11 12 12 12 12 12 12 11 11 11 10 10 9 9 8 8 7 7 6 5 5 5 5 6 6 6 6 6 6 5
7 6 5 5 6 7 8 9 9 9 10 10 11 11 11 11 11 11 11 10 10 10 9 9 8 8 7 7 6 6 5 5 4 4 4 5 5 5 5 5 4 4 4
6 6 5 5 5 6 6 7 8 8 9 9 10 10 10 11 10 10 10 9 9 9 8 8 8 7 7 6 5 5 4 4 5 3 3 3 3 3 3 3 4 3 3
5 5 4 4 5 5 5 6 6 7 8 8 9 9 10 10 10 9 9 8 8 8 7 7 6 6 5 5 4 4 4 3 4 3 2 2 2 2 2 2 2 2 2
4 4 4 4 4 4 5 5 5 6 7 7 8 8 8 9 9 8 8 7 7 7 7 6 5 5 5 4 4 3 3 2 3 3 2 2 2 1 1 1 1 1 1
3 4 4 4 4 4 4 4 4 5 6 7 7 7 7 8 8 7 7 7 6 6 6 5 5 4 4 4 3 2 2 2 2 2 1 1 1 1 0 0 0 -0 -0
4 4 4 4 4 4 4 3 3 4 5 6 6 6 6 7 8 8 7 7 6 6 5 4 4 4 4 3 2 2 2 1 1 1 1 1 1 1 -0 -0 -0 -1 -1
3 4 3 3 4 4 3 3 3 3 4 5 6 6 6 6 7 8 7 6 5 5 4 3 2 1 2 3 2 2 1 1 1 0 0 0 0 0 -0 -1 -1 -1 -1
3 3 3 3 3 3 3 2 2 4 4 4 5 5 6 5 5 6 6 5 4 3 2 2 2 1 1 1 2 2 1 1 1 0 0 0 0 -1 -0 -1 -1 -1 -1
3 3 3 3 2 2 2 1 1 2 3 4 5 5 5 5 5 5 5 3 3 2 1 2 1 1 1 1 1 1 1 0 1 1 1 0 0 -1 -0 -1 -1 -2 -2
2 1 2 1 1 1 1 0 0 1 2 3 4 4 4 4 4 4 4 3 2 1 1 1 1 1 1 1 1 1 1 1 -0 0 0 -0 -0 -0 -1 -1 -1 -2 -2
1 2 0 -1 -1 -1 -0 1 1 1 1 2 3 4 4 3 3 3 3 3 3 3 3 2 2 1 1 1 2 2 1 1 0 -0 -0 -1 -1 -1 -1 -1 -1 -2 -2
1 1 1 0 -1 -2 -1 -0 0 1 0 1 2 2 3 3 3 2 2 2 3 3 3 3 3 2 2 1 2 2 1 1 -0 -1 -1 -1 -1 -1 -1 -2 -1 -2 -2

GFSMW_925_temp_081.txt.gz
Temp
14 14 14 16 17 18 17 17 17 17 18 19 19 18 16 18 18 18 17 18 18 18 19 19 19 18 18 18 18 18 18 18 18 18 18 19 19 19 18 18 18 18 18
15 13 13 14 16 17 18 18 19 19 18 18 17 16 18 19 17 18 18 19 18 18 17 18 19 19 18 18 18 18 17 18 18 18 17 18 18 17 18 18 17 17 17
15 15 15 14 15 17 16 19 20 18 18 18 18 16 16 16 17 17 18 19 19 17 16 16 16 17 17 17 18 18 17 18 18 18 18 17 17 15 16 16 16 16 16
15 15 15 16 16 17 18 18 19 19 18 19 17 16 16 16 16 17 17 16 17 16 16 15 15 15 15 15 15 16 18 18 18 16 16 17 16 17 17 15 14 15 15
15 15 15 16 17 17 18 19 20 21 20 19 18 19 17 16 15 15 16 16 16 16 16 16 16 15 15 14 14 16 16 17 17 15 15 14 14 13 13 15 14 13 14
15 15 15 15 15 16 16 17 18 18 18 20 20 20 20 16 16 16 15 17 17 16 15 16 17 16 16 16 14 15 16 15 15 15 15 14 13 13 12 12 13 12 12
14 14 14 13 13 14 15 15 16 16 17 17 17 18 19 18 19 18 18 18 17 16 15 17 16 16 17 16 15 15 14 15 14 14 14 14 13 12 11 11 11 11 11
10 11 11 11 11 12 13 15 15 15 16 16 17 17 17 17 16 15 16 17 18 18 18 17 16 16 16 14 15 15 15 14 14 14 14 13 12 11 11 10 11 11 11
10 10 10 9 10 11 12 13 14 14 14 15 15 16 17 17 17 17 16 16 17 16 16 15 15 15 15 14 13 13 14 14 14 13 12 12 11 11 10 10 10 11 11
10 9 9 8 9 10 11 12 13 13 13 14 15 15 15 15 16 16 16 16 16 16 15 15 15 14 13 13 13 13 12 12 12 12 11 11 10 10 9 9 9 9 9
8 8 8 8 9 10 11 11 12 12 13 13 14 14 14 15 15 15 15 14 14 14 14 13 13 13 13 12 12 12 12 11 11 10 10 9 9 9 9 8 8 8 8
7 7 7 7 7 8 9 10 10 11 11 12 13 13 13 13 13 14 14 14 13 13 13 13 12 12 12 12 11 11 10 10 9 9 8 8 8 8 8 7 7 7 7
8 7 7 6 6 7 8 8 9 10 10 11 11 12 12 12 13 13 13 13 12 12 11 11 11 11 10 10 10 9 9 8 8 8 7 7 7 7 7 7 7 7 6
7 7 6 6 5 6 6 7 8 8 9 10 10 10 11 11 11 11 11 11 11 11 11 10 10 10 10 9 9 8 8 7 7 6 6 6 6 6 6 6 6 6 5
7 6 6 5 5 5 6 6 7 7 7 8 9 10 10 10 10 10 10 11 10 10 10 10 9 9 8 8 8 7 7 6 6 5 5 5 5 5 5 5 5 5 4
6 5 5 5 4 4 4 5 6 7 7 8 8 8 9 9 9 9 9 9 9 9 9 9 9 8 8 7 7 6 6 5 5 4 4 4 4 4 4 3 3 4 3
5 5 4 4 3 3 4 4 4 6 6 7 8 8 8 8 9 9 9 9 8 8 8 8 8 7 6 6 6 5 5 5 4 4 4 3 3 3 2 2 2 2 2
4 4 3 3 3 4 4 4 4 5 5 6 6 7 7 7 7 7 8 8 7 7 7 7 7 6 6 5 5 4 3 3 3 3 3 3 2 2 2 1 1 1 1
3 3 3 3 3 4 3 3 4 4 4 4 4 5 6 6 6 7 7 7 7 7 7 7 6 6 5 5 4 3 2 2 2 2 2 2 2 1 1 1 1 0 0
3 3 3 3 3 3 3 3 3 3 3 3 4 5 5 5 5 6 7 7 6 7 6 5 5 5 4 4 3 2 2 2 2 1 1 1 1 1 0 1 0 -0 -0
3 3 3 2 2 2 2 2 1 1 2 3 4 5 5 5 5 5 5 6 6 5 5 5 5 4 4 3 2 2 2 1 1 1 1 1 1 1 0 -0 -0 -0 -0
2 2 1 1 1 1 1 0 0 0 1 1 2 4 5 5 4 4 4 5 5 4 3 2 2 2 2 2 2 2 2 1 1 1 1 1 1 -0 -0 -1 -0 -1 -1
1 2 1 1 1 0 -0 -0 0 0 0 1 1 2 3 4 4 3 3 3 3 2 1 1 1 2 2 1 1 2 2 1 1 1 1 0 0 0 -0 -0 -1 -1 -1
1 1 1 0 -0 -0 -0 -0 -0 -0 1 1 1 1 2 3 4 3 3 2 2 1 1 1 1 2 2 2 1 1 2 2 1 1 0 0 0 -0 -0 -0 -1 -1 -1
1 1 1 0 0 0 -0 -0 -1 -1 0 -0 -0 0 1 2 3 3 3 2 2 3 2 2 2 2 1 2 2 1 1 1 1 0 -0 -1 -1 -1 -1 -1 -1 -1 -2
-0 -0 -0 -0 0 -0 -0 -1 -1 -1 -1 -1 -1 -1 -0 1 2 2 2 3 3 2 2 2 3 3 3 3 2 1 1 1 1 -1 -1 -1 -1 -2 -2 -1 -1 -1 -2

GFSMW_925_temp_084.txt.gz
Temp
13 14 14 15 17 17 18 18 18 18 17 16 16 16 17 17 16 16 17 17 17 17 17 18 18 18 18 18 18 18 18 18 18 18 19 20 20 20 20 19 19 18 18
13 13 13 14 14 16 17 18 17 17 18 18 17 17 17 17 17 17 16 16 16 17 17 17 18 18 17 18 18 18 18 19 18 19 19 21 21 19 19 19 18 18 17
15 12 13 13 14 14 15 16 17 17 17 17 17 17 16 16 16 16 16 16 16 16 16 16 15 16 16 16 17 18 18 18 17 18 20 20 20 20 19 18 17 17 17
16 14 13 12 15 14 15 14 15 16 16 16 16 16 16 16 16 17 16 16 16 16 16 16 16 16 15 15 15 16 15 17 18 17 18 18 19 19 19 17 16 16 16
14 14 14 12 12 14 15 16 16 16 16 16 15 16 16 15 16 15 15 15 16 16 16 16 16 16 15 15 15 15 14 15 15 16 17 17 16 15 16 18 18 15 15
14 12 13 14 13 14 14 15 15 17 17 16 16 15 15 15 15 14 15 15 15 15 15 16 16 15 15 15 15 16 14 14 15 15 15 14 16 16 15 15 17 16 15
12 12 12 12 12 12 13 14 15 15 15 15 18 17 17 16 15 15 15 16 15 15 16 16 15 15 15 15 16 16 16 15 14 14 14 14 14 14 14 14 15 14 14
11 9 11 12 12 12 13 13 14 14 15 14 14 14 15 15 14 15 15 15 15 16 16 16 15 15 14 16 16 16 15 14 14 13 13 12 12 12 12 13 14 14 13
10 9 11 11 12 12 12 13 14 13 13 14 14 15 15 14 14 15 15 15 15 15 14 14 14 14 15 15 14 14 14 14 13 13 13 12 12 11 10 11 11 12 13
11 9 10 11 11 11 12 12 12 12 12 12 13 14 14 15 15 15 15 15 14 14 14 14 14 14 14 13 13 13 12 13 12 13 12 11 10 10 9 9 10 10 12
10 11 11 11 11 11 11 11 11 12 12 11 12 12 12 13 14 14 13 14 14 14 13 13 13 13 13 13 13 13 13 12 12 11 10 10 10 9 9 9 8 8 9
10 11 11 11 11 10 10 10 10 10 10 10 11 11 11 12 12 13 13 13 12 12 12 13 13 12 12 12 12 12 12 11 10 10 10 9 8 9 9 9 8 8 8
11 11 11 11 10 10 9 10 9 9 9 9 10 11 11 11 11 11 12 13 12 12 11 11 11 11 12 11 11 11 11 10 9 9 8 8 8 8 7 7 7 7 7
11 11 11 10 10 9 9 9 9 8 8 9 10 10 10 10 10 10 11 11 11 11 10 10 10 10 10 10 10 10 9 9 8 8 8 7 7 7 7 7 7 6 6
11 10 10 10 9 9 8 8 7 7 7 8 8 9 9 9 9 10 9 10 10 10 10 10 10 10 10 9 9 9 8 7 6 7 6 6 5 6 6 5 5 5 5
10 9 9 9 8 8 7 7 6 6 6 7 8 7 8 8 8 9 9 10 10 9 9 9 9 8 8 9 9 8 6 6 6 6 5 4 5 5 5 5 5 4 4
9 9 9 8 7 7 6 6 5 6 6 6 7 6 7 7 7 7 7 8 8 8 8 7 7 7 7 8 7 7 5 5 5 4 4 3 3 3 3 3 3 3 3
8 8 7 7 6 6 5 5 5 5 5 6 6 6 6 6 6 6 7 7 6 6 7 6 6 6 6 7 6 5 4 4 4 4 4 4 3 3 3 2 2 1 1
7 6 6 5 5 5 4 4 5 5 5 5 5 5 5 5 5 6 6 6 5 5 5 6 6 5 5 5 4 4 3 2 3 3 3 2 2 3 2 2 1 1 0
6 5 5 5 5 4 4 4 4 4 4 4 4 4 4 4 4 5 5 5 5 5 5 5 5 5 5 5 4 3 3 2 1 2 2 2 2 2 2 1 1 1 1
5 4 4 4 4 3 3 3 3 3 2 2 2 3 4 4 4 4 4 3 4 4 5 5 5 5 5 4 4 3 2 2 1 1 1 1 1 1 0 0 1 1 1
4 4 4 3 3 2 2 2 3 2 2 2 2 2 3 3 3 3 4 3 3 3 3 2 2 3 3 3 4 3 3 2 1 1 1 1 1 1 0 0 -0 0 -0
4 4 3 3 3 2 2 2 2 1 2 2 2 2 2 3 3 3 3 3 3 3 3 2 2 2 2 2 3 2 3 2 2 1 1 1 1 0 -0 0 -0 -1 -1
4 3 3 3 3 3 2 2 1 1 1 2 2 2 1 1 3 2 2 2 2 2 2 2 2 2 2 2 2 2 2 3 2 1 1 1 0 -0 0 0 -1 -1 -1
2 2 2 2 2 2 2 2 1 1 1 1 1 1 1 1 1 1 2 1 2 2 2 2 2 2 1 3 3 2 2 2 2 1 0 -1 -0 0 0 0 0 -0 -1
2 2 2 1 1 1 1 1 1 0 0 0 1 1 0 1 0 -0 1 1 2 2 2 2 2 2 3 3 3 3 2 1 1 -0 -1 -1 -0 -0 0 -0 -0 -1 -1

GFSMW_925_temp_087.txt.gz
Temp
18 16 19 19 18 16 17 18 17 16 17 17 16 16 17 18 18 17 17 17 17 18 18 18 19 19 19 19 19 19 19 19 20 20 20 20 21 21 21 21 20 20 19
17 15 14 14 13 14 16 17 17 16 16 17 17 17 17 17 17 17 17 17 17 17 17 18 18 19 19 19 19 19 19 19 19 19 20 20 20 21 20 20 20 19 19
17 14 14 13 13 14 14 16 16 16 16 15 16 16 18 18 17 17 17 17 17 18 17 17 17 18 18 17 17 18 19 19 19 19 20 20 20 21 20 20 19 18 18
16 14 14 13 13 14 13 14 15 15 15 15 15 15 15 16 17 17 16 16 17 17 17 17 16 16 16 16 16 16 16 17 17 17 18 19 19 20 20 18 18 17 17
15 14 13 13 13 13 14 14 13 14 15 15 15 15 15 15 15 15 15 16 16 16 16 16 15 15 15 15 15 15 16 15 15 16 15 15 16 16 17 18 19 16 16
13 12 12 13 12 12 12 13 13 14 14 14 15 14 15 14 15 14 15 16 16 16 16 15 15 15 16 16 15 15 15 15 15 14 14 15 14 14 14 14 16 17 17
12 10 11 12 11 10 11 12 13 14 14 14 14 15 15 15 16 16 15 18 15 18 15 15 15 15 15 16 16 15 14 14 14 14 13 14 13 14 15 16 16 15 15
10 9 10 11 10 11 13 14 14 13 14 13 15 16 15 15 15 16 15 15 15 18 16 15 14 14 15 16 15 14 14 14 14 13 13 13 14 14 14 14 14 14 14
9 10 9 11 11 12 13 14 14 13 13 13 14 13 15 15 16 16 14 14 15 15 15 15 15 16 15 14 15 14 14 14 14 14 13 13 13 13 13 12 13 13 13
9 9 9 9 12 12 13 12 13 13 12 13 13 13 13 14 14 14 15 15 15 15 15 15 14 14 14 14 14 13 13 13 12 12 13 13 13 12 12 11 11 11 12
9 10 9 8 10 12 12 12 12 11 12 12 12 12 12 13 13 13 14 14 14 14 14 14 14 14 14 14 13 13 12 12 12 12 13 12 11 11 10 10 10 10 10
9 10 12 12 12 12 12 12 11 11 11 11 12 12 12 12 12 13 12 12 13 13 13 13 13 13 13 13 12 12 12 12 12 12 12 11 10 10 10 10 9 9 9
12 13 12 12 11 11 11 11 11 10 10 11 11 12 12 12 12 12 11 11 11 12 12 12 11 11 11 11 11 11 11 11 12 11 11 10 10 9 9 9 9 8 8
12 12 12 12 11 11 10 10 10 9 9 10 10 11 10 11 11 11 11 11 11 10 10 11 11 11 10 10 10 11 10 10 10 10 10 9 9 9 9 8 8 8 8
12 12 11 11 11 10 10 9 9 9 8 9 10 9 9 10 10 10 10 10 10 10 10 9 9 10 10 10 10 9 9 9 9 9 9 8 8 7 8 8 7 7 6
12 11 11 10 10 9 9 8 8 8 8 8 9 9 9 9 9 9 10 10 9 9 9 9 9 8 8 9 9 9 9 8 7 7 7 6 6 6 6 6 6 5 5
11 11 10 10 9 8 8 7 7 7 7 7 8 8 8 7 8 8 9 9 9 9 8 8 8 8 8 9 9 8 8 7 7 7 6 5 5 4 4 4 5 5 4
10 10 9 9 8 8 7 6 6 7 7 7 7 7 6 6 6 7 7 8 8 8 8 8 8 8 7 8 8 7 6 6 6 5 5 4 4 4 3 3 3 3 3
9 8 8 7 7 7 6 6 6 6 6 6 6 5 5 6 6 6 6 6 7 7 7 7 7 7 7 7 6 6 5 5 5 4 4 4 3 3 3 3 2 2 2
8 7 7 7 7 7 5 5 6 5 5 4 4 4 4 5 5 5 5 4 5 6 6 6 6 6 6 6 5 5 4 3 3 3 3 2 3 2 3 2 2 2 2
7 6 6 6 6 5 4 4 4 5 4 4 4 3 3 4 4 4 4 4 4 4 5 5 5 5 5 5 5 4 4 3 2 2 3 2 2 2 1 2 1 2 2
7 6 6 6 5 5 4 4 4 4 3 3 3 4 3 3 4 4 4 4 4 3 4 4 4 4 4 4 4 4 3 3 2 2 2 2 1 1 1 1 1 1 1
6 6 6 5 5 5 4 4 4 4 3 3 3 4 4 3 3 3 4 3 3 3 4 4 4 3 3 4 4 3 3 3 2 2 2 2 2 1 1 1 0 -0 0
6 5 5 5 5 5 5 4 4 3 3 3 3 3 3 3 3 3 2 2 2 2 2 2 2 3 3 3 3 3 3 3 2 3 2 1 1 1 1 0 0 -0 -0
5 4 4 4 4 4 4 4 3 3 3 2 2 3 3 3 2 2 1 1 1 1 2 2 2 2 2 2 3 3 2 3 3 2 2 0 -0 0 0 0 -0 -0 -0
4 4 4 3 3 3 3 3 3 2 2 2 2 2 2 2 1 2 2 0 -0 0 1 1 2 2 2 2 2 2 3 3 2 0 -0 -1 -0 0 0 1 0 -0 -0

GFSMW_925_temp_090.txt.gz
Temp
15 16 17 19 19 17 16 16 17 16 16 16 17 18 18 18 19 19 18 18 18 19 18 18 19 19 19 19 19 19 19 19 19 20 20 20 20 20 20 20 20 20 19
15 15 15 15 15 14 15 15 15 16 16 16 16 18 19 18 19 19 18 18 19 18 18 18 18 19 19 19 19 19 19 19 19 19 19 17 19 20 20 20 20 19 18
16 15 14 13 14 15 16 15 15 15 16 16 16 17 18 17 18 18 18 18 18 18 18 18 18 18 18 18 18 18 18 18 19 19 18 16 16 18 20 20 19 19 18
16 14 14 13 13 14 15 16 14 15 15 16 16 15 16 15 17 18 18 17 17 17 18 18 18 18 18 18 17 16 16 16 17 17 18 16 17 17 16 18 18 18 18
14 14 14 14 13 13 14 14 13 13 14 14 14 14 14 14 14 15 16 16 17 17 17 17 18 18 18 17 16 16 16 16 15 16 15 15 15 15 15 15 16 17 17
11 11 12 12 11 12 12 13 13 13 13 14 14 14 14 14 14 14 14 15 15 16 16 17 17 17 17 16 16 16 16 16 15 14 15 14 13 13 13 13 13 14 17
10 10 9 10 10 10 11 13 12 12 13 14 14 14 14 14 14 14 15 15 15 14 15 17 16 16 16 15 15 15 14 16 16 15 15 13 13 14 14 14 13 14 15
9 9 9 9 9 10 11 12 12 12 12 12 13 14 14 14 14 13 14 14 14 15 16 15 15 16 17 16 14 14 14 14 15 14 14 13 13 13 13 14 14 12 13
8 8 8 8 9 10 11 12 12 11 12 12 12 13 14 14 15 16 15 14 14 14 15 15 16 17 16 15 14 14 14 15 14 14 14 13 14 13 13 14 14 14 11
8 8 8 8 9 10 12 12 12 12 12 12 13 13 13 13 13 15 16 15 16 16 16 18 17 16 16 14 13 14 14 14 13 13 13 13 13 13 13 13 13 13 12
8 8 8 8 10 11 12 11 11 11 11 12 12 12 13 13 13 14 14 14 14 14 14 15 15 15 14 14 14 14 14 13 13 13 13 13 13 13 12 12 12 12 11
7 8 9 9 9 11 11 11 10 10 10 11 12 12 12 12 13 13 13 13 13 13 14 14 14 14 14 14 14 14 13 13 13 12 12 12 12 12 12 11 11 10 10
9 11 10 10 10 10 10 10 9 9 9 10 11 11 11 11 11 12 12 12 12 13 12 12 12 13 13 13 13 13 13 13 12 12 12 12 11 11 10 10 10 9 9
11 10 10 10 10 10 9 9 9 8 8 9 10 10 9 10 10 10 11 11 11 11 11 11 11 11 11 11 12 12 11 11 11 11 11 11 11 11 10 10 9 9 8
10 9 9 8 9 9 9 8 8 8 8 8 9 8 8 9 9 9 9 10 10 10 10 10 10 11 11 11 11 10 11 10 10 10 10 10 9 9 9 9 8 8 8
10 10 9 9 8 8 8 7 7 7 7 7 8 8 8 7 7 8 8 9 9 9 9 10 9 10 10 10 9 9 9 9 9 9 9 8 8 8 8 8 8 7 7
10 9 8 8 8 8 7 6 6 7 7 7 7 7 6 6 6 6 7 7 8 8 9 9 9 9 9 9 9 8 8 8 8 8 8 7 7 7 7 7 6 6 6
9 8 8 8 7 7 7 6 6 6 6 6 6 5 5 5 5 5 5 5 6 7 8 8 8 8 8 8 8 8 8 8 8 7 7 7 6 6 5 5 5 5 5
8 8 8 7 7 7 6 5 5 5 5 5 4 4 4 4 4 4 4 4 4 5 6 7 7 7 8 8 7 7 6 7 7 6 6 6 5 5 3 3 3 3 3
8 7 7 7 7 6 5 4 4 4 4 4 3 4 3 3 4 4 4 4 4 4 4 5 6 6 6 7 7 6 6 6 5 5 5 5 4 4 3 3 3 2 2
7 6 6 6 6 5 5 4 4 4 4 4 3 3 3 4 3 3 4 4 4 4 4 4 5 5 5 5 6 6 5 5 3 4 4 4 3 3 3 2 3 3 3
7 7 6 6 5 5 5 4 4 4 4 3 3 3 3 4 3 3 3 3 3 3 3 3 4 4 4 4 5 5 4 4 4 4 4 3 3 2 2 2 3 2 2
6 6 5 5 5 5 5 4 4 4 4 3 3 3 3 3 3 3 3 2 2 2 2 2 3 3 4 4 4 4 4 4 3 4 4 3 2 2 2 2 2 1 1
5 5 4 4 4 4 4 4 4 4 3 3 3 2 2 2 3 2 2 2 1 1 1 2 1 2 2 3 3 3 4 4 3 3 3 3 2 2 1 2 1 1 1
5 4 4 3 3 3 3 3 3 3 3 3 2 2 2 2 2 1 1 1 1 0 0 0 0 1 2 2 2 2 3 3 3 2 2 1 1 1 1 1 1 0 0
4 3 3 3 3 3 2 2 2 2 2 2 2 2 1 1 1 0 0 0 -0 -0 -0 -0 -0 0 1 2 2 2 2 3 3 2 1 0 0 0 0 -0 -1 -0 -0

GFSMW_925_temp_093.txt.gz
Temp
16 16 16 19 18 19 17 17 16 16 16 16 16 15 15 17 18 18 18 17 19 19 19 19 19 19 19 19 19 19 19 19 19 19 19 20 20 20 20 20 20 19 19
14 14 14 16 18 18 17 16 15 15 16 16 16 16 16 17 18 18 18 17 18 18 19 18 18 19 19 19 19 19 19 19 19 19 18 16 18 20 20 20 19 19 19
13 13 13 13 13 15 16 16 16 16 16 16 16 15 15 16 18 18 18 17 17 18 18 18 18 18 19 19 19 19 18 19 19 19 18 15 16 16 19 19 19 19 18
12 12 13 13 12 13 14 14 16 16 15 15 15 15 14 15 16 17 16 19 19 17 18 18 19 18 18 18 18 18 18 18 17 17 17 16 15 15 15 17 17 18 18
10 11 12 14 13 13 12 12 13 14 14 14 15 14 14 14 15 15 15 16 18 18 19 18 18 19 19 19 19 18 16 18 16 16 16 16 15 15 13 14 15 17 17
9 9 10 10 10 11 12 13 12 12 13 13 14 14 14 14 14 14 14 14 15 15 16 16 18 18 18 18 19 17 17 18 18 16 17 15 14 13 13 12 13 13 15
9 9 10 10 10 10 12 13 13 12 13 13 14 13 14 14 14 14 14 14 14 15 15 15 16 16 16 16 18 16 15 15 15 15 15 15 15 15 13 13 12 12 14
9 8 9 9 9 10 11 11 11 11 12 12 13 13 14 14 14 13 13 14 14 14 15 15 14 15 15 16 15 15 15 15 14 15 14 14 14 14 13 13 12 11 12
8 8 8 8 8 9 9 10 11 11 11 11 11 13 14 14 14 13 14 13 13 13 14 14 14 15 15 15 15 14 14 14 14 14 14 13 14 14 13 13 13 13 11
8 8 7 7 7 8 9 10 11 10 11 11 11 11 12 13 14 14 13 13 14 14 14 14 15 16 16 15 15 14 15 13 13 13 13 13 14 14 13 13 13 14 14
8 7 7 7 7 9 10 10 10 10 11 11 11 11 12 12 12 13 12 12 12 13 13 13 14 15 14 14 14 14 13 14 13 13 13 13 13 13 13 13 12 13 13
7 7 7 7 9 9 9 9 9 9 9 10 10 10 11 11 11 11 12 12 12 12 12 13 13 14 14 14 14 14 13 13 13 13 13 13 13 13 13 12 12 12 12
7 8 9 9 9 9 8 8 8 8 9 9 10 10 10 10 10 10 10 11 11 11 12 12 12 12 13 13 13 14 13 13 13 13 13 13 12 12 12 12 12 11 11
8 8 7 8 8 8 8 8 8 8 8 8 8 8 8 8 9 9 9 10 10 10 11 11 11 11 11 12 12 12 13 12 12 13 12 12 11 11 11 11 11 10 10
8 8 7 6 7 7 7 7 7 7 7 7 7 7 7 7 8 8 8 8 9 9 9 10 10 10 10 11 11 11 11 11 11 11 10 11 11 11 11 11 10 10 9
8 8 7 7 7 7 7 7 6 6 7 7 7 6 6 6 6 6 6 7 7 7 8 8 9 9 9 10 10 10 10 10 10 10 10 10 10 10 10 10 10 9 9
8 7 6 6 7 7 7 6 6 6 6 6 5 5 5 5 5 5 5 5 5 5 6 7 8 8 8 9 9 9 9 9 9 9 9 9 9 9 9 8 8 8 8
7 6 6 7 7 7 6 6 5 5 5 5 5 5 4 4 4 4 4 4 4 4 4 5 6 7 8 8 8 8 8 8 8 8 8 8 8 7 7 7 6 6 6
7 7 6 6 6 6 5 5 5 4 4 4 4 4 3 3 3 3 3 3 4 4 4 4 5 6 6 7 7 7 7 7 7 7 7 7 7 7 6 6 5 5 5
6 6 6 6 6 5 5 4 4 4 4 4 4 3 3 3 3 3 3 3 3 4 4 4 4 5 5 6 6 6 6 6 6 6 6 6 6 6 5 4 4 3 3
7 7 6 6 6 6 5 5 4 4 4 4 3 3 3 3 3 3 3 3 3 3 3 3 3 3 4 5 5 5 5 5 5 4 4 5 5 4 4 3 3 4 4
6 6 5 5 5 5 5 4 4 4 4 4 4 3 3 2 2 2 2 2 2 2 2 2 2 2 3 3 4 4 5 5 4 3 4 5 5 4 3 3 3 3 3
5 5 5 4 4 4 4 3 3 3 3 3 3 3 3 2 2 2 2 2 1 1 1 1 1 1 2 2 2 3 4 4 4 4 4 4 4 3 3 3 2 2 2
4 4 4 3 3 3 3 3 2 2 2 2 2 2 2 2 2 1 1 1 1 0 0 -0 -0 -0 0 1 1 2 2 3 4 4 3 3 3 3 3 2 2 1 2
4 3 3 2 2 2 2 2 2 2 1 1 1 2 2 1 1 1 0 -0 -0 0 -0 -0 -0 -1 -0 -0 1 2 2 2 2 4 2 2 2 2 2 1 2 1 1
2 2 2 2 2 2 2 1 1 1 1 0 0 1 1 1 1 -0 -1 -1 -2 -1 -1 -1 -1 -1 -1 -0 -0 0 1 2 2 2 1 1 1 1 0 0 0 0 0

GFSMW_925_temp_096.txt.gz
Temp
14 15 16 17 18 17 18 18 17 17 16 14 14 14 14 15 16 16 17 16 17 18 17 18 18 18 18 18 18 19 19 19 19 19 19 19 19 19 20 20 20 20 20
12 13 15 16 15 17 16 17 17 16 15 15 15 15 15 15 15 16 16 17 17 18 18 18 18 18 18 18 19 19 18 19 19 18 17 16 18 19 19 19 20 20 19
13 12 12 13 13 13 14 14 16 17 18 16 15 14 15 15 15 15 15 15 16 17 18 18 18 18 19 19 18 18 18 18 18 18 18 15 15 16 18 19 19 19 18
12 11 11 12 12 12 13 13 14 14 15 16 15 15 15 15 16 16 15 15 16 17 18 18 18 18 18 18 18 18 18 18 17 16 17 18 17 14 15 16 16 17 17
10 11 12 12 12 13 12 14 13 13 14 14 14 14 14 16 15 14 14 15 15 15 16 16 17 18 17 17 18 18 17 18 17 17 15 15 14 15 14 14 14 15 14
9 9 10 11 10 12 12 13 14 13 14 13 14 14 14 14 14 14 14 15 14 14 15 15 15 15 16 16 17 18 18 17 18 17 18 17 15 13 13 12 12 14 15
9 9 9 9 9 10 11 12 12 12 12 12 13 13 14 14 14 14 14 14 14 14 14 14 14 15 15 15 15 16 17 17 16 16 15 15 16 16 15 15 13 12 12
9 8 8 8 8 9 10 10 11 11 11 11 11 12 12 13 14 14 14 14 14 14 14 13 13 14 14 14 14 15 16 16 16 15 14 15 15 15 16 15 14 11 11
8 8 8 7 7 8 8 9 9 10 10 10 11 11 11 13 13 13 13 13 13 13 13 13 14 14 14 14 14 14 15 15 14 14 14 14 15 15 14 13 14 14 11
8 7 7 6 6 6 6 7 7 8 9 10 10 10 10 10 11 11 12 13 13 13 13 13 13 13 13 13 13 13 14 14 14 13 13 14 14 14 13 13 12 13 13
7 7 6 5 5 6 6 7 7 9 9 9 10 10 9 10 10 10 11 11 11 11 12 12 13 13 13 14 14 14 14 14 14 13 13 13 13 13 13 12 13 13 13
6 6 6 5 5 6 6 8 8 8 9 9 10 9 9 10 10 10 10 10 11 11 11 12 12 12 13 13 14 13 13 13 13 13 13 13 13 13 13 12 12 12 12
7 6 6 7 7 7 7 7 7 7 8 8 9 8 8 8 8 8 9 9 9 10 10 11 11 11 12 12 13 13 13 13 13 13 13 13 13 12 12 12 12 12 11
8 7 7 6 6 7 7 6 7 7 7 7 7 7 7 7 7 7 7 8 8 8 8 9 9 10 10 11 11 12 12 13 13 13 13 13 12 12 12 11 11 11 11
7 6 6 5 6 6 6 6 6 6 6 6 6 5 5 5 6 6 6 6 7 7 7 8 8 8 9 10 10 11 11 11 11 12 12 12 12 12 11 12 10 10 10
7 7 6 6 5 6 6 6 6 6 6 6 5 5 5 5 5 5 5 5 5 5 5 6 6 7 8 8 8 9 9 10 10 10 10 10 11 11 10 10 11 11 10
8 7 5 5 5 6 6 5 5 5 5 5 5 5 5 5 4 4 4 4 4 4 4 4 5 5 6 7 7 8 8 8 9 9 9 9 9 9 9 9 10 10 10
7 6 5 6 6 6 6 5 5 5 5 5 5 4 4 4 4 4 4 4 3 3 3 4 4 4 5 6 6 6 7 7 7 8 8 8 9 9 8 9 8 8 8
6 6 6 5 6 5 5 5 5 4 4 4 4 4 4 3 3 3 3 3 3 3 3 3 3 3 3 4 5 5 6 6 7 7 7 7 8 8 7 7 8 7 7
6 6 6 5 5 5 4 4 4 4 4 4 3 3 3 3 3 3 3 3 3 2 2 2 2 3 3 3 4 4 4 5 5 6 6 6 6 7 7 6 6 5 6
6 6 6 5 5 5 4 3 3 2 3 3 3 3 3 2 2 2 2 2 2 2 2 2 2 2 2 3 3 3 4 4 4 5 5 6 6 6 6 6 6 6 6
6 6 5 5 5 5 4 3 3 3 3 3 3 2 2 2 2 2 2 2 1 1 1 1 1 0 1 1 2 2 2 3 4 4 4 5 5 5 4 4 5 4 4
4 5 4 4 4 4 3 2 3 2 2 2 2 2 2 2 2 1 1 1 1 0 -0 -0 -1 -1 -1 -0 -0 1 1 2 2 3 4 4 4 4 4 4 3 3 2
3 4 3 2 2 3 2 2 2 1 1 1 0 0 0 1 1 1 1 0 -0 -0 -1 -1 -0 -1 -0 -1 -1 -0 0 1 2 2 3 3 4 3 3 3 3 2 2
3 2 2 1 1 2 1 2 1 1 0 -0 -0 -0 -1 -1 -0 1 0 -0 -1 -1 -1 -2 -1 -0 -1 -1 -1 -1 -0 -0 0 2 2 2 2 2 3 3 3 2 1
2 1 1 1 1 1 0 0 -1 -1 -1 -2 -2 -2 -1 -2 -1 -1 -0 -0 -1 -2 -2 -2 -1 -1 -1 -1 -1 -1 -1 -1 0 1 2 1 1 2 1 1 1 1 1

GFSMW_925_temp_099.txt.gz
Temp
11 13 14 15 16 17 18 17 16 17 16 15 14 14 15 16 17 16 16 16 16 16 15 15 16 17 17 17 16 17 16 17 17 17 18 18 18 19 19 19 19 19 19
10 10 13 15 16 17 17 16 16 17 16 16 16 15 14 14 15 16 17 17 17 16 16 16 16 17 17 16 17 17 16 17 17 17 16 15 17 18 19 19 19 19 19
10 10 11 12 12 13 13 14 15 15 16 17 17 16 14 14 15 14 15 16 16 15 16 16 15 15 16 17 18 17 16 17 17 18 17 14 15 15 18 19 18 19 19
9 10 11 11 11 12 13 13 13 14 14 15 14 14 14 14 15 16 16 16 16 15 15 15 15 15 17 17 17 17 18 17 16 16 18 17 17 15 15 16 17 18 17
10 12 11 12 11 12 13 13 13 14 14 14 14 14 14 13 14 14 15 15 15 16 15 14 14 15 17 17 17 17 17 17 17 17 16 15 15 15 14 14 13 14 16
10 10 10 10 11 11 12 13 13 13 13 13 13 13 14 14 14 14 14 14 14 14 14 15 14 15 16 16 16 17 16 15 15 16 16 16 15 14 13 13 13 14 15
9 9 9 9 9 10 11 11 12 11 12 12 12 13 12 13 14 14 14 14 14 14 14 15 14 14 14 14 14 14 15 14 14 15 15 15 15 16 15 15 14 12 12
8 8 8 7 7 7 8 9 10 10 10 10 11 11 11 13 13 13 13 14 14 14 14 14 14 14 14 14 14 14 14 14 14 14 15 15 15 16 15 15 14 11 10
8 7 7 6 6 6 6 7 8 9 9 9 9 10 10 10 10 12 12 12 13 13 13 13 13 13 14 14 13 14 14 14 15 13 14 14 15 15 14 13 14 15 14
7 7 6 6 5 5 5 7 6 7 8 8 9 9 9 10 10 10 10 10 11 12 12 12 12 13 13 13 13 13 13 13 13 13 13 14 13 13 14 13 13 13 14
7 6 6 5 5 5 6 6 6 7 7 8 8 8 8 8 9 9 9 10 10 10 10 11 12 12 13 13 13 13 13 13 13 13 13 13 13 13 13 13 13 12 12
6 6 5 5 5 4 5 5 6 7 8 8 8 8 8 8 9 8 8 8 9 9 9 10 10 11 12 12 13 13 13 13 13 13 13 13 13 13 13 12 12 12 12
6 6 5 5 5 5 5 6 6 6 7 7 7 7 7 7 7 7 7 7 8 8 8 9 9 10 10 11 11 12 12 13 13 13 13 13 13 12 12 13 12 12 12
7 7 6 5 5 6 5 6 6 6 6 6 6 6 6 6 6 6 6 6 6 7 7 7 7 8 9 9 9 10 10 11 12 12 13 13 12 12 12 12 12 12 11
7 6 5 4 4 5 5 5 5 5 6 6 6 5 5 5 6 6 6 6 5 5 5 6 6 7 7 7 8 8 8 9 9 10 11 11 12 12 12 12 11 11 10
7 6 6 5 4 5 5 5 5 5 5 5 4 5 5 5 4 4 4 4 4 4 5 5 4 4 5 6 6 6 7 7 8 8 9 10 10 11 11 11 12 11 10
7 6 5 4 5 5 5 4 5 5 4 4 4 3 3 3 3 3 3 3 3 3 3 3 3 4 4 4 5 6 6 6 7 7 7 8 9 9 9 10 10 10 10
7 5 4 4 5 5 5 5 5 5 4 4 4 4 4 4 3 3 3 3 3 2 2 2 2 3 3 3 3 4 5 5 6 6 7 7 7 8 8 8 8 8 8
5 5 5 5 5 5 5 4 4 4 3 3 3 3 3 3 3 2 2 2 2 2 2 2 2 2 2 2 2 3 4 4 5 6 6 6 6 7 7 7 7 8 7
6 5 5 5 4 4 4 3 2 2 2 2 2 2 2 2 2 2 2 2 1 1 2 1 1 1 1 1 2 2 3 3 4 4 5 5 5 6 6 6 6 6 7
5 5 5 4 3 2 2 2 2 2 2 2 2 2 1 1 1 1 1 1 1 1 1 0 1 1 0 0 0 1 2 2 3 3 4 5 5 5 5 5 5 6 6
4 4 4 4 4 3 3 2 2 1 1 1 1 1 1 0 -0 -1 -0 0 0 0 0 0 -0 0 0 -1 -1 -0 0 1 2 2 2 3 4 4 5 4 5 5 5
3 4 3 2 3 2 2 1 1 1 1 1 0 0 -0 0 0 -0 -0 -1 -0 -0 -1 -1 -2 -2 -0 -1 -1 -1 -1 -0 0 1 1 2 3 3 4 4 4 4 3
2 2 2 1 1 2 1 1 -0 -1 -1 -1 -1 -1 -2 -2 -2 -2 -2 -2 -2 -1 -2 -2 -3 -2 -1 -1 -1 -1 -1 -1 -1 -1 -0 0 2 3 3 4 3 3 3
1 1 0 -0 -0 -0 -1 -1 -1 -2 -2 -3 -3 -3 -3 -3 -3 -3 -3 -2 -2 -1 -1 -2 -2 -2 -2 -1 -1 -1 -2 -2 -1 -1 -0 -0 1 2 2 3 3 3 2
-0 -1 -1 -2 -2 -2 -2 -2 -3 -3 -3 -4 -4 -4 -4 -4 -3 -3 -3 -2 -2 -2 -2 -2 -2 -2 -2 -1 -1 -1 -2 -2 -1 -1 -1 0 1 1 1 2 2 2 1

GFSMW_925_temp_102.txt.gz
Temp
10 12 13 14 15 15 16 18 17 16 15 15 14 14 14 16 16 16 15 16 16 15 15 15 15 16 15 16 15 16 16 17 17 15 16 17 17 18 19 19 19 19 19
8 10 12 13 14 15 16 17 17 16 15 15 15 14 14 14 16 16 15 16 16 16 15 15 15 16 16 16 16 16 15 16 16 16 15 15 17 18 18 19 18 19 19
8 8 10 12 13 13 14 16 16 15 15 15 15 14 14 14 14 16 16 17 17 16 16 16 16 16 16 17 17 17 15 15 16 16 17 14 14 15 17 18 19 19 19
7 8 10 11 12 12 13 13 14 14 14 14 14 14 14 13 14 15 16 16 15 16 15 15 16 15 15 15 15 16 15 15 15 14 16 18 17 14 15 15 16 18 18
10 10 11 11 11 11 12 13 13 13 13 14 14 14 13 13 13 13 14 15 15 15 14 15 15 14 14 14 14 14 15 15 16 16 16 15 16 15 14 14 14 16 17
9 9 9 9 9 10 11 11 12 12 12 13 12 13 13 13 13 14 13 14 15 15 15 15 15 14 14 14 14 14 14 14 14 15 16 16 16 14 14 12 13 13 16
9 8 8 8 7 7 9 9 10 10 11 11 11 11 12 12 13 13 14 13 14 14 14 14 14 14 14 14 14 14 14 14 14 14 15 15 16 16 15 14 13 13 15
7 7 7 6 6 6 7 7 8 9 9 10 10 10 10 10 11 12 13 12 12 13 13 13 14 14 14 14 14 14 14 14 14 14 14 14 14 14 14 15 14 13 11
7 6 6 6 5 5 5 6 7 8 8 8 8 9 9 9 8 9 9 9 10 11 12 12 13 13 13 13 14 13 13 14 13 13 13 13 13 13 13 14 14 14 14
7 6 6 5 5 5 5 6 6 6 7 7 7 7 7 8 7 7 8 9 9 10 10 10 10 12 12 13 13 13 13 13 13 14 13 13 13 13 14 13 13 13 14
7 6 6 5 5 4 5 5 6 6 6 6 6 7 7 7 7 7 7 7 8 9 9 9 9 10 10 11 12 13 13 13 13 13 13 13 14 13 13 13 13 13 13
6 6 6 5 4 4 4 4 5 5 5 6 6 6 6 6 6 6 7 7 7 8 8 9 8 9 9 9 10 11 11 13 13 13 13 13 13 13 13 13 12 12 12
7 6 6 5 4 4 4 5 5 5 6 6 6 6 6 6 6 6 6 6 6 6 6 7 7 7 8 8 9 8 9 10 11 12 12 12 13 12 12 12 12 12 12
7 6 6 5 5 4 5 5 5 5 5 5 5 5 5 5 4 4 5 4 4 5 5 5 5 6 6 6 7 7 8 8 9 9 10 11 11 12 12 12 12 12 11
6 5 4 3 4 4 4 4 4 5 5 5 4 4 4 4 4 4 4 4 4 4 5 5 5 5 5 5 5 5 5 6 7 8 9 9 10 10 11 12 12 12 11
6 6 5 4 4 4 4 4 4 4 4 4 4 4 4 4 3 3 3 3 3 3 3 4 3 4 4 4 4 4 4 5 5 6 7 7 8 9 9 10 10 11 11
6 6 5 4 4 4 4 4 4 4 4 4 4 3 3 3 3 3 3 3 3 2 2 2 2 3 3 3 2 3 3 3 4 5 6 6 7 7 8 8 9 9 10
5 5 4 4 4 4 4 4 4 4 4 4 3 3 3 3 2 2 2 2 2 2 2 1 1 1 2 2 2 2 2 2 2 3 4 5 6 7 7 7 7 8 8
4 4 4 4 4 4 4 4 4 3 3 2 2 2 1 1 1 1 1 1 1 1 1 1 1 1 1 1 1 1 1 2 2 3 3 3 4 5 6 6 6 6 7
5 5 5 4 4 4 3 3 2 2 1 1 1 0 0 -0 -0 -0 -0 -0 -0 -0 -0 0 0 0 1 1 -0 0 0 0 1 2 3 3 3 3 4 5 5 5 6
5 5 4 4 3 2 2 1 1 -0 -0 -0 -0 0 -0 -0 -0 -1 -0 -1 -1 -0 0 -0 0 -0 -0 -0 -1 -0 -0 -0 -0 1 1 2 3 3 3 4 4 5 5
4 4 3 2 2 1 0 0 -0 -0 -0 -0 -0 -0 -0 -1 -1 -1 -1 -2 -2 -2 -2 -1 -0 -0 -1 -1 -1 -1 -0 -1 -0 -0 0 0 1 1 2 3 4 4 4
2 2 2 1 1 0 -0 -1 -1 -1 -1 -1 -2 -2 -2 -2 -2 -2 -3 -3 -3 -3 -3 -3 -2 -2 -2 -1 -1 -1 -1 -1 -1 -1 -1 -1 -0 0 1 2 3 4 4
1 1 0 -0 -1 -1 -1 -1 -2 -2 -2 -3 -3 -3 -3 -3 -3 -3 -3 -4 -4 -4 -4 -3 -3 -2 -2 -2 -2 -1 -1 -1 -1 -1 -1 -1 -1 -0 0 1 3 3 3
0 -0 -1 -1 -2 -2 -2 -2 -3 -3 -3 -4 -4 -4 -4 -4 -4 -4 -4 -4 -3 -3 -3 -3 -2 -2 -2 -2 -2 -1 -1 -2 -2 -2 -2 -1 -1 -0 -0 1 1 2 3
-1 -1 -2 -2 -3 -3 -3 -3 -4 -4 -4 -5 -5 -5 -5 -5 -5 -5 -5 -5 -4 -3 -3 -2 -2 -2 -2 -2 -2 -2 -1 -2 -1 -2 -2 -2 -1 -1 -1 0 0 1 1

GFSMW_925_temp_105.txt.gz
Temp
11 10 11 12 13 14 14 14 15 17 15 14 14 14 14 14 15 15 15 16 16 16 14 15 15 15 15 15 15 15 15 15 15 15 16 16 17 17 17 18 18 18 19
10 10 10 11 12 14 14 15 14 15 16 15 14 14 14 15 17 16 16 16 16 16 14 14 14 14 14 14 15 14 15 14 15 15 14 16 18 18 18 18 18 18 19
9 9 9 10 11 12 14 15 15 18 16 14 14 14 14 15 15 15 16 16 16 15 15 14 14 14 15 15 16 15 15 15 15 16 15 15 17 18 18 18 18 19 19
11 10 10 10 10 11 12 13 13 13 15 14 14 14 13 13 13 14 15 15 15 15 15 15 14 14 15 15 15 15 15 14 15 14 15 16 15 17 18 16 17 16 17
10 10 9 9 9 10 12 12 13 13 13 14 13 13 13 13 13 13 14 15 15 15 15 15 15 14 14 14 15 15 15 14 14 14 15 14 15 15 16 18 16 16 17
9 8 8 8 8 8 9 10 11 11 12 12 12 12 12 13 13 14 13 13 14 14 14 14 14 14 14 14 14 14 14 14 14 14 14 15 15 16 16 15 16 15 17
8 7 7 7 7 7 7 8 9 9 10 11 11 11 10 10 10 11 12 13 13 13 13 13 13 13 13 14 14 14 14 14 13 13 13 14 15 16 16 16 17 15 15
7 7 6 6 6 6 6 6 7 7 8 8 8 8 8 8 8 8 9 9 9 10 11 12 12 13 13 13 13 13 13 13 13 13 13 13 13 14 15 16 15 16 13
7 6 6 5 5 5 5 5 6 6 6 7 7 7 8 8 8 7 8 8 8 9 8 10 11 11 12 12 13 13 14 13 13 13 13 13 13 13 13 14 14 15 15
7 6 6 5 5 4 5 5 5 5 6 6 6 6 6 6 7 8 7 7 7 8 8 9 9 9 10 11 11 12 13 13 13 13 13 13 13 13 13 13 13 13 13
6 6 6 5 4 4 4 4 5 5 5 5 6 6 5 6 6 5 6 6 7 7 7 6 8 8 8 9 9 10 10 11 12 13 13 13 13 13 13 13 13 13 13
6 6 5 5 4 3 3 4 4 4 4 4 5 5 6 6 5 5 6 6 7 7 7 7 7 6 7 7 7 7 8 9 9 10 11 13 13 13 13 13 13 13 13
7 7 6 5 4 4 4 4 4 4 5 5 6 7 6 5 5 5 5 6 6 6 6 7 6 6 6 6 6 7 7 7 7 7 8 9 10 11 12 12 12 12 12
7 7 7 5 5 4 4 5 5 5 5 5 5 4 3 4 4 4 4 4 4 5 5 5 5 5 5 5 4 4 4 5 6 7 7 8 8 8 9 10 12 12 12
6 6 5 4 4 4 4 4 4 4 4 3 3 3 3 3 3 3 3 3 3 3 3 3 4 4 4 2 3 3 3 3 3 4 5 6 7 7 8 8 9 10 11
6 5 5 4 3 3 3 3 3 3 3 3 3 3 3 3 3 2 2 2 2 2 2 2 2 3 3 3 2 2 2 2 2 2 3 3 5 6 7 8 8 7 8
6 5 5 4 4 4 4 4 4 3 3 3 2 2 2 2 1 2 2 2 2 2 2 2 2 2 2 2 1 1 2 2 2 2 2 2 3 3 4 6 6 8 9
5 5 4 4 4 4 3 3 3 3 2 2 2 2 2 2 1 1 1 1 0 0 0 0 1 1 1 1 0 1 1 0 1 1 2 2 2 2 3 4 4 5 6
5 5 5 4 3 3 3 2 2 2 2 2 1 1 1 0 -0 -0 -1 -1 -1 -1 -1 -0 -0 -0 0 0 -0 -0 -0 -0 -0 0 1 1 3 3 3 3 4 4 4
5 4 4 3 3 2 3 3 2 2 1 1 0 0 -0 -1 -1 -1 -1 -2 -2 -2 -2 -1 -1 -1 -1 -0 -1 -1 -0 -1 -1 -1 -0 0 1 2 2 2 3 3 4
4 4 3 3 2 2 2 2 1 0 -0 -1 -1 -1 -2 -2 -2 -3 -3 -3 -3 -3 -2 -2 -1 -0 -0 -0 -0 -1 -1 -1 -1 -0 -0 -0 -0 -0 0 1 1 2 3
3 3 3 2 1 1 1 -0 -1 -1 -2 -2 -2 -2 -2 -2 -3 -3 -3 -3 -3 -4 -4 -4 -3 -2 -1 -1 -2 -1 -1 -1 -0 -1 -1 -1 -1 -1 -1 -0 1 1 2
2 2 2 1 0 -0 -1 -2 -2 -2 -2 -2 -3 -3 -3 -3 -3 -3 -3 -4 -4 -4 -4 -3 -3 -3 -2 -1 -2 -2 -2 -1 -1 -1 -1 -1 -1 -1 -1 -1 -0 1 1
1 1 0 -0 -1 -1 -2 -2 -3 -3 -3 -3 -3 -3 -3 -4 -3 -4 -5 -5 -5 -5 -4 -3 -3 -3 -3 -2 -2 -2 -2 -2 -2 -1 -1 -2 -1 -1 -1 -1 -1 0 1
0 -0 -1 -1 -2 -3 -3 -3 -4 -4 -4 -4 -4 -4 -5 -5 -5 -5 -5 -5 -5 -4 -3 -3 -3 -2 -2 -2 -2 -2 -1 -1 -1 -1 -2 -2 -2 -2 -1 -1 -1 -1 -0
-1 -1 -2 -2 -3 -3 -3 -4 -4 -4 -4 -5 -5 -6 -5 -5 -6 -5 -5 -4 -4 -3 -3 -3 -3 -3 -3 -2 -1 -2 -1 -2 -1 -1 -2 -2 -2 -2 -2 -2 -1 -2 -1

GFSMW_925_temp_111.txt.gz
Temp
17 15 15 15 15 15 15 15 15 15 16 16 16 17 15 15 16 17 18 17 17 17 16 18 17 17 16 16 16 17 16 16 16 16 15 16 16 16 17 18 19 19 20
15 14 14 14 13 13 15 15 15 15 15 15 16 16 14 14 14 15 15 17 17 16 15 16 16 16 16 15 15 15 15 15 16 15 15 16 16 16 17 16 17 18 19
12 13 12 11 11 11 12 13 14 15 15 15 15 15 14 14 14 15 15 15 15 16 16 16 16 16 16 15 15 15 15 15 16 16 17 17 17 19 19 17 17 17 17
12 12 10 9 9 8 9 10 13 15 15 15 14 14 14 15 16 16 16 16 16 16 16 15 16 16 15 15 15 15 16 16 16 16 16 17 17 18 18 20 19 18 18
10 10 9 7 7 7 8 9 12 13 15 15 15 14 14 14 16 15 14 15 15 15 15 15 15 15 15 15 15 15 15 15 15 16 16 16 16 16 15 16 18 18 18
9 9 8 7 6 6 7 8 9 9 11 13 12 11 11 11 11 12 12 12 13 13 13 13 13 14 14 14 14 15 15 15 15 15 15 15 14 14 14 14 16 17 18
8 8 7 7 6 5 7 7 7 8 8 9 11 11 8 9 9 9 9 9 10 10 10 11 11 12 12 13 13 13 14 14 14 14 14 14 14 14 14 14 15 15 17
8 7 6 6 5 5 5 7 7 7 7 7 8 7 7 6 7 7 7 7 7 8 8 9 9 9 10 11 11 11 11 12 13 13 14 14 14 14 14 14 14 14 15
8 7 6 5 5 5 4 6 7 6 7 7 6 6 6 5 5 5 6 7 7 7 7 8 8 8 9 9 9 9 9 9 10 10 11 12 13 14 14 14 13 14 14
7 7 6 5 5 5 5 4 4 6 5 5 6 6 5 5 6 6 6 6 6 6 7 7 7 7 8 8 8 7 8 8 8 8 8 9 10 10 11 12 13 13 14
7 7 6 5 4 4 4 4 4 3 4 5 5 5 5 6 6 5 5 5 6 6 6 6 6 6 6 6 7 7 7 7 7 7 7 7 8 8 9 9 11 12 13
8 7 6 5 5 4 4 4 4 5 5 5 4 4 4 4 4 5 4 5 5 5 5 5 6 6 6 6 6 6 6 6 6 6 6 6 7 7 7 7 7 8 9
9 9 8 7 7 6 6 6 6 6 6 6 6 5 5 5 4 4 4 4 4 5 5 5 5 5 5 5 5 5 5 6 6 6 5 6 6 6 5 5 6 7 7
13 13 13 12 11 9 8 8 7 6 6 6 5 5 5 4 4 3 3 3 4 4 4 4 4 4 4 5 3 4 4 4 5 5 5 5 5 4 4 4 5 5 6
13 13 13 13 11 10 9 8 7 6 6 6 5 5 4 4 4 3 3 3 3 3 3 3 3 3 3 4 2 2 3 3 4 4 4 4 4 4 4 3 4 4 4
14 13 13 12 11 10 9 7 7 6 6 6 5 5 4 4 3 3 3 3 3 3 3 3 3 3 3 3 2 1 1 2 3 3 3 3 3 4 3 4 4 3 3
14 14 13 12 11 10 8 8 6 5 5 5 5 4 4 3 3 3 3 3 2 2 2 2 1 1 2 2 1 1 1 2 2 2 2 2 3 3 3 3 3 3 4
15 14 13 12 10 9 7 6 5 5 5 5 4 3 3 3 2 2 2 2 1 1 1 1 1 1 1 1 0 0 0 1 1 2 2 2 2 2 1 1 1 1 2
15 14 13 11 10 8 7 6 5 4 4 4 3 2 2 2 1 1 1 0 0 -0 -0 0 -0 -0 0 0 -0 -0 0 1 1 2 2 2 2 2 1 0 0 1 0
13 12 11 9 8 7 6 5 5 4 4 3 2 1 1 0 0 -0 -0 -1 -1 -1 -0 -1 -0 0 0 1 0 -0 0 1 1 2 2 2 2 1 0 0 0 -0 -0
11 10 9 8 7 6 5 4 4 4 2 1 0 -0 -0 -0 -0 -1 -1 -1 -1 -1 -0 0 1 1 1 1 0 -0 -0 0 -0 0 1 1 1 1 0 0 0 0 0
9 8 8 7 5 4 3 4 3 1 0 -0 -0 -0 -0 -0 -0 -1 -0 -0 -0 0 0 0 0 0 1 0 0 0 0 -0 -0 -0 0 0 0 -0 -0 0 0 0 -0
8 7 7 5 4 3 2 3 2 0 -0 -1 -0 -0 -1 -1 -1 -1 -1 -1 -1 -1 -1 -1 -1 -0 -1 -1 -1 -0 -0 -0 -0 -0 -0 -0 -0 0 -0 -0 -0 -0 -1
7 6 5 5 4 2 1 1 -0 -1 -1 -1 -1 -1 -1 -1 -1 -1 -1 -1 -2 -1 -2 -2 -1 -2 -2 -2 -2 -1 -2 -1 -1 -1 -1 -1 -0 -0 -0 -0 -1 -1 -1
6 5 5 5 4 2 1 -0 -1 -2 -1 -1 -1 -1 -1 -1 -1 -2 -2 -2 -2 -2 -3 -3 -3 -3 -3 -3 -2 -2 -2 -2 -2 -2 -2 -1 -1 -1 -1 -1 -1 -1 -1
5 4 3 3 2 1 -0 -1 -2 -2 -2 -2 -2 -1 -2 -2 -2 -2 -2 -2 -2 -3 -3 -3 -3 -3 -3 -3 -3 -3 -3 -2 -2 -2 -2 -2 -1 -1 -1 -1 -2 -2 -2

GFSMW_925_temp_114.txt.gz
Temp
14 14 13 11 11 11 11 11 12 13 15 15 15 16 16 16 16 16 16 16 16 17 17 17 17 18 18 18 19 17 16 17 17 16 16 17 17 16 17 17 17 18 19
11 12 11 10 9 9 9 9 10 11 12 15 15 15 15 15 15 16 16 17 16 17 17 17 17 17 17 16 16 16 16 16 16 16 15 15 16 16 17 16 17 17 18
10 10 10 9 8 8 7 8 9 11 12 13 15 15 15 15 14 14 15 16 15 17 17 17 16 16 16 16 16 16 16 15 15 16 16 15 15 16 17 16 16 16 17
10 10 9 9 8 7 7 8 8 10 12 14 15 15 14 14 14 14 16 16 16 17 16 15 16 16 17 16 16 16 16 17 14 15 15 16 16 15 15 18 18 17 16
9 9 8 8 7 6 6 7 8 8 10 12 14 14 13 12 12 12 13 14 15 13 14 15 15 15 15 15 15 15 15 15 16 15 16 15 15 15 14 15 16 18 17
9 8 8 7 6 6 6 7 7 7 8 9 9 10 10 10 11 11 10 10 9 9 12 13 13 13 13 13 14 14 14 14 14 15 15 15 14 14 14 14 15 15 16
8 8 7 6 6 5 6 7 7 6 6 7 7 7 7 7 7 8 9 7 10 7 8 9 11 11 11 11 12 12 12 12 12 13 13 14 14 14 14 14 15 15 15
8 8 7 6 5 5 5 6 6 6 6 5 5 6 8 9 4 5 5 6 5 5 7 8 9 9 9 9 10 10 10 9 9 10 10 11 12 13 13 14 14 14 14
8 7 6 5 5 5 4 4 5 5 6 5 6 6 5 5 5 6 5 5 5 6 7 8 8 8 8 8 9 9 8 9 8 8 8 8 9 10 9 10 11 13 14
8 7 6 6 5 4 4 5 5 4 5 5 5 5 6 6 5 6 6 6 6 6 7 7 7 7 7 7 7 7 7 7 7 7 7 7 7 8 8 8 8 9 9
8 7 7 6 5 4 5 5 5 5 5 5 5 5 5 5 5 5 5 5 5 5 5 6 6 6 6 6 6 6 6 6 6 6 6 6 6 7 6 6 6 7 7
8 8 7 6 6 5 5 5 6 6 6 6 6 5 5 5 4 4 4 5 5 5 5 5 5 5 5 5 5 5 5 5 5 5 5 5 5 5 5 5 5 6 6
8 7 7 6 6 7 7 7 7 6 6 6 6 5 5 5 4 4 4 4 4 4 4 4 4 4 4 4 4 4 3 4 4 5 4 4 4 4 4 4 4 4 4
9 9 8 8 9 9 9 8 7 6 6 5 5 5 4 4 4 3 3 3 3 3 3 3 3 3 3 3 3 2 2 2 3 3 4 4 3 3 3 3 3 3 3
10 10 10 9 11 10 8 8 7 6 6 6 5 5 4 4 3 3 3 3 3 3 2 2 2 2 2 3 2 2 1 1 2 2 3 2 2 3 3 3 4 3 3
12 11 11 11 11 10 9 8 7 6 6 6 5 4 4 3 3 3 2 2 2 2 1 1 1 1 1 1 2 1 1 0 1 2 2 2 2 2 2 2 2 2 2
12 11 10 10 11 10 9 8 7 6 5 5 4 4 3 3 2 2 2 1 1 1 1 0 0 0 0 1 1 1 0 0 0 1 1 2 2 2 2 1 0 0 1
13 12 11 11 11 10 8 7 6 5 5 4 4 3 3 2 1 1 1 0 -0 -0 -0 -0 -0 -0 -0 0 0 0 -0 -0 0 1 1 2 2 2 2 1 0 -0 -0
13 12 13 12 10 9 7 6 5 5 4 4 3 2 1 1 1 0 -0 -0 -1 -1 -1 -1 -0 -0 -0 0 0 0 -0 -0 0 1 1 2 2 2 1 1 0 -0 0
12 12 12 10 9 8 7 6 5 5 4 3 2 1 1 0 -0 -0 -0 -1 -1 -1 -1 -0 -0 0 0 1 1 1 0 -0 -0 -0 -0 0 1 2 1 1 0 -1 -0
11 11 10 8 8 7 6 5 5 4 3 2 1 0 -0 -0 -0 -0 -1 -1 -0 -0 -0 -0 0 0 0 0 0 0 0 -0 -0 -0 -1 -1 0 1 0 0 0 -0 -0
9 9 8 7 6 5 5 4 4 3 2 1 -0 -0 -0 -0 -1 -1 -1 -1 -1 -1 -1 -1 -1 -1 -1 -1 -1 -1 -0 -0 -1 -1 -1 -1 -1 -0 0 0 -0 0 0
8 8 7 5 5 4 3 3 3 2 0 -0 -1 -1 -1 -1 -1 -1 -1 -1 -2 -2 -2 -2 -2 -2 -2 -3 -2 -2 -2 -2 -2 -2 -1 -1 -1 -1 -1 -1 -0 0 -1
7 7 6 4 3 3 2 2 1 1 -0 -1 -1 -1 -1 -1 -1 -1 -1 -2 -2 -2 -2 -2 -3 -3 -3 -4 -3 -3 -3 -3 -3 -3 -3 -2 -2 -1 -1 -1 -1 -1 -1
7 6 5 4 4 3 2 1 0 -1 -1 -1 -1 -1 -1 -1 -2 -2 -2 -2 -2 -2 -2 -2 -3 -3 -4 -4 -3 -3 -3 -3 -3 -2 -3 -3 -3 -3 -2 -2 -1 -1 -1
5 5 4 4 3 2 1 0 -1 -1 -2 -2 -2 -2 -2 -2 -2 -2 -2 -2 -2 -2 -2 -3 -3 -3 -3 -3 -3 -3 -3 -3 -3 -2 -3 -3 -3 -3 -3 -2 -2 -2 -2

GFSMW_925_temp_117.txt.gz
Temp
11 11 10 10 9 8 8 8 8 10 9 10 11 13 14 15 15 15 15 16 16 16 16 18 17 16 17 17 17 18 17 17 17 16 16 17 17 16 17 17 18 18 18
8 10 10 9 8 7 7 7 8 8 9 10 10 12 13 15 15 15 15 15 16 16 15 16 15 15 16 16 17 17 17 16 17 16 16 15 15 16 16 17 17 17 18
8 8 9 8 7 7 7 7 7 8 8 9 11 13 13 14 14 13 14 13 13 14 15 16 16 16 16 16 17 17 17 16 16 16 16 14 15 15 16 17 17 17 17
7 8 8 7 7 6 7 7 7 7 8 8 9 11 12 12 11 12 12 12 12 13 13 14 16 17 16 16 17 16 16 16 15 15 16 17 16 14 15 16 16 16 16
8 7 7 7 6 6 7 7 7 7 7 9 8 8 9 9 9 9 10 10 11 12 12 12 13 14 14 15 14 15 14 14 14 14 14 15 15 15 14 15 15 16 17
7 8 7 7 6 6 6 6 6 6 7 6 6 7 7 8 7 9 7 7 8 7 9 11 10 10 11 13 12 12 13 13 13 13 13 14 14 14 13 14 15 15 16
6 8 7 6 6 5 6 6 6 6 6 5 5 5 5 5 5 5 4 4 4 4 7 7 7 11 7 10 11 11 11 11 11 11 11 12 12 12 13 14 14 14 15
6 7 7 6 5 5 5 5 5 5 6 5 5 4 4 4 3 4 4 4 3 4 5 5 5 5 6 8 9 9 9 9 9 9 8 8 8 9 9 10 10 13 14
9 8 6 6 6 5 5 5 5 6 6 6 5 5 5 5 5 4 5 5 5 5 5 5 5 6 7 7 8 7 7 8 7 7 7 8 7 7 7 7 7 9 11
8 8 6 6 6 5 5 5 5 6 6 6 6 5 5 5 5 5 5 5 5 6 6 6 6 6 6 6 6 6 6 6 6 6 6 6 6 7 6 5 6 7 7
7 7 7 7 6 6 5 6 6 6 6 6 6 5 5 5 5 4 4 4 5 5 4 5 5 5 5 5 5 5 5 5 5 5 5 5 5 5 5 5 5 5 6
7 6 7 7 6 6 6 6 6 6 6 6 5 5 5 4 4 4 4 4 4 4 4 4 4 4 4 4 4 4 4 4 4 4 4 4 4 3 3 3 3 4 4
6 6 6 6 6 6 7 7 7 6 6 6 5 5 5 5 4 4 3 3 3 3 3 3 3 3 3 3 3 3 2 2 2 3 3 3 3 3 3 3 2 2 3
7 7 6 6 6 7 7 7 7 7 6 6 5 5 4 4 4 3 3 3 2 2 2 2 2 1 2 2 2 2 1 1 1 2 2 2 2 2 2 3 3 3 2
7 8 7 7 7 7 7 8 7 6 6 6 5 5 4 4 3 3 2 2 2 2 1 1 1 1 1 1 2 1 1 0 1 1 1 1 2 2 2 2 1 1 1
9 9 9 8 8 8 8 8 7 6 6 5 5 4 4 3 3 2 2 1 1 1 0 0 -0 -0 -0 0 1 1 1 0 0 0 1 1 1 2 2 1 1 0 1
10 10 9 9 9 9 9 8 7 6 6 5 4 4 3 3 2 1 1 1 0 -0 -0 -0 -0 -0 -0 0 0 1 0 -0 -0 -0 0 1 1 2 1 1 1 0 0
11 9 9 10 10 10 9 8 7 6 5 5 4 3 3 2 1 1 0 0 -0 -0 -0 -0 -0 -0 0 0 0 1 0 0 -0 -0 -0 0 0 1 1 1 1 0 0
11 11 11 11 10 9 8 7 6 5 5 4 4 3 2 1 0 0 -0 -0 -0 -0 -0 -0 -0 0 0 0 0 1 1 0 -0 -0 -0 -0 -0 0 1 1 1 0 0
11 11 10 10 9 8 7 7 6 5 4 4 3 2 1 0 0 -0 -0 -1 -1 -1 -1 -0 -0 -0 -0 -0 0 0 -0 -0 -0 -0 -1 -1 -0 -0 0 1 0 0 -0
10 10 9 9 8 7 7 6 5 4 4 3 2 1 1 -0 -0 -1 -1 -1 -1 -1 -1 -1 -1 -1 -1 -1 -1 -1 -1 -1 -1 -2 -2 -1 -1 -1 -0 0 -0 -1 -0
8 8 7 7 7 6 6 5 4 4 3 2 1 0 -0 -0 -1 -1 -1 -1 -1 -2 -2 -2 -2 -2 -2 -3 -3 -2 -2 -2 -2 -2 -2 -2 -2 -1 -1 -1 -1 -0 -0
8 8 7 5 5 5 5 4 4 3 2 1 0 -0 -1 -1 -1 -1 -1 -2 -2 -2 -2 -2 -3 -3 -3 -3 -3 -3 -3 -3 -2 -2 -3 -2 -2 -2 -2 -2 -1 -1 -1
6 7 5 4 3 4 4 4 3 2 1 0 -1 -1 -1 -1 -1 -2 -2 -2 -2 -2 -3 -3 -3 -3 -3 -3 -3 -4 -4 -4 -3 -3 -3 -3 -2 -2 -2 -2 -2 -2 -2
6 6 5 4 4 3 3 2 2 1 0 -1 -1 -1 -1 -2 -2 -2 -2 -2 -2 -2 -2 -2 -2 -3 -3 -3 -3 -3 -3 -3 -3 -3 -3 -4 -4 -3 -4 -3 -3 -3 -2
5 5 5 4 4 3 2 2 1 0 -1 -1 -2 -2 -2 -2 -3 -3 -3 -3 -3 -3 -3 -3 -3 -3 -3 -3 -3 -3 -3 -3 -3 -3 -4 -4 -4 -4 -4 -4 -4 -4 -4

GFSMW_925_temp_120.txt.gz
Temp
9 10 9 9 9 8 8 8 7 7 8 8 9 9 11 13 14 14 14 14 14 14 14 14 15 15 15 17 18 18 18 17 17 16 16 16 16 16 16 16 16 15 15
8 9 9 8 7 7 7 7 6 7 7 7 8 9 10 12 13 13 13 13 13 14 14 14 13 13 14 15 15 15 15 16 16 15 15 14 15 15 15 16 17 17 16
7 7 8 7 7 6 6 6 6 7 7 7 8 9 11 11 11 11 11 10 11 11 11 12 13 13 13 14 14 14 15 15 16 16 16 14 14 14 15 16 17 17 16
7 7 7 7 6 6 6 7 7 6 6 7 7 6 8 8 8 8 8 8 8 8 9 10 13 13 14 13 13 15 14 14 15 14 16 15 15 14 14 16 16 17 16
7 7 7 7 6 6 6 6 6 7 6 7 7 6 6 6 6 6 6 6 7 6 6 7 9 11 12 13 13 14 13 15 15 14 14 14 14 14 14 15 15 15 16
7 7 7 6 6 6 6 6 6 6 6 6 5 6 5 4 4 4 3 4 5 5 4 6 7 8 9 11 11 11 12 13 13 13 13 13 13 13 13 14 14 14 15
6 6 6 6 6 6 6 6 6 6 5 6 6 6 5 5 5 3 2 3 3 4 3 4 6 6 6 7 11 10 8 11 10 10 10 10 9 9 11 12 13 13 14
6 6 6 6 6 6 6 6 6 6 6 6 6 6 6 5 5 5 4 3 4 4 4 3 5 5 5 5 5 6 5 6 7 7 8 8 8 8 8 8 9 10 13
6 7 7 6 6 6 6 6 6 6 6 6 6 6 5 5 5 5 5 5 5 5 5 4 4 5 5 5 5 5 5 6 6 6 6 6 6 7 7 7 7 7 9
6 6 6 6 6 6 6 6 6 6 6 6 6 6 5 5 5 5 5 4 4 4 4 5 5 5 5 5 5 5 5 5 5 5 6 6 6 5 5 5 6 6 6
6 6 6 7 7 7 6 6 6 6 6 6 6 6 5 5 4 4 4 4 4 4 4 4 4 4 4 4 4 4 4 4 4 4 4 4 4 4 4 4 4 4 5
6 5 6 7 7 6 6 6 7 6 6 6 6 5 5 5 4 4 3 3 3 3 3 3 3 3 3 2 3 2 2 2 2 2 3 3 3 3 3 3 3 3 3
6 6 6 6 6 7 7 7 7 7 6 6 5 5 5 4 4 3 3 2 2 2 2 1 1 2 2 2 2 2 1 1 1 2 2 2 2 2 2 3 2 2 2
7 6 6 6 6 7 7 7 7 7 6 6 5 5 4 4 3 3 2 2 1 1 1 1 1 1 1 1 1 1 1 1 1 1 1 1 1 1 2 2 2 1 1
6 7 7 6 6 6 7 7 7 7 6 6 5 5 4 4 3 3 2 1 1 1 1 0 0 0 0 0 1 1 0 0 0 0 0 1 1 1 2 1 1 1 0
8 7 7 7 7 6 7 8 8 7 6 6 5 5 4 3 3 2 2 1 1 0 0 0 0 0 0 0 1 1 0 -0 -0 -0 0 0 1 1 1 1 1 1 0
9 8 7 8 8 8 9 7 8 7 6 6 5 4 4 3 2 2 1 1 0 -0 -0 -0 -0 -0 0 -0 0 1 1 0 -0 -0 -0 -0 0 0 1 1 0 1 0
9 8 8 8 9 10 9 9 8 7 6 5 5 4 3 2 2 1 0 -0 -0 -0 -1 -0 -0 -0 0 -0 0 1 1 0 -0 -0 -0 -0 -0 -0 -0 1 0 0 0
9 10 11 11 10 10 10 8 7 6 5 5 4 4 3 2 1 0 -0 -0 -1 -1 -1 -1 -1 -1 -1 -1 -0 0 -0 -1 -1 -1 -1 -1 -1 -1 0 0 0 0 0
10 11 11 10 9 9 9 7 6 5 5 4 4 3 2 1 1 0 -0 -1 -1 -1 -1 -1 -1 -1 -1 -1 -1 -1 -1 -2 -1 -1 -2 -2 -1 -1 -1 -0 -0 -0 -0
10 10 10 9 9 8 7 6 6 5 5 4 3 2 1 1 0 -0 -1 -1 -1 -1 -2 -2 -2 -2 -2 -2 -2 -2 -2 -2 -2 -2 -2 -2 -2 -2 -1 -1 -1 -1 -1
8 9 8 7 7 7 7 6 5 5 4 3 2 2 1 0 -1 -1 -1 -1 -2 -2 -2 -2 -2 -2 -3 -3 -3 -3 -2 -2 -2 -3 -3 -3 -3 -2 -2 -2 -1 -1 -1
7 8 7 6 6 6 6 5 5 4 3 2 1 1 0 -0 -1 -1 -1 -2 -2 -2 -3 -3 -3 -3 -3 -3 -3 -3 -3 -3 -3 -3 -3 -2 -3 -3 -2 -2 -2 -2 -2
6 7 5 4 4 5 5 5 5 3 2 1 1 0 -1 -1 -1 -2 -2 -2 -3 -3 -3 -3 -3 -3 -3 -3 -3 -3 -3 -3 -3 -3 -3 -3 -3 -3 -3 -3 -3 -3 -3
7 6 5 4 4 4 4 4 4 3 1 1 0 -1 -1 -1 -2 -2 -2 -3 -3 -3 -3 -3 -3 -3 -3 -3 -3 -3 -3 -3 -3 -3 -4 -4 -5 -5 -5 -4 -4 -4 -4
6 5 5 4 4 4 3 3 2 2 1 -0 -1 -1 -2 -2 -2 -3 -3 -3 -3 -3 -3 -3 -3 -3 -3 -3 -3 -3 -3 -3 -3 -4 -5 -6 -6 -6 -5 -5 -5 -5 -5